[[{"header":{"parameterUnit":"m.s-1","parameterCategory":1,"la1":30.6,"la2":29.2853,"lo1":-89.7004,"lo2":-87.6739,"dy":0.0162,"dx":0.0183,"nx":112,"ny":82,"refTime":"2024-03-14T18:00:00:Z","depth":0,"parameterNumber":2,"parameterNumberName":"U-component_of_WINDS"},"data":[0.0,0.0,0.0,0.0,0.0,0.0,0.0,0.0,0.0,0.0,0.0,0.0,0.0,0.0,0.0,0.0,0.0,0.0,0.0,0.0,0.0,0.0,0.0,0.0,0.0,0.0,0.0,0.0,0.0,0.0,0.0,0.0,0.0,0.0,0.0,0.0,0.0,0.0,0.0,0.0,0.0,0.0,0.0,0.0,0.0,0.0,0.0,0.0,0.0,0.0,0.0,0.0,0.0,0.0,0.0,0.0,0.0,0.0,0.0,0.0,0.0,0.0,0.0,0.0,0.0,0.0,0.0,0.0,0.0,0.0,0.0,0.0,0.0,0.0,0.0,0.0,0.0,0.0,0.0,0.0,0.0,0.0,0.0,0.0,0.0,0.0,0.0,0.0,0.0,0.0,1.3301,1.149,1.0297,1.056,1.2814,1.2428,1.3351,1.6358,0.0,0.0,0.0,0.0,0.0,0.0,0.0,0.0,0.0,0.0,0.0,0.0,0.0,0.0,0.0,0.0,0.0,0.0,0.0,0.0,0.0,0.0,0.0,0.0,0.0,0.0,0.0,0.0,0.0,0.0,0.0,0.0,0.0,0.0,0.0,0.0,0.0,0.0,0.0,0.0,0.0,0.0,0.0,0.0,0.0,0.0,0.0,0.0,0.0,0.0,0.0,0.0,0.0,0.0,0.0,0.0,0.0,0.0,0.0,0.0,0.0,0.0,0.0,0.0,0.0,0.0,0.0,0.0,0.0,0.0,0.0,0.0,0.0,0.0,0.0,0.0,0.0,0.0,0.0,0.0,0.0,0.0,0.0,0.0,0.0,0.0,0.0,0.0,0.0,0.0,0.0,0.0,0.0,0.0,0.0,0.0,0.0,0.0,0.0,0.0,0.0,0.0,0.0,0.0,1.3309,1.1487,1.0389,1.0175,1.1183,1.198,1.314,1.4836,0.0,0.0,0.0,0.0,0.0,0.0,0.0,0.0,0.0,0.0,0.0,0.0,0.0,0.0,0.0,0.0,0.0,0.0,0.0,0.0,0.0,0.0,0.0,0.0,0.0,0.0,0.0,0.0,0.0,0.0,0.0,0.0,0.0,0.0,0.0,0.0,0.0,0.0,0.0,0.0,0.0,0.0,0.0,0.0,0.0,0.0,0.0,0.0,0.0,0.0,0.0,0.0,0.0,0.0,0.0,0.0,0.0,0.0,0.0,0.0,0.0,0.0,0.0,0.0,0.0,0.0,0.0,0.0,0.0,0.0,0.0,0.0,0.0,0.0,0.0,0.0,0.0,0.0,0.0,0.0,0.0,0.0,0.0,0.0,0.0,0.0,0.0,0.0,0.0,0.0,0.0,0.0,0.0,0.0,0.0,0.0,0.0,0.0,0.0,0.0,0.0,0.0,0.0,1.2265,1.1985,1.2095,1.1202,1.1283,1.2978,1.3066,1.371,1.525,1.6016,0.0,0.0,0.0,0.0,0.0,0.0,0.0,0.0,0.0,0.0,0.0,0.0,0.0,0.0,0.0,0.0,0.0,0.0,0.0,0.0,0.0,0.0,0.0,0.0,0.0,0.0,0.0,0.0,0.0,0.0,0.0,0.0,0.0,0.0,0.0,0.0,0.0,0.0,0.0,0.0,0.0,0.0,0.0,0.0,0.0,0.0,0.0,0.0,0.0,0.0,0.0,0.0,0.0,0.0,0.0,0.0,0.0,0.0,0.0,0.0,0.0,0.0,0.0,0.0,0.0,0.0,0.0,0.0,0.0,0.0,0.0,0.0,0.0,0.0,0.0,0.0,0.0,0.0,0.0,0.0,0.0,0.0,0.0,0.0,0.0,0.0,0.0,0.0,0.0,0.0,0.0,0.0,0.0,0.0,0.0,0.0,0.0,0.0,0.0,0.0,0.0,0.0,1.0774,1.0722,1.207,1.1502,1.189,1.3947,1.3628,1.3928,1.5386,1.5847,0.0,0.0,0.0,0.0,0.0,0.0,0.0,0.0,0.0,0.0,0.0,0.0,0.0,0.0,0.0,0.0,0.0,0.0,0.0,0.0,0.0,0.0,0.0,0.0,0.0,0.0,0.0,0.0,0.0,0.0,0.0,0.0,0.0,0.0,0.0,0.0,0.0,0.0,0.0,0.0,0.0,0.0,0.0,0.0,0.0,0.0,0.0,0.0,0.0,0.0,0.0,0.0,0.0,0.0,0.0,0.0,0.0,0.0,0.0,0.0,0.0,0.0,0.0,0.0,0.0,0.0,0.0,0.0,0.0,0.0,0.0,0.0,0.0,0.0,0.0,0.0,0.0,0.0,0.0,0.0,0.0,0.0,0.0,0.0,0.0,0.0,0.0,0.0,0.0,0.0,0.0,0.0,0.0,0.0,0.0,0.0,0.0,0.0,0.0,0.0,0.0,0.0,1.0748,1.0261,1.0453,1.035,1.0638,1.1495,1.2296,1.3094,1.3904,1.5356,0.0,0.0,0.0,0.0,0.0,0.0,0.0,0.0,0.0,0.0,0.0,0.0,0.0,0.0,0.0,0.0,0.0,0.0,0.0,0.0,0.0,0.0,0.0,0.0,0.0,0.0,0.0,0.0,0.0,0.0,0.0,0.0,0.0,0.0,0.0,0.0,0.0,0.0,0.0,0.0,0.0,0.0,0.0,0.0,0.0,0.0,0.0,0.0,0.0,0.0,0.0,0.0,0.0,0.0,0.0,0.0,0.0,0.0,0.0,0.0,0.0,0.0,0.0,0.0,0.0,0.0,0.0,0.0,0.0,0.0,0.0,0.0,0.0,0.0,0.0,0.0,0.0,0.0,0.0,0.0,0.0,0.0,0.0,0.0,0.0,0.0,0.0,0.0,0.0,0.0,0.0,0.0,0.0,0.0,0.0,0.0,0.0,0.0,0.0,0.0,0.0,0.0,1.0296,1.0336,0.0,1.1465,1.1921,1.2142,1.3493,1.4194,1.3876,0.0,0.0,0.0,0.0,0.0,0.0,0.0,0.0,0.0,0.0,0.0,0.0,0.0,0.0,0.0,0.0,0.0,0.0,0.0,0.0,0.0,0.0,0.0,0.0,0.0,0.0,0.0,0.0,0.0,0.0,0.0,0.0,0.0,0.0,0.0,0.0,0.0,0.0,0.0,0.0,0.0,0.0,0.0,0.0,0.0,0.0,0.0,0.0,0.0,0.0,0.0,0.0,0.0,0.0,0.0,0.0,0.0,0.0,0.0,0.0,0.0,0.0,0.0,0.0,0.0,0.0,0.0,0.0,0.0,0.0,0.0,0.0,0.0,0.0,0.0,0.0,0.0,0.0,0.0,0.0,0.0,0.0,0.0,0.0,0.0,0.0,0.0,0.0,0.0,0.0,0.0,0.0,0.0,0.0,0.0,0.0,0.0,0.0,0.0,0.0,0.0,0.0,0.9986,0.9986,1.0293,0.0,1.154,1.2044,1.2309,1.3662,1.4335,1.3953,0.0,0.0,0.0,0.0,0.0,0.0,0.0,0.0,0.0,0.0,0.0,0.0,0.0,0.0,0.0,0.0,0.0,0.0,0.0,0.0,0.0,0.0,0.0,0.0,0.0,0.0,0.0,0.0,0.0,0.0,0.0,0.0,0.0,0.0,0.0,0.0,0.0,0.0,0.0,0.0,0.0,0.0,0.0,0.0,0.0,0.0,0.0,0.0,0.0,0.0,0.0,0.0,0.0,0.0,0.0,0.0,0.0,0.0,0.0,0.0,0.0,0.0,0.0,0.0,0.0,0.0,0.0,0.0,0.0,0.0,0.0,0.0,0.0,0.0,0.0,0.0,0.0,0.0,0.0,0.0,0.0,0.0,0.0,0.0,0.0,0.0,0.0,0.0,0.0,0.0,0.0,0.0,0.0,0.0,0.0,0.0,0.0,0.0,0.0,0.0,0.0,0.0,0.993,0.9911,1.0036,1.0082,1.0125,1.0503,1.1418,1.2319,1.3156,0.0,0.0,0.0,0.0,0.0,0.0,0.0,0.0,0.0,0.0,0.0,0.0,0.0,0.0,0.0,0.0,0.0,0.0,0.0,0.0,0.0,0.0,0.0,0.0,0.0,0.0,0.0,0.0,0.0,0.0,0.0,0.0,0.0,0.0,0.0,0.0,0.0,0.0,0.0,0.0,0.0,0.0,0.0,0.0,0.0,0.0,0.0,0.0,0.0,0.0,0.0,0.0,0.0,0.0,0.0,0.0,0.0,0.0,0.0,0.0,0.0,0.0,0.0,0.0,0.0,0.0,0.0,0.0,0.0,0.0,0.0,0.0,0.0,0.0,0.0,0.0,0.0,0.0,0.0,0.0,0.0,0.0,0.0,0.0,0.0,0.0,0.0,0.0,0.0,0.0,0.0,0.0,0.0,0.0,0.0,0.0,0.0,0.0,0.0,0.0,0.0,0.0,0.0,0.9832,0.9922,1.0011,1.0035,1.1175,1.1568,1.0664,1.3027,1.4149,1.3152,0.0,0.0,0.0,0.0,0.0,0.0,0.0,0.0,0.0,0.0,0.0,0.0,0.0,0.0,0.0,0.0,0.0,0.0,0.0,0.0,0.0,0.0,0.0,0.0,0.0,0.0,0.0,0.0,0.0,0.0,0.0,0.0,0.0,0.0,0.0,0.0,0.0,0.0,0.0,0.0,0.0,0.0,0.0,0.0,0.0,0.0,0.0,0.0,0.0,0.0,0.0,0.0,0.0,0.0,0.0,0.0,0.0,0.0,0.0,0.0,0.0,0.0,0.0,0.0,0.0,0.0,0.0,0.0,0.0,0.0,0.0,0.0,0.0,0.0,0.0,0.0,0.0,0.0,0.0,0.0,0.0,0.0,0.0,0.0,0.0,0.0,0.0,0.0,0.0,0.0,0.0,0.0,0.0,0.0,0.0,0.0,0.0,0.0,0.0,0.0,0.0,0.0,0.957,1.0113,1.0483,1.0515,1.1801,1.2258,1.1274,1.3395,1.4332,1.3279,0.0,0.0,0.0,0.0,0.0,0.0,0.0,0.0,0.0,0.0,0.0,0.0,0.0,0.0,0.0,0.0,0.0,0.0,0.0,0.0,0.0,0.0,0.0,0.0,0.0,0.0,0.0,0.0,0.0,0.0,0.0,0.0,0.0,0.0,0.0,0.0,0.0,0.0,0.0,0.0,0.0,0.0,0.0,0.0,0.0,0.0,0.0,0.0,0.0,0.0,0.0,0.0,0.0,0.0,0.0,0.0,0.0,0.0,0.0,0.0,0.0,0.0,0.0,0.0,0.0,0.0,0.0,0.0,0.0,0.0,0.0,0.0,0.0,0.0,0.0,0.0,0.0,0.0,0.0,0.0,0.0,0.0,0.0,0.0,0.0,0.0,0.0,0.0,0.0,0.0,0.0,0.0,0.0,0.0,0.0,0.0,0.0,0.0,0.0,0.0,0.0,0.0,0.9251,1.0417,1.1206,1.1274,1.2146,1.272,1.2703,1.357,1.4087,1.4012,0.0,0.0,0.0,0.0,0.0,0.0,0.0,0.0,0.0,0.0,0.0,0.0,0.0,0.0,0.0,0.0,0.0,0.0,0.0,0.0,0.0,0.0,0.0,0.0,0.0,0.0,0.0,0.0,0.0,0.0,0.0,0.0,0.0,0.0,0.0,0.0,0.0,0.0,0.0,0.0,0.0,0.0,0.0,0.0,0.0,0.0,0.0,0.0,0.0,0.0,0.0,0.0,0.0,0.0,0.0,0.0,0.0,0.0,0.0,0.0,-0.3002,-0.261,0.0,0.0,0.0,0.0,0.0,0.0,0.0,0.0,0.0,0.0,0.0,0.0,0.0,0.0,0.0,0.0,0.0,0.0,0.0,0.0,0.0,0.0,0.0,0.0,0.0,0.0,0.0,0.0,0.0,0.0,0.0,0.0,0.0,0.0,0.0,0.0,0.0,0.0,0.0,0.0,0.9366,1.041,1.1125,1.1144,1.2634,1.3368,1.2749,1.4123,1.4739,1.4033,1.482,0.0,0.0,0.0,0.0,0.0,0.0,0.0,0.0,0.0,0.0,0.0,0.0,0.0,0.0,0.0,0.0,0.0,0.0,0.0,0.0,0.0,0.0,0.0,0.0,0.0,0.0,0.0,0.0,0.0,0.0,0.0,0.0,0.0,0.0,0.0,0.0,0.0,0.0,0.0,0.0,0.0,0.0,0.0,0.0,0.0,0.0,0.0,0.0,0.0,0.0,0.0,0.0,0.0,0.0,0.0,0.0,0.0,0.0,0.0,-0.3155,-0.2644,0.0,0.0,0.0,0.0,0.0,0.0,0.0,0.0,0.0,0.0,0.0,0.0,0.0,0.0,0.0,0.0,0.0,0.0,0.0,0.0,0.0,0.0,0.0,0.0,0.0,0.0,0.0,0.0,0.0,0.0,0.0,0.0,0.0,0.0,0.0,0.0,0.0,0.0,0.0,0.0,1.028,1.1494,1.2296,1.231,1.3634,1.4365,1.3975,1.4751,1.5062,1.4647,1.5053,0.0,0.0,0.0,0.0,0.0,0.0,0.0,0.0,0.0,0.0,0.0,0.0,0.0,0.0,0.0,0.0,0.0,0.0,0.0,0.0,0.0,0.0,0.0,0.0,0.0,0.0,0.0,0.0,0.0,0.0,0.0,0.0,0.0,0.0,0.0,0.0,0.0,0.0,0.0,0.0,0.0,0.0,0.0,0.0,0.0,0.0,0.0,0.0,0.0,0.0,0.0,0.0,0.0,-0.3726,-0.3767,-0.3633,-0.3697,-0.3488,-0.3058,-0.3172,-0.2428,-0.1112,-0.0723,0.0,0.0,0.0,0.0,0.0,0.0,0.0,0.0,0.0,0.0,0.0,0.0,0.0,0.0,0.0,0.0,0.0,0.0,0.0,0.0,0.0,0.0,0.7675,0.7171,0.7533,0.8023,0.8187,0.0,0.0,0.0,0.0,0.0,0.0,0.0,0.0,0.0,0.0,0.0,1.1257,1.2676,1.3572,1.3572,1.4672,1.5376,1.528,1.5358,1.5442,1.5481,1.55,1.5525,0.0,0.0,0.0,0.0,0.0,0.0,0.0,0.0,0.0,0.0,0.0,0.0,0.0,0.0,0.0,0.0,0.0,0.0,0.0,0.0,0.0,0.0,0.0,0.0,0.0,0.0,0.0,0.0,0.0,0.0,0.0,0.0,-0.27,-0.3523,0.0,0.0,0.0,0.0,0.0,0.0,0.0,0.0,0.0,0.0,0.0,0.0,0.0,-0.3447,-0.3397,-0.343,-0.3421,-0.3421,-0.3339,-0.3334,-0.3443,-0.3239,-0.2985,-0.2735,-0.2541,0.0,-0.1342,-0.0934,0.0,0.0,0.0,0.0,0.0,0.0,0.0,0.0,0.0,0.0,0.0,0.0,0.0,0.0,0.0,0.0,0.0,0.0,0.0,0.0,0.0,0.0,0.7069,0.7226,0.7606,0.7925,0.7954,0.7998,0.8069,0.82,0.7714,0.0,0.0,0.0,0.0,0.0,0.0,0.0,1.1449,1.2662,1.3492,1.3429,1.5122,1.5951,1.5184,1.5869,1.6314,1.6261,1.6314,1.6347,1.6348,1.6358,0.0,0.0,0.0,0.0,0.0,0.0,0.0,0.0,0.0,0.0,0.0,0.0,0.0,0.0,0.0,0.0,0.0,0.0,0.0,0.0,0.0,0.0,0.0,0.0,0.0,0.0,0.0,0.0,0.0,-0.2191,-0.2815,-0.5688,-0.6244,-0.6438,0.0,0.0,0.0,0.0,0.0,0.0,0.0,0.0,0.0,-0.3297,-0.3186,-0.3123,-0.3075,-0.2958,-0.2924,-0.302,-0.3055,-0.3075,-0.2987,-0.3015,-0.2705,-0.2229,-0.2056,-0.1625,-0.1059,-0.09,-0.0369,0.04,0.0,0.0,0.0,0.0,0.2562,0.2686,0.3145,0.3362,0.3436,0.3458,0.0,0.0,0.0,0.0,0.0,0.0,0.0,0.6403,0.6912,0.692,0.6812,0.694,0.7366,0.796,0.883,0.9042,0.9065,0.0,0.8923,0.9064,0.9996,0.0,0.0,0.0,0.0,1.254,1.3911,1.4402,1.4844,1.5413,1.6338,1.681,1.6574,1.6903,1.7118,1.7131,1.7149,1.7181,1.724,1.6752,1.6375,0.0,0.0,0.0,0.0,0.0,0.0,0.0,0.0,0.0,0.0,0.0,0.0,0.0,0.0,0.0,0.0,0.0,0.0,0.0,0.0,0.0,0.0,0.0,0.0,0.0,0.0,0.0,0.0,-0.2272,-0.2845,-0.6283,-0.5758,-0.5436,0.0,0.0,0.0,0.0,0.0,0.0,-0.3458,-0.3589,-0.3516,-0.3221,-0.3011,-0.2905,-0.2856,-0.2725,-0.2682,-0.2776,-0.2993,-0.2904,-0.2551,-0.2724,-0.2358,-0.1596,-0.1487,-0.1159,-0.0667,-0.0735,-0.0401,0.0167,0.0472,0.0885,0.1414,0.207,0.2277,0.2388,0.3271,0.3427,0.3266,0.3395,0.3618,0.3887,0.4126,0.0,0.0,0.0,0.0,0.6045,0.6603,0.6796,0.6919,0.7199,0.7606,0.8314,0.9678,1.0025,1.0186,0.0,1.0653,1.0964,1.1813,0.0,0.0,0.0,0.0,1.4199,1.5922,1.5935,1.6112,1.6966,1.7363,1.7596,1.7641,1.7814,1.7925,1.7972,1.7776,1.7786,1.8065,1.7258,1.6825,1.688,0.0,0.0,0.0,0.0,0.0,0.0,0.0,0.0,0.0,0.0,0.0,0.0,0.0,0.0,0.0,0.0,0.0,0.0,0.0,0.0,0.0,0.0,0.0,0.0,0.0,0.0,0.0,0.0,0.0,-0.3307,-0.4138,0.0,0.0,0.0,0.0,-0.4687,-0.4565,-0.4218,-0.3636,-0.412,-0.4077,-0.3236,-0.3064,-0.2998,-0.2998,-0.2993,-0.2948,-0.2912,-0.322,-0.2948,-0.2144,-0.2279,-0.1747,-0.0756,-0.0745,-0.0596,-0.0313,-0.0411,0.0035,0.0764,0.0784,0.1149,0.1715,0.2142,0.2256,0.2363,0.3412,0.3605,0.3472,0.3903,0.3886,0.3658,0.3434,0.4061,0.0,0.0,0.533,0.6326,0.6557,0.6941,0.753,0.8555,0.8812,0.9089,0.999,1.0398,1.1027,0.0,1.2838,1.3025,1.3669,0.0,1.4739,1.5051,1.5586,1.6027,1.6266,1.6438,1.6642,1.6877,1.7764,1.8106,1.7566,1.826,1.8736,1.8745,1.7965,1.7915,1.8818,1.806,1.7641,1.7639,1.6847,0.0,0.0,0.0,0.0,0.0,0.0,0.0,0.0,0.0,0.0,0.0,0.0,0.0,0.0,0.0,0.0,0.0,0.0,0.0,0.0,0.0,0.0,0.0,0.0,0.0,0.0,0.0,0.0,-0.2661,-0.3248,0.0,-0.4868,-0.447,-0.4264,-0.4412,-0.3869,-0.3531,-0.3492,-0.3685,-0.351,-0.2897,-0.2925,-0.2751,-0.2413,-0.2358,-0.2375,-0.2467,-0.2699,-0.2604,-0.2185,-0.2373,-0.2031,-0.1186,-0.1065,-0.0813,-0.0426,-0.0408,-0.03,-0.0167,-0.0157,0.023,0.0857,0.1336,0.1762,0.2186,0.3042,0.3196,0.3163,0.4115,0.4768,0.5205,0.5362,0.5549,0.5856,0.6662,0.684,0.6984,0.7697,0.8464,0.9118,0.9525,1.0399,1.1489,1.2712,1.3052,1.3615,1.5321,1.4412,1.3734,1.4796,1.5384,1.5871,1.6342,1.6238,1.6484,1.7575,1.7365,1.741,1.817,1.8683,1.8957,1.893,1.9313,1.9563,1.9563,1.9277,1.9268,1.9583,1.8848,1.8436,1.8477,1.7634,1.6924,0.0,0.0,0.0,0.0,0.0,0.0,0.0,0.0,0.0,0.0,0.0,0.0,0.0,0.0,0.0,0.0,0.0,0.0,0.0,0.0,0.0,0.0,0.0,0.0,0.0,0.0,-0.3062,-0.2237,-0.2463,-0.3085,-0.4009,-0.3518,-0.3301,-0.3562,-0.2942,-0.2759,-0.3101,-0.3025,-0.2926,-0.2815,-0.2696,-0.2487,-0.2215,-0.2064,-0.1942,-0.1989,-0.2036,-0.1792,-0.1307,-0.1403,-0.1113,-0.0436,-0.0291,-0.0143,0.0046,-0.0088,-0.0283,-0.0541,-0.0593,-0.0323,0.013,0.0624,0.1162,0.1831,0.3045,0.4086,0.4976,0.5714,0.6709,0.7677,0.7944,0.8017,0.8193,0.9124,0.925,0.9244,0.9911,1.057,1.1103,1.1389,1.2281,1.3398,1.4609,1.4881,1.5283,1.6644,1.5824,1.5199,1.6203,1.6792,1.7223,1.7463,1.7275,1.7437,1.8358,1.8046,1.8038,1.8823,1.9125,1.9382,1.96,1.9832,1.9979,1.999,1.9713,1.9686,1.9991,1.924,1.8954,1.9267,1.8124,1.7112,1.6235,0.0,0.0,0.0,0.0,0.0,0.0,0.0,0.0,0.0,0.0,0.0,0.0,0.0,0.0,0.0,0.0,0.0,0.0,0.0,0.0,0.0,0.0,0.0,-0.1512,-0.1198,-0.1336,-0.1921,-0.1883,-0.1887,-0.2063,-0.1803,-0.1725,-0.2071,-0.1913,-0.2014,-0.2472,-0.2317,-0.2469,-0.2931,-0.2419,-0.2218,-0.2425,-0.2067,-0.1766,-0.1466,-0.131,-0.0604,0.0454,0.0604,0.1056,0.1712,0.1612,0.1461,0.1203,0.065,0.0219,-0.0166,-0.0359,-0.0408,-0.0364,0.0028,0.0588,0.1476,0.3661,0.6424,0.8978,0.8767,0.9687,1.088,1.088,1.119,1.1529,1.1545,1.2234,1.2981,1.2995,1.3092,1.3371,1.4139,1.4426,1.4728,1.5504,1.5667,1.5861,1.6517,1.7081,1.7545,1.7862,1.8529,1.8865,1.8402,1.8775,0.0,1.8484,1.8403,1.8487,1.8681,1.9013,1.9268,1.9485,1.9744,1.993,1.9982,1.9199,1.9124,1.996,1.924,1.9212,1.9979,1.8298,1.698,1.6139,0.0,0.0,0.0,0.0,0.0,0.0,0.0,0.0,0.0,0.0,0.0,0.0,0.0,0.0,0.0,0.0,0.0,0.0,0.0,0.0,0.0,-0.3205,-0.2546,-0.1552,-0.1054,-0.1086,-0.1751,-0.1605,-0.1569,-0.1997,-0.1947,-0.1959,-0.2092,-0.2044,-0.2188,-0.2611,-0.2605,-0.2499,-0.2303,-0.2246,-0.1912,-0.1198,-0.1222,-0.1206,-0.1154,-0.1049,-0.0681,-0.0105,-0.0157,0.0522,0.1722,0.1309,0.1495,0.2107,0.1378,0.1049,0.0904,-0.0307,-0.0632,-0.0447,-0.0239,0.1825,0.4994,0.8112,1.0263,1.154,1.1346,1.199,1.2785,1.2526,1.2255,1.2081,1.2411,1.2468,1.2528,1.2942,1.3926,1.4819,1.5038,1.5995,1.6922,1.7086,1.7116,1.7254,1.7684,1.7955,1.8187,1.8442,1.8691,1.8957,1.9268,1.9065,0.0,1.8853,1.8482,1.8365,1.8663,1.896,1.9234,1.9472,1.9751,1.9908,1.9938,1.9692,1.9684,1.993,1.9766,1.977,1.9991,1.8289,1.7254,0.0,0.0,0.0,0.0,0.0,0.0,0.0,0.0,0.0,0.0,0.0,0.0,0.0,0.0,0.0,0.0,0.0,0.0,0.0,0.0,0.0,0.0,-0.1929,-0.1539,-0.0987,-0.0788,-0.0834,-0.1278,-0.1178,-0.126,-0.1655,-0.1623,-0.1598,-0.1737,-0.1707,-0.1862,-0.2279,-0.2188,-0.213,-0.2064,-0.1972,-0.1452,-0.0616,-0.0549,-0.0326,0.0109,0.038,0.0705,0.1029,0.1244,0.1838,0.2707,0.2279,0.2519,0.3044,0.2227,0.1862,0.173,0.0,0.0,0.0,0.0,0.466,0.7393,0.9728,1.1665,1.3061,1.2673,1.3365,1.4432,1.4831,1.4612,1.4307,1.4852,1.4595,1.4287,1.4857,1.549,1.6,1.6132,1.6867,1.7569,1.7605,1.7677,1.7819,1.8165,1.8371,0.0,1.9201,1.936,1.9488,1.9677,1.9402,1.911,1.9015,1.8511,1.8222,1.8432,1.8717,1.901,1.9283,1.9559,0.0,0.0,0.0,1.9896,1.9908,1.9949,0.0,0.0,0.0,1.721,1.7089,1.4702,0.0,0.0,1.3834,1.3355,0.0,0.0,0.0,0.0,0.0,0.0,0.0,0.0,0.0,0.0,0.0,0.0,0.0,0.0,0.0,0.0,-0.0765,0.0056,0.0,-0.0378,-0.0645,-0.0723,-0.0707,-0.0837,-0.1197,-0.1055,-0.1018,-0.1248,-0.1131,-0.13,-0.1703,-0.1424,0.0,0.0,0.0,-0.0963,-0.0503,0.0112,0.0845,0.163,0.231,0.2822,0.3105,0.3596,0.3993,0.4287,0.3993,0.4042,0.4203,0.3379,0.2961,0.2704,0.1649,0.1715,0.2791,0.6304,0.8101,0.9005,1.0098,0.0,0.0,1.3598,1.4401,1.5846,1.7039,1.7183,1.7047,1.7604,1.7333,1.699,1.7415,1.7199,1.6918,1.7115,1.7144,1.7186,1.738,1.7585,1.7868,1.8266,1.8564,1.903,1.9993,2.0242,2.0188,1.992,1.9781,1.9543,1.9147,1.8495,1.8095,1.8138,0.0,0.0,1.9014,1.9313,1.9564,1.9782,1.9837,1.9884,1.9889,1.9873,1.9473,1.864,1.7671,1.7088,1.6913,1.5257,1.4773,1.5356,1.3172,1.2553,0.0,0.0,0.0,0.0,0.0,0.0,0.0,0.0,0.0,0.0,0.0,0.0,0.0,0.0,0.0,-0.3561,-0.165,0.0236,0.0918,0.0351,-0.0306,-0.075,-0.0521,-0.0412,-0.072,-0.1004,-0.1181,-0.0969,-0.1067,-0.1121,-0.1209,-0.0929,-0.092,-0.1282,-0.0489,-0.0303,-0.0673,0.1001,0.1845,0.1853,0.2966,0.0,0.4317,0.4152,0.4749,0.594,0.4865,0.493,0.5739,0.5424,0.549,0.5551,0.3142,0.2984,0.453,0.803,0.9469,1.0182,1.3969,1.5621,1.6133,1.6486,1.6809,1.7051,1.6978,1.6672,0.0,1.686,1.6938,1.6908,1.7017,1.7244,1.7344,1.6956,1.6883,1.6883,1.6925,1.7476,1.8054,1.8391,1.9001,1.9738,2.0444,2.0431,2.0429,2.0839,2.0176,1.9605,1.9577,1.8616,1.8061,1.8393,1.8473,1.8735,1.9193,1.9305,1.9456,1.9699,1.9795,1.9813,1.9811,1.9669,1.9529,1.9393,1.8254,1.766,1.7597,1.6443,1.596,1.6066,1.4486,1.3871,0.0,0.0,0.0,0.0,0.0,0.0,0.0,0.0,0.0,0.0,0.0,-0.3174,-0.2257,0.0,-0.1064,-0.1165,-0.0189,0.0858,0.1449,0.1238,0.0744,-0.0059,-0.0061,-0.0124,-0.0315,-0.056,-0.062,-0.063,-0.0684,-0.074,-0.074,-0.0444,-0.0252,-0.006,0.0564,0.1122,0.1579,0.2709,0.3457,0.3876,0.4543,0.5125,0.5611,0.5462,0.6113,0.7279,0.6504,0.6759,0.7775,0.7502,0.7848,0.8439,0.7083,0.6637,0.7147,1.034,1.1787,1.2466,1.47,1.5626,1.5753,1.5663,1.5667,1.5836,1.6308,1.6364,1.635,1.6855,1.6905,1.6856,1.7091,1.7123,1.706,1.6907,1.6786,1.6885,1.7486,1.7578,1.7828,1.8707,1.9161,1.9581,2.0115,2.0512,2.0844,2.1135,2.0492,1.9887,1.9694,1.8868,1.8268,1.8222,1.827,1.8471,1.8877,1.9095,1.932,1.9485,1.9628,1.9649,1.9545,1.9523,1.9234,1.8669,1.8066,1.7707,1.7609,1.6724,1.648,1.6817,1.5744,1.527,0.0,0.0,0.0,0.0,0.0,0.0,0.0,0.0,-0.2069,-0.1552,-0.1775,-0.1512,0.0,0.0416,0.0869,0.1789,0.167,0.1584,0.1961,0.2175,0.1923,0.0903,0.0563,0.0387,0.0325,0.026,0.013,0.0,-0.0065,-0.0065,0.0063,0.0455,0.0912,0.156,0.2137,0.297,0.4,0.4664,0.5348,0.609,0.6419,0.6687,0.7016,0.7172,0.7711,0.8515,0.8441,0.8966,0.9833,0.9475,0.9984,1.0966,1.0994,1.0562,1.0147,1.2389,1.3594,1.4087,1.4417,1.4649,1.4793,1.4372,1.4289,1.4592,1.5706,1.6124,1.6296,1.6797,1.6807,1.6698,1.7025,1.6865,1.6688,1.6796,1.6799,1.7036,1.8044,1.7913,1.794,1.9072,1.9364,1.9555,1.9953,2.0684,2.126,2.1243,2.0764,2.0267,1.9914,1.9147,1.8499,1.8104,1.8029,1.8142,1.8415,1.8894,1.9193,1.9243,1.9423,1.9467,1.9316,1.9335,1.8885,1.7909,1.7841,1.7755,1.7592,1.6976,1.7012,1.7574,1.6976,1.6552,-0.5246,-0.3063,-0.0268,0.1141,0.0142,-0.07,0.0,0.0,-0.0722,0.0351,-0.028,-0.0842,-0.0281,0.1439,0.2715,0.2262,0.2137,0.2343,0.2965,0.3194,0.2973,0.205,0.1733,0.1628,0.1671,0.1205,0.0936,0.1137,0.0822,0.1028,0.1797,0.2562,0.3212,0.3565,0.4897,0.5199,0.4355,0.6121,0.699,0.7064,0.8062,0.863,0.8745,0.9088,0.9466,0.9826,1.028,1.0903,1.1532,1.1305,1.1729,1.2569,1.2575,1.2901,1.3399,1.3254,1.3067,1.3083,1.4384,1.4801,1.4869,1.5591,1.5756,1.5728,1.5894,1.5846,1.5788,1.5972,1.6208,1.63,1.6048,1.6428,1.6748,1.6373,1.6875,1.7424,1.7581,1.8446,1.9243,1.9486,2.0147,2.0732,2.1133,2.1297,2.1407,2.1455,2.1012,2.0734,2.0926,1.9463,1.8476,1.8592,1.8091,1.7888,1.8208,1.8771,1.9081,1.9048,1.9209,1.932,1.9305,1.8982,1.8735,1.8591,1.8348,1.8248,1.8283,1.8158,1.8158,1.8266,1.8141,1.7431,-0.2875,-0.0935,0.144,0.0,0.1021,0.0136,0.0682,0.0695,0.084,0.1547,0.1599,0.1538,0.1562,0.2002,0.2499,0.0,0.3008,0.3155,0.3213,0.3625,0.3775,0.3246,0.3181,0.2991,0.2338,0.2064,0.2078,0.2253,0.185,0.2207,0.3301,0.3741,0.4408,0.5517,0.6367,0.6777,0.6911,0.7706,0.8268,0.8463,0.922,0.9682,0.9909,1.0428,1.1112,1.1833,1.2767,1.337,1.3643,1.3868,1.4241,1.4577,1.4836,1.4949,1.4781,1.3873,1.3795,1.4282,1.4932,1.5284,1.5468,1.5941,1.6124,1.6212,1.6212,1.6192,1.6239,1.6296,1.6513,1.6687,1.6541,1.6775,1.7048,1.6861,1.7006,1.7525,1.8559,1.8843,1.9269,2.0354,2.0655,2.0809,2.1111,2.1459,2.1828,2.2152,2.1538,2.1036,2.1119,2.0086,1.9328,1.9171,1.8602,1.8313,1.8523,1.8537,1.8513,1.8475,1.8699,1.8789,1.8662,1.855,1.8452,1.8423,1.8301,1.8263,1.8348,1.831,1.8287,1.8277,1.826,1.8101,-0.0455,0.0534,0.0,0.2374,0.1842,0.113,0.0803,0.1429,0.2184,0.2563,0.2931,0.3136,0.3039,0.2885,0.3017,0.3703,0.3904,0.3869,0.3572,0.3905,0.4126,0.3866,0.4178,0.4127,0.3217,0.3307,0.3407,0.3379,0.3421,0.3939,0.4988,0.5362,0.6134,0.7507,0.791,0.8446,0.9106,0.9172,0.9469,0.9835,1.0366,1.0704,1.0995,1.1676,1.2603,1.3565,1.4514,1.4977,1.5206,1.5657,1.593,1.6049,1.6367,1.6263,1.5842,1.4909,1.4902,1.5498,1.571,1.5894,1.6087,1.6181,1.6296,1.6363,1.6488,1.6477,1.6513,1.6684,1.6797,1.6965,1.6965,1.729,1.7611,1.7457,1.7817,1.847,1.966,1.9577,1.9767,2.1153,2.1159,2.1024,2.1355,2.1773,2.2265,2.2753,2.2094,2.151,2.139,2.0591,1.9876,1.9432,1.9052,1.8775,1.8693,1.8478,1.825,1.8048,1.8263,1.8321,1.817,1.8173,1.8149,1.8087,1.8087,1.8134,1.8187,1.8166,1.8159,1.8108,1.8288,1.8637,0.1453,0.0,0.1342,0.309,0.3357,0.3117,0.3072,0.3094,0.3295,0.3687,0.3482,0.3185,0.3166,0.4352,0.5294,0.5323,0.4739,0.4262,0.4282,0.403,0.3894,0.383,0.4404,0.4752,0.0,0.5068,0.5083,0.4613,0.5607,0.6507,0.6995,0.7995,0.8876,0.9472,1.0074,1.0307,1.0064,1.0419,1.0722,1.0873,1.1506,1.1914,1.2058,1.2979,1.38,1.4553,1.4784,1.5204,1.579,1.5907,1.6218,1.6495,1.65,1.6719,1.6951,1.6743,1.6447,1.6114,1.6581,1.6591,1.6431,1.6524,1.6343,1.6171,1.6637,1.6467,1.6228,1.6842,1.6909,1.6807,1.6807,1.7809,1.8703,1.819,1.9386,2.0633,2.0409,2.0746,2.1272,2.1718,2.167,2.1752,2.2267,2.2466,2.2709,2.3054,2.2628,2.223,2.2102,2.0814,1.9711,1.9179,1.9262,1.9104,1.8473,1.8757,1.866,1.7958,1.8031,1.8111,1.8111,1.791,1.7811,1.7811,1.7811,1.7856,1.7905,1.7856,1.7856,1.7922,1.8525,1.9068,0.2863,0.0,0.3903,0.4025,0.3881,0.3716,0.3618,0.3625,0.3761,0.4095,0.4016,0.3863,0.3613,0.5354,0.662,0.6169,0.6018,0.5818,0.5325,0.5359,0.5338,0.5033,0.5997,0.0,0.0,0.0,0.0,0.6143,0.6316,0.7186,0.8964,0.912,0.9854,1.1343,1.1354,1.1594,1.2209,1.2017,1.2077,1.2506,1.2968,1.3615,1.4361,1.4825,1.5221,1.5638,1.6193,1.6542,1.6802,1.729,1.7514,1.7494,1.7893,1.7785,1.759,1.791,1.7709,1.7303,1.7253,1.7007,1.6742,1.7171,1.7264,1.7203,1.7334,1.7203,1.7072,1.7434,1.7494,1.7371,1.7057,1.7704,1.8294,1.7667,1.834,1.9319,1.9901,2.0207,2.066,2.1506,2.1616,2.1746,2.2184,2.2231,2.2073,2.1686,2.1925,2.2007,2.1552,2.0867,2.0384,2.032,2.001,1.9699,1.956,1.8923,1.8419,1.8178,1.7856,1.7698,1.7698,1.7646,1.7622,1.7658,1.7658,1.7726,1.7816,1.7772,1.7933,1.83,1.8469,1.9038,0.4132,0.4861,0.5339,0.4692,0.4701,0.4767,0.4428,0.4495,0.4495,0.4359,0.4277,0.4548,0.5353,0.6807,0.762,0.6942,0.6861,0.673,0.6122,0.6347,0.6541,0.6487,0.7384,0.8119,0.0,0.0,0.0,0.783,0.824,0.911,1.0565,1.0835,1.1479,1.2698,1.2612,1.2771,1.3416,1.3194,1.3337,1.3897,1.4191,1.4771,1.5638,1.5842,1.6061,1.6202,1.6821,1.7176,1.7382,1.7852,1.8066,1.8144,1.8539,1.8502,1.8183,1.8565,1.8404,1.8051,1.7843,1.7522,1.7265,1.7626,1.7729,1.7729,1.7853,1.7729,1.7657,1.8251,1.8423,1.8348,1.839,1.8999,1.9477,1.8802,1.9185,1.9874,2.0562,2.0515,2.0638,2.1659,2.1621,2.1568,2.1996,2.2091,2.1925,2.1241,2.1532,2.1545,2.0859,2.0767,2.0758,2.0761,2.0431,2.0194,2.0077,1.9373,1.8838,1.8605,1.8254,1.7971,1.7774,1.7757,1.7674,1.7489,1.7489,1.7536,1.7606,1.7786,1.8054,1.8407,1.88,1.9382,0.5067,0.54,0.5614,0.5122,0.5701,0.6254,0.5564,0.5564,0.5432,0.4561,0.4407,0.5309,0.0,0.0,0.8353,0.7679,0.7354,0.7126,0.6919,0.7194,0.7575,0.0,0.0,0.0,0.0,0.0,0.0,0.9738,0.0,1.2061,1.1926,1.306,1.3694,1.3715,1.393,1.3916,1.3759,1.4004,1.4431,1.5031,1.5254,1.5539,1.5964,1.6254,1.6465,1.6447,1.6866,1.7204,1.7539,1.7716,1.7988,1.8337,1.8482,1.8607,1.8808,1.8808,1.8664,1.8425,1.8259,1.8091,1.7925,1.7946,1.7905,1.7802,1.8122,1.7926,1.7843,1.9213,1.9499,1.9606,2.0425,2.1425,2.2076,2.1455,2.1703,2.215,2.2243,2.159,2.1239,2.214,2.1749,2.1367,2.1753,2.2133,2.2246,2.1682,2.1468,2.1085,2.0161,2.05,2.0767,2.0522,2.061,2.0525,2.0066,2.0077,1.9817,1.9196,1.9115,1.882,1.828,1.8215,1.7941,1.7347,1.7338,1.7338,1.7347,1.7925,1.8205,1.8318,1.9509,2.0047,0.5238,0.5812,0.6085,0.5425,0.583,0.6242,0.5564,0.5564,0.5702,0.586,0.6075,0.6513,0.0,0.0,0.0,0.8899,0.8884,0.0,0.9253,0.9513,0.0,1.0082,0.0,1.1546,1.1967,1.2647,0.0,0.0,1.2705,1.2961,1.3908,1.4228,1.475,1.5413,1.5323,1.539,1.5716,1.6024,1.6368,1.6815,1.7054,1.7432,1.7725,1.8171,1.8209,1.8046,1.8257,1.836,1.8279,1.8472,1.8472,1.8472,1.8808,1.8808,1.8607,1.8942,1.887,1.868,1.883,1.8635,1.8321,1.8674,1.8788,1.8723,1.8668,1.8537,1.8592,1.9243,1.9362,1.9468,1.998,2.0771,2.1311,2.1092,2.1521,2.2083,2.2185,2.2044,2.1982,2.2419,2.215,2.1887,2.2038,2.2372,2.2303,2.1426,2.2252,2.2308,2.0593,2.0285,2.0208,2.02,2.0426,2.0499,2.0377,2.0178,1.9951,1.9775,1.9348,1.9018,1.8868,1.8448,1.8117,1.7964,1.7518,1.7518,1.7964,1.8065,1.8531,1.9305,1.9593,1.9924,0.5719,0.6098,0.6284,0.5939,0.6148,0.6386,0.6396,0.6331,0.6395,0.6805,0.7118,0.0,0.8078,0.8669,0.0,0.0,0.0,0.0,1.0674,1.1069,1.1502,0.0,1.2412,0.0,1.3938,1.4309,1.4721,0.0,1.4243,1.4076,1.4911,1.5294,1.5784,1.6484,1.6484,1.6651,1.6983,1.7183,1.7432,1.7635,1.7877,1.8109,1.8406,1.8858,1.9015,1.9059,1.9262,1.9344,1.939,1.9254,1.9172,1.9083,1.9091,1.8942,1.8808,1.9008,1.9008,1.8942,1.9075,1.8899,1.8723,1.8982,1.9142,1.9142,1.9075,1.9008,1.9142,1.9802,1.9922,2.0095,2.1067,2.1668,2.2016,2.2259,2.2419,2.2596,2.2968,2.263,2.2309,2.2273,2.219,2.2022,2.1816,2.2278,2.2339,2.1332,2.2193,2.2398,2.0808,2.0629,2.0602,2.0446,2.0354,2.0357,2.0407,2.0217,2.0177,2.0241,1.9909,1.9606,1.9317,1.8994,1.8642,1.8295,1.7967,1.7939,1.8295,1.8527,1.8947,1.9514,1.9825,2.0118,0.6254,0.6351,0.6535,0.64,0.6474,0.6672,0.7419,0.7329,0.7233,0.7616,0.0,0.8279,0.9275,0.9888,1.0287,1.0569,0.0,1.1762,1.1862,1.2374,1.2913,1.3376,1.3621,1.4343,1.5818,1.5702,1.5759,1.637,1.5716,1.5388,1.5556,1.6238,1.6804,1.7302,1.7392,1.7645,1.7961,1.7952,1.8009,1.8115,1.8322,1.848,1.8639,1.902,1.9434,1.973,1.9865,2.0196,2.0492,2.0017,1.9851,1.981,1.9406,1.9251,1.9251,1.9251,1.9251,1.9251,1.9251,1.9251,1.923,1.9106,1.9142,1.9218,1.9285,1.9285,1.9473,2.0571,2.0741,2.0962,2.2652,2.3027,2.322,2.3923,2.3663,2.3428,2.4008,2.3341,2.2533,2.226,2.219,2.2062,2.165,2.2169,2.2332,2.1365,2.1885,2.2027,2.1098,2.1184,2.1164,2.0775,2.0334,2.015,2.0235,2.0304,2.0373,2.046,2.046,2.0229,1.9702,1.9592,1.9217,1.8517,1.8454,1.8454,1.8501,1.912,1.9425,1.95,2.0208,2.0501,0.6197,0.6789,0.7157,0.6535,0.6675,0.7074,0.7478,0.7534,0.0,0.0,0.8412,0.8695,0.9275,1.0069,1.0813,1.141,1.223,1.314,1.4118,1.4169,1.4347,0.0,0.0,0.0,1.6079,1.6314,0.0,0.0,1.6846,1.6968,1.705,1.7342,1.77,1.8193,1.7951,1.8167,1.8824,1.8824,1.9016,1.9568,1.9801,1.9966,1.9966,2.0188,2.0308,2.0346,2.042,2.0419,2.042,2.0338,2.0307,2.0307,2.0224,2.0193,2.0193,2.0193,2.0193,2.0193,2.0193,2.0193,2.0069,1.9313,1.9008,1.8942,1.9075,1.9008,1.9131,2.0344,2.0655,2.0962,2.2543,2.2786,2.2907,2.376,2.3741,2.3631,2.4028,2.3955,2.3785,2.3738,2.3173,2.2631,2.2577,2.2423,2.2259,2.1908,2.2373,2.2656,2.2341,2.1206,2.0372,2.0294,2.0173,2.008,2.0061,2.025,2.0388,2.0339,2.0339,2.0292,2.0169,1.9663,1.9291,1.9151,1.8656,1.8656,1.9151,1.9697,2.0152,2.057,2.1106,2.106,0.6898,0.7209,0.7452,0.7407,0.7301,0.7478,0.8403,0.0,0.0,0.0,0.9011,0.9294,1.0168,1.0868,0.0,1.2824,1.3822,1.4554,1.5095,1.5225,0.0,0.0,0.0,0.0,0.0,1.6936,1.7221,1.7546,1.7789,1.7797,1.7392,1.7959,1.8282,1.8531,1.8594,1.8913,1.932,1.9531,1.9771,1.9942,2.0397,2.0476,2.0342,2.0489,2.069,2.0883,2.0883,2.1053,2.1272,2.0886,2.0855,2.0907,2.0514,2.042,2.042,2.042,2.042,2.042,2.042,2.042,2.0348,2.0052,2.0181,2.0522,2.0928,2.0941,2.0917,2.1426,2.1487,2.1604,2.2725,2.2847,2.298,2.3819,2.3982,2.4015,2.4144,2.4203,2.4032,2.3428,2.3041,2.2578,2.1954,2.2103,2.2201,2.1842,2.2332,2.2595,2.2315,2.144,2.0894,2.1019,2.0528,2.0198,2.0139,2.008,2.0061,2.0131,2.02,2.02,2.0146,1.9844,1.9626,1.9508,1.9272,1.9272,1.9558,2.0137,2.0346,2.0257,2.1162,2.1149,0.747,0.7531,0.7663,0.8446,0.8006,0.7808,0.92,0.8966,0.0,0.0,0.9637,1.0033,1.1068,0.0,1.2915,0.0,1.5152,1.573,1.5615,1.5891,1.6053,0.0,0.0,0.0,1.7237,1.7468,0.0,1.8362,1.8442,1.8201,1.7725,1.861,1.9066,1.9066,1.9441,1.9808,2.0066,2.0386,2.0467,2.0296,2.087,2.0883,2.0556,2.0703,2.0976,2.1282,2.1282,2.1578,2.2004,2.1489,2.1333,2.1439,2.0938,2.0721,2.0721,2.0721,2.0721,2.0721,2.0648,2.0648,2.0648,2.0999,2.1289,2.1688,2.232,2.2497,2.2622,2.2675,2.2552,2.2591,2.3263,2.3188,2.3088,2.3651,2.3903,2.405,2.405,2.405,2.3787,2.2878,2.263,2.2272,2.1292,2.1699,2.2002,2.1636,2.2013,2.2234,2.2005,2.1671,2.1603,2.1826,2.1032,2.0401,2.0308,2.0012,1.9839,1.9863,1.9904,1.994,1.9848,1.9848,1.9812,1.9654,1.969,1.969,1.9741,2.0303,2.0385,2.0042,2.1099,2.1325,0.7508,0.7521,0.7856,0.9378,0.8717,0.8091,0.9205,0.0,0.0,0.9475,1.0404,1.1149,1.1241,1.299,0.0,0.0,1.5553,1.6444,1.6412,1.6508,1.6619,1.6879,0.0,0.0,1.7865,1.8175,1.8353,1.8442,1.8612,1.862,1.8612,1.9749,2.0357,2.0123,2.0714,2.1151,2.1409,2.1428,2.152,2.1685,2.1807,2.1673,2.1402,2.1402,2.142,2.1512,2.1512,2.1578,2.1807,2.1756,2.1745,2.1735,2.1694,2.1683,2.1683,2.1683,2.1683,2.1683,2.1456,2.138,2.1532,2.2093,2.1533,2.0726,2.1301,2.1793,2.24,2.334,2.3555,2.3729,2.4359,2.3806,2.3,2.2731,2.2904,2.3132,2.3289,2.3189,2.3106,2.2989,2.235,2.1759,2.1653,2.1532,2.1526,2.1568,2.1657,2.1719,2.1807,2.1799,2.1819,2.196,2.1413,2.0805,2.0274,2.0235,2.0032,1.9494,1.945,1.945,1.9465,1.9465,1.945,1.9413,1.9413,1.945,1.9465,1.9985,2.0548,2.1064,2.1668,2.1916,0.7846,0.7824,0.7913,0.8769,0.8877,0.8985,0.9922,0.0,1.1105,1.1444,1.1844,1.2504,1.3594,1.4028,1.4671,1.5866,1.6597,1.7016,1.7016,1.7284,1.7454,1.7363,1.7598,0.0,0.0,0.0,1.9208,1.9861,2.0117,2.029,2.0454,2.0298,2.0363,2.0853,2.1097,2.1349,2.1763,2.2006,2.2026,2.1894,2.2139,2.2041,2.1703,2.1866,2.1929,2.192,2.209,2.2249,2.2457,2.2189,2.2144,2.219,2.1911,2.1731,2.1655,2.1655,2.1502,2.1436,2.1359,2.1359,2.1359,2.1721,2.1549,2.1407,2.3026,2.4068,2.4785,2.4996,2.4922,2.4823,2.5024,2.467,2.4178,2.391,2.4007,2.4151,2.4041,2.3975,2.3826,2.3258,2.2913,2.2576,2.206,2.1887,2.1803,2.1803,2.1605,2.152,2.1664,2.1664,2.1746,2.1841,2.1443,2.1141,2.1067,2.0884,2.0684,2.0435,2.0209,2.0041,2.0003,1.9619,1.9413,1.9413,1.9501,1.9694,2.0078,2.0597,2.1013,2.1266,2.2106,2.2293,0.8281,0.8322,0.847,0.8897,0.9463,1.0177,0.0,0.0,1.2769,1.2705,1.3093,1.3769,1.4775,1.5039,1.5462,1.6968,1.7392,1.7596,1.7622,1.7958,1.8143,0.0,0.0,1.8536,1.8698,1.9226,1.9779,2.0557,2.0895,2.1173,2.1515,2.0844,2.078,2.1594,2.1738,2.1974,2.2227,2.2519,2.2529,2.2266,2.2559,2.2565,2.232,2.2403,2.2489,2.2533,2.2706,2.2869,2.292,2.2603,2.2539,2.2587,2.2257,2.1978,2.1812,2.1669,2.1474,2.1376,2.1178,2.1138,2.1128,2.1492,2.1787,2.2414,2.4223,2.5294,2.5837,2.5635,2.558,2.5537,2.5014,2.4747,2.4593,2.4477,2.4614,2.4688,2.4585,2.4505,2.4218,2.3367,2.3149,2.2874,2.2237,2.2168,2.2165,2.2113,2.1773,2.1583,2.173,2.1629,2.1616,2.1746,2.1467,2.1377,2.1433,2.1226,2.1038,2.0893,2.0596,2.0429,2.0429,1.9953,1.972,1.9797,1.9797,2.0031,2.0508,2.084,2.1119,2.1364,2.2075,2.2273,0.8819,0.9034,0.9571,1.045,1.101,1.144,0.0,0.0,1.3484,1.2868,1.4099,1.5115,1.421,1.5884,1.7392,1.7392,1.7716,1.8087,1.8296,1.8505,1.8725,0.0,0.0,1.9498,1.9606,1.978,1.9872,1.9872,2.0342,2.0878,2.1495,2.146,2.18,2.2451,2.3159,2.3309,2.3125,2.3125,2.3125,2.3125,2.3125,2.3169,2.3187,2.3187,2.3195,2.3194,2.3184,2.3184,2.3184,2.3184,2.3012,2.2839,2.2829,2.2666,2.2452,2.193,2.1769,2.1709,2.1133,2.0906,2.0974,2.1624,2.2563,2.357,2.4038,2.4425,2.4732,2.4696,2.5249,2.5635,2.4356,2.3834,2.3641,2.3852,2.4157,2.4403,2.439,2.4287,2.4,2.3171,2.2711,2.2361,2.2117,2.2335,2.251,2.251,2.2167,2.195,2.2103,2.1691,2.1471,2.1616,2.1602,2.1464,2.1129,2.1119,2.0854,2.0343,2.0301,2.0344,2.0472,2.0373,2.0415,2.0684,2.0415,2.0373,2.0514,2.0387,2.071,2.1391,2.1405,2.1835,0.9967,1.0306,1.1046,1.2329,1.3033,1.3365,1.3098,0.0,1.4835,1.4608,1.4963,1.5628,1.6542,1.687,1.7204,1.8036,1.8508,1.882,0.0,0.0,0.0,1.9454,1.9607,1.9903,0.0,2.0709,2.113,2.1364,2.1728,2.1967,2.2195,2.2482,2.2839,2.3179,2.3424,2.359,2.3851,2.3667,2.358,2.358,2.3406,2.3424,2.3639,2.3821,2.391,2.3862,2.3862,2.3862,2.3842,2.3368,2.3152,2.3029,2.2726,2.2441,2.2227,2.1789,2.1849,2.2172,2.1712,2.1852,2.2317,2.2271,2.2444,2.2778,2.2798,2.4098,2.5425,2.5066,2.5053,2.5061,2.4657,2.4482,2.4381,2.4295,2.4434,2.451,2.4249,2.4203,2.415,2.3806,2.3623,2.3506,2.3391,2.3098,2.2949,2.2838,2.2452,2.2062,2.1707,2.1701,2.1622,2.122,2.1375,2.1486,2.1592,2.1671,2.1634,2.1471,2.1111,2.0932,2.0976,2.0525,2.0387,2.0571,2.0486,2.0684,2.1239,2.1196,2.1522,2.2087,2.2512,2.2762,1.1434,1.1658,1.2218,1.36,1.4324,1.456,0.0,0.0,1.5884,1.5884,1.6131,1.6632,1.7367,1.7448,1.7604,1.8422,1.8719,1.9032,0.0,0.0,0.0,1.998,0.0,0.0,2.07,2.1157,2.1458,2.178,2.2028,2.2301,2.2362,2.2615,2.2965,2.3408,2.3501,2.3667,2.3764,2.3754,2.3677,2.3677,2.359,2.3677,2.3927,2.4024,2.411,2.4206,2.411,2.4024,0.0,2.3463,2.3197,2.3072,2.2539,2.2441,2.2462,2.202,2.2302,2.2766,2.2368,2.2585,2.2977,2.3022,2.3092,2.3075,2.298,2.3929,2.5012,2.5089,2.4936,2.477,2.4569,2.457,2.4659,2.4612,2.4767,2.4844,2.4623,2.459,2.4511,2.4151,2.4112,2.4067,2.3891,2.3567,2.3321,2.3264,2.2773,2.238,2.2245,2.2234,2.2112,2.1854,2.1965,2.2056,2.1972,2.1835,2.1746,2.1746,2.1448,2.1287,2.1333,2.0927,2.0809,2.1002,2.0899,2.1094,2.1608,2.1608,2.1839,2.2359,2.2735,2.3041,0.0,1.3154,1.3397,1.4477,1.4944,1.5408,1.6134,0.0,0.0,1.6698,1.7367,1.77,1.6952,1.7691,1.8442,1.8477,1.8647,0.0,0.0,1.9268,0.0,0.0,2.0573,2.068,2.1102,2.1242,2.1245,2.1205,2.1609,2.1871,2.2015,2.2066,2.2392,2.3076,2.3519,2.3597,2.3135,2.3406,2.3503,2.359,2.3503,2.3764,2.4206,2.3927,2.3917,2.4069,2.379,2.3684,2.3624,2.3223,2.2978,2.278,2.228,2.2441,2.294,2.2477,2.2751,2.3427,2.3121,2.3032,2.3169,2.3929,2.4186,2.4186,2.4214,2.3891,2.3789,2.4669,2.481,2.4582,2.4067,2.4102,2.441,2.4788,2.497,2.5137,2.5256,2.5183,2.4919,2.4217,2.4112,2.4067,2.3949,2.376,2.3628,2.3628,2.3154,2.291,2.3323,2.3041,2.2924,2.3136,2.3189,2.2945,2.2427,2.183,2.1464,2.1423,2.1423,2.1471,2.1568,2.1471,2.152,2.1793,2.1568,2.1485,2.1671,2.1671,2.1901,2.2363,2.2468,2.2818,1.5088,0.0,1.5622,1.6124,1.6766,1.7154,0.0,0.0,0.0,0.0,0.0,1.7602,1.8112,1.8674,1.9172,0.0,0.0,1.9834,1.991,2.0099,0.0,1.9694,2.0457,2.0957,2.0723,2.14,2.1791,2.1675,2.1896,2.191,2.1675,2.1893,2.2098,2.2161,2.2839,2.3398,2.3657,2.358,2.3677,2.4034,2.3677,2.3764,2.4206,2.3927,2.3564,2.3158,2.2883,2.2536,2.2065,2.1791,2.1669,2.1575,2.148,2.1515,2.1622,2.1205,2.1501,2.2278,2.2574,2.3073,2.3761,2.4622,2.4682,2.4397,2.4115,2.3679,2.3269,2.3527,2.3527,2.3502,2.3315,2.3339,2.3447,2.3508,2.388,2.4144,2.4059,2.4282,2.4419,2.4138,2.4112,2.4112,2.4067,2.3949,2.3832,2.3832,2.3572,2.327,2.3005,2.305,2.2955,2.263,2.2764,2.2871,2.2829,2.2403,2.1898,2.145,2.1423,2.1423,2.1471,2.1423,2.1471,2.1664,2.1712,2.1932,2.2435,2.2435,2.2715,2.3296,2.3763,2.4104,1.5724,1.6221,1.6862,1.739,1.7691,1.7853,1.7691,0.0,0.0,0.0,0.0,1.8014,1.8612,1.8922,0.0,0.0,1.9641,0.0,0.0,0.0,2.0552,2.0493,2.1115,2.1426,2.1205,2.1639,2.1912,2.1828,2.1881,2.1835,2.1665,2.1958,2.2107,2.2076,2.2628,2.3022,2.3311,2.3153,2.3237,2.3574,2.2973,2.2983,2.3426,2.3068,2.275,2.2438,2.2094,2.1717,2.1422,2.1056,2.0907,2.0879,2.069,2.0928,2.1291,2.1066,2.1585,2.2461,2.3097,2.3963,2.4886,2.546,2.5423,2.5121,2.4962,2.4532,2.3976,2.3276,2.3078,2.3078,2.3078,2.3198,2.3271,2.3271,2.3628,2.3936,2.3747,2.4015,2.4247,2.4112,2.4112,2.4112,2.4112,2.4008,2.3891,2.3891,2.376,2.3572,2.3393,2.3514,2.3568,2.3408,2.3561,2.3565,2.3352,2.3071,2.2733,2.2241,2.2251,2.2251,2.2251,2.2251,2.2251,2.2351,2.2401,2.2615,2.293,2.293,2.3193,2.3755,2.4082,2.4368,1.5937,1.6612,1.7688,1.8175,1.8095,1.7997,1.8603,0.0,0.0,0.0,0.0,0.0,0.0,1.9002,0.0,0.0,0.0,0.0,2.0736,2.0713,2.0963,2.161,2.1768,2.1852,2.1696,2.1731,2.1807,2.1807,2.1807,2.1807,2.1807,2.2025,2.2203,2.2356,2.26,2.271,2.2705,2.2534,2.2523,2.2757,2.2093,2.202,2.2461,2.202,2.1807,2.1748,2.1336,2.1132,2.0964,2.0614,2.0472,2.0443,2.0084,2.0479,2.1231,2.1231,2.1832,2.2649,2.3526,2.4707,2.5898,2.622,2.6181,2.5937,2.5914,2.569,2.5154,2.3801,2.3326,2.3238,2.3163,2.321,2.3343,2.3343,2.3641,2.3936,2.3793,2.408,2.4294,2.4125,2.4178,2.4217,2.4138,2.4008,2.3949,2.3949,2.376,2.3747,2.4054,2.4112,2.4229,2.4505,2.4505,2.4306,2.3857,2.3761,2.3659,2.3433,2.323,2.3136,2.3136,2.3136,2.3136,2.3189,2.3189,2.3229,2.3324,2.3324,2.3568,2.4039,2.4039,2.4404,1.7322,1.807,1.8802,1.8017,1.8193,1.8612,0.0,0.0,0.0,0.0,0.0,0.0,0.0,1.9636,1.9784,0.0,0.0,2.0215,2.0351,2.083,2.1063,2.082,2.1373,2.166,2.1369,2.1578,2.1807,2.1807,2.1807,2.1883,2.2025,2.2101,2.2208,2.2357,2.2584,2.2616,2.2463,2.2301,2.2369,2.2523,2.168,2.1515,2.202,2.1671,2.1395,2.1057,2.0976,2.0614,2.0131,2.0065,2.0036,2.0036,1.997,2.002,2.0177,2.0177,2.0245,2.0615,2.2253,2.3963,2.5453,2.6025,2.6171,2.6158,2.6174,2.6114,2.5909,2.5167,2.4493,2.3961,2.3444,2.315,2.2969,2.2969,2.3138,2.3318,2.345,2.4047,2.4541,2.4145,2.4504,2.4687,2.4204,2.4054,2.4054,2.4054,2.4054,2.4054,2.4112,2.4112,2.4112,2.4171,2.4171,2.4189,2.4231,2.4218,2.4249,2.4353,2.3418,2.2871,2.2871,2.2871,2.2924,2.303,2.303,2.3326,2.3987,2.3987,2.4231,2.4813,2.4813,2.5138,1.7089,1.7924,1.885,1.7648,1.8113,0.0,0.0,0.0,0.0,0.0,0.0,0.0,0.0,0.0,1.9794,2.0108,0.0,2.0654,2.1213,2.1489,2.1567,2.1625,2.1947,2.201,2.1609,2.1655,2.1731,2.1655,2.1655,2.1655,2.1578,2.1959,2.2101,2.2111,2.2478,2.2628,2.2402,2.1988,2.1888,2.2114,2.1232,2.1082,2.1332,2.1002,2.0726,2.0553,2.0385,2.0201,1.9863,1.9863,1.9863,1.9942,2.0459,2.0692,2.0857,2.1375,2.1886,2.2467,2.3638,2.4815,2.6,2.6701,2.6918,2.6934,2.6891,2.688,2.6764,2.6246,2.5472,2.4721,2.4478,2.4278,2.4154,2.3967,2.4154,2.4327,2.4216,2.4606,2.4895,2.4664,2.4622,2.4567,2.4309,2.4144,2.4217,2.453,2.4583,2.4687,2.5001,2.504,2.504,2.504,2.504,2.4909,2.4702,2.4951,2.4992,2.4603,2.4169,2.3861,2.3861,2.3971,2.404,2.4081,2.4081,2.4272,2.4598,2.4924,2.5222,2.5493,2.5833,2.6131,1.6828,1.7779,1.8714,1.7293,0.0,1.8711,1.8267,0.0,0.0,0.0,0.0,0.0,0.0,1.9483,0.0,2.0186,2.0498,2.0995,2.1815,2.1797,2.1876,2.2179,2.2179,2.2045,2.1762,2.1655,2.1589,2.1436,2.1436,2.1359,2.1282,2.1731,2.1949,2.1883,2.2327,2.2478,2.2327,2.1883,2.1655,2.1731,2.0876,2.0654,2.0819,2.043,2.0342,2.0342,2.0177,2.0167,2.0391,2.0391,2.0537,2.0837,2.1583,2.1886,2.2048,2.2798,2.3683,2.4552,2.4957,2.5615,2.6496,2.7108,2.7323,2.739,2.7469,2.7523,2.7432,2.7,2.6362,2.5769,2.5435,2.5307,2.5167,2.4911,2.5103,2.5294,2.4963,2.5205,2.5397,2.5218,2.5063,2.4882,2.4741,2.4624,2.4661,2.5105,2.5171,2.5328,2.5772,2.5824,2.5824,2.5824,2.5824,2.5641,2.521,2.5563,2.5568,2.4911,2.4842,2.4878,2.4878,2.4936,2.5047,2.5253,2.5253,2.5253,2.531,2.5756,2.6045,2.6045,2.6532,2.683,1.7507,1.8328,1.8817,1.7058,0.0,0.0,1.8332,0.0,0.0,0.0,0.0,0.0,0.0,1.9676,2.0186,1.9942,2.0654,2.1128,2.0984,2.1168,2.1332,2.1553,2.1399,2.1312,2.1512,2.1359,2.1205,2.1205,2.1205,2.1282,2.1512,2.1512,2.1731,2.2101,2.2101,2.2111,2.2101,2.2101,2.1883,2.1502,2.0731,2.042,2.0644,2.042,2.042,2.0566,2.0566,2.1001,2.1886,2.1886,2.2403,2.322,2.3294,2.3368,2.3368,2.3452,2.3963,2.4707,2.4707,2.5358,2.6302,2.6645,2.6905,2.7108,2.739,2.7523,2.7523,2.7471,2.7365,2.7091,2.5921,2.532,2.5116,2.5052,2.5,2.5,2.5243,2.5704,2.6052,2.5803,2.6153,2.6386,2.5788,2.567,2.572,2.5759,2.5759,2.5785,2.5824,2.5824,2.5824,2.5824,2.5824,2.5798,2.5772,2.5798,2.5785,2.5707,2.5258,2.497,2.497,2.497,2.5266,2.5928,2.5942,2.599,2.6235,2.6276,2.6363,2.6472,2.6512,2.691,1.7464,1.7678,1.7802,1.6995,0.0,0.0,0.0,0.0,0.0,0.0,0.0,0.0,0.0,0.0,2.0411,2.0186,2.0731,2.1205,2.1118,2.1128,2.1205,2.1282,2.1282,2.1205,2.1282,2.1205,2.1128,2.0984,2.0984,2.1061,2.1128,2.1359,2.1578,2.1731,2.1959,2.2025,2.1873,2.1873,2.1807,2.1655,2.1272,2.1041,2.0964,2.0741,2.0944,2.1441,2.0857,2.1527,2.285,2.2253,2.2627,2.3526,2.4036,2.4696,2.5358,2.5075,2.5229,2.5676,2.5721,2.6,2.6427,2.6918,2.7134,2.7255,2.7469,2.7523,2.7523,2.7523,2.7523,2.7365,2.6935,2.6621,2.6424,2.6304,2.6171,2.6025,2.6025,2.6177,2.632,2.6184,2.6229,2.6271,2.6065,2.5869,2.5942,2.6295,2.6347,2.6478,2.6831,2.6883,2.6883,2.6883,2.6569,2.6491,2.6857,2.6556,2.6347,2.6347,2.5874,2.5621,2.5621,2.573,2.5959,2.6171,2.6184,2.6246,2.6294,2.6778,2.709,2.7242,2.7732,2.8157,1.7278,1.7329,1.7404,0.0,0.0,0.0,0.0,0.0,0.0,0.0,0.0,0.0,0.0,0.0,0.0,2.042,2.0819,2.1138,2.1138,2.1051,2.1051,2.1138,2.1051,2.1051,2.1138,2.1138,2.1061,2.0906,2.0984,2.0984,2.0984,2.1282,2.1425,2.1502,2.1807,2.1883,2.1807,2.1807,2.1807,2.1807,2.1655,2.1436,2.1205,2.1061,2.1262,2.1603,2.1021,2.1832,2.3514,2.285,2.3283,2.4469,2.5063,2.5804,2.6465,2.6188,2.6188,2.6396,2.644,2.6564,2.6769,2.7201,2.7335,2.7403,2.7469,2.7523,2.7523,2.7523,2.7523,2.7523,2.7523,2.7403,2.7268,2.7146,2.693,2.6794,2.6671,2.6645,2.6633,2.6701,2.6598,2.6475,2.6541,2.6427,2.6491,2.6883,2.6948,2.7092,2.7471,2.7523,2.7523,2.7523,2.7183,2.7105,2.7497,2.717,2.6948,2.6948,2.6633,2.6409,2.6225,2.6337,2.6542,2.6665,2.6665,2.6665,2.6665,2.7189,2.7581,2.7926,2.8397,2.883,1.713,1.7605,1.7892,0.0,0.0,0.0,0.0,0.0,0.0,0.0,0.0,1.8801,1.9259,1.9976,0.0,2.0566,2.0741,2.0906,2.0906,2.0731,2.0654,2.0906,2.0731,2.0654,2.0906,2.0906,2.0906,2.0906,2.1061,2.1205,2.1205,2.1205,2.1282,2.1502,2.1502,2.1578,2.1807,2.1807,2.1807,2.1807,2.1807,2.1578,2.1205,2.1205,2.1138,2.0906,2.1128,2.222,2.3818,2.3818,2.4909,2.6533,2.6533,2.6533,2.6533,2.6533,2.6589,2.6714,2.6714,2.6998,2.7268,2.7268,2.7403,2.7523,2.7523,2.7523,2.7523,2.7523,2.7523,2.7523,2.7523,2.7403,2.7268,2.7268,2.7146,2.7024,2.7024,2.7024,2.7079,2.7268,2.7268,2.7335,2.7469,2.7523,2.7536,2.7523,2.7523,2.7536,2.7536,2.7536,2.7536,2.7536,2.7523,2.7523,2.7523,2.7523,2.7523,2.7523,2.7523,2.7275,2.6713,2.6687,2.6948,2.7523,2.7523,2.7523,2.7523,2.7523,2.7776,2.8287,2.8287,2.856,1.7194,1.6831,1.6474,1.6789,0.0,0.0,0.0,0.0,0.0,0.0,1.8644,1.9381,1.9684,2.0168,0.0,2.042,2.0576,2.0654,2.0654,2.0498,2.042,2.0498,2.042,2.042,2.0498,2.0576,2.0741,2.0906,2.0984,2.1138,2.1436,2.1436,2.1502,2.1731,2.1731,2.1655,2.1578,2.1578,2.1578,2.1578,2.1578,2.1502,2.1425,2.2069,2.2285,2.222,2.2776,2.3734,2.4933,2.5441,2.6013,2.6533,2.6533,2.6533,2.6533,2.6533,2.6521,2.6589,2.6589,2.6782,2.7121,2.7268,2.7403,2.7523,2.7656,2.759,2.7523,2.7523,2.7523,2.7523,2.7523,2.7268,2.7079,2.7079,2.6943,2.6726,2.6671,2.6726,2.6794,2.6863,2.7201,2.7403,2.7403,2.7669,2.7868,2.7723,2.7802,2.7947,2.7947,2.7947,2.7947,2.7947,2.7802,2.7723,2.7723,2.759,2.759,2.7723,2.759,2.7458,2.7288,2.7275,2.7353,2.7523,2.7523,2.7523,2.7523,2.7656,2.7855,2.8131,2.8235,2.843,1.6912,1.649,1.6248,1.651,1.6392,1.6314,1.6549,0.0,0.0,0.0,1.8972,1.9794,2.0098,2.0333,2.042,2.0342,2.0333,2.0333,2.0333,2.0333,2.0264,2.0264,2.0264,2.0264,2.0264,2.042,2.0576,2.0886,2.0974,2.1205,2.1578,2.1655,2.1655,2.1807,2.1807,2.1731,2.1655,2.1655,2.1655,2.1655,2.1655,2.1655,2.1655,2.222,2.2371,2.2295,2.3441,2.4241,2.4933,2.6025,2.6533,2.6533,2.6533,2.6533,2.6533,2.6533,2.6521,2.6589,2.6671,2.6863,2.7121,2.7323,2.7403,2.7523,2.7656,2.759,2.7523,2.7523,2.7523,2.7456,2.7403,2.7214,2.7024,2.7024,2.6807,2.6589,2.6521,2.6589,2.6658,2.6714,2.6985,2.7188,2.7335,2.7669,2.7868,2.7934,2.7934,2.8,2.8,2.8,2.8,2.8079,2.7934,2.7855,2.7934,2.7723,2.7723,2.7934,2.7802,2.7736,2.7736,2.7603,2.7523,2.7523,2.7523,2.7523,2.7523,2.759,2.7802,2.8079,2.8197,2.8379,1.6526,1.6578,1.6656,1.622,1.6351,0.0,1.6648,1.7252,1.7877,1.8175,0.0,2.002,2.0489,2.042,2.0264,2.0264,2.002,1.9863,1.9863,2.0108,2.0264,2.0264,2.0264,2.0264,2.0264,2.0342,2.0498,2.0867,2.1118,2.1359,2.1807,2.1807,2.1807,2.1807,2.1807,2.1807,2.1807,2.1807,2.1807,2.1807,2.1807,2.1807,2.1883,2.1949,2.1939,2.1939,2.3463,2.4181,2.448,2.5873,2.6533,2.6533,2.6533,2.6533,2.6533,2.6533,2.6589,2.6726,2.6875,2.7079,2.7335,2.7469,2.7523,2.7523,2.7523,2.7523,2.7523,2.7523,2.7523,2.7469,2.7335,2.7146,2.6943,2.6943,2.6739,2.6533,2.6533,2.6533,2.6521,2.6658,2.6714,2.685,2.7323,2.7469,2.7603,2.8013,2.7934,2.7789,2.7842,2.7855,2.7934,2.8079,2.7934,2.7855,2.8079,2.7934,2.7855,2.8079,2.8079,2.8079,2.8145,2.7736,2.7523,2.7523,2.7523,2.7523,2.7523,2.7523,2.7736,2.8079,2.8145,2.8327,1.6716,1.6242,1.5894,1.676,1.6904,1.6842,1.7018,1.7597,1.8091,1.8323,1.9058,1.9715,2.002,2.002,2.0029,2.0029,1.9942,1.9863,1.9863,1.9794,1.9715,1.9715,1.9872,1.9951,1.9794,2.0352,2.0819,2.0867,2.1262,2.1502,2.1807,2.1807,2.1807,2.1807,2.1807,2.1731,2.1589,2.1578,2.1578,2.1578,2.1578,2.1959,2.2777,2.2883,2.3588,2.4815,2.4325,2.4909,2.6139,2.6383,2.6533,2.6533,2.6533,2.6533,2.6533,2.6533,2.6521,2.6521,2.6589,2.693,2.7268,2.7335,2.7523,2.7723,2.7723,2.7723,2.7723,2.7723,2.759,2.7456,2.7469,2.7134,2.6794,2.6794,2.6658,2.6533,2.6533,2.6533,2.6533,2.6521,2.6782,2.6905,2.685,2.7188,2.759,2.7855,2.7855,2.7855,2.8013,2.8013,2.8079,2.8079,2.7934,2.7855,2.7855,2.7842,2.7855,2.8079,2.8079,2.8131,2.8235,2.8066,2.7947,2.7947,2.7947,2.7947,2.7947,2.7947,2.8013,2.8079,2.861,2.8839,1.6615,1.6526,1.652,1.7064,1.7325,1.7459,1.7468,1.8183,1.8761,1.8714,1.9275,1.9794,2.0029,1.9951,1.9794,1.9794,1.9706,1.9618,1.9618,1.9636,1.9645,1.9715,1.9951,2.0029,1.9951,2.042,2.0809,2.0867,2.1185,2.1512,2.1807,2.1807,2.1807,2.1807,2.1807,2.1731,2.1655,2.1655,2.1655,2.1655,2.1655,2.1959,2.2478,2.339,2.4313,2.524,2.4969,2.5346,2.6208,2.6383,2.6533,2.6533,2.6533,2.6533,2.6533,2.6533,2.6533,2.6521,2.6671,2.6943,2.7214,2.7335,2.7523,2.7656,2.7656,2.7656,2.7656,2.7656,2.759,2.7469,2.7268,2.7066,2.6794,2.6658,2.6521,2.6533,2.6533,2.6533,2.6533,2.6533,2.6658,2.6782,2.685,2.739,2.7802,2.7789,2.7855,2.7987,2.8183,2.8131,2.8145,2.8197,2.8066,2.7921,2.7921,2.7921,2.8,2.8197,2.8276,2.8392,2.8444,2.8392,2.8276,2.8079,2.8079,2.8079,2.8079,2.8079,2.8079,2.8079,2.843,2.8546,1.6622,1.7002,1.7461,1.7314,1.7694,1.8105,1.7975,1.8703,1.9345,1.9133,1.9481,1.9942,2.0098,1.9794,1.9557,1.9557,1.939,1.9301,1.9301,1.9469,1.9636,1.9784,2.002,2.0264,2.0264,2.0489,2.0799,2.0944,2.1195,2.1425,2.1807,2.1807,2.1807,2.1807,2.1807,2.1807,2.1807,2.1807,2.1807,2.1807,2.2101,2.2241,2.2317,2.4047,2.4755,2.4672,2.5334,2.5697,2.5849,2.6302,2.6533,2.6533,2.6533,2.6533,2.6533,2.6533,2.6533,2.6533,2.6807,2.6943,2.7011,2.7335,2.7469,2.7469,2.7456,2.7523,2.7523,2.7523,2.7523,2.7403,2.7146,2.6943,2.6807,2.6602,2.6533,2.6533,2.6533,2.6533,2.6533,2.6533,2.6533,2.6589,2.6837,2.739,2.7802,2.7656,2.7736,2.7934,2.817,2.8066,2.8066,2.8235,2.8197,2.8079,2.8079,2.8145,2.8197,2.8287,2.8509,2.8587,2.8587,2.8587,2.8471,2.821,2.821,2.821,2.821,2.821,2.8276,2.8314,2.8444,2.8573,1.73,1.7482,1.7647,1.7529,1.7773,1.818,1.8486,1.8695,1.897,1.9409,1.9608,1.9636,1.9469,1.9381,1.9301,1.9301,1.9301,1.9301,1.9301,1.9301,1.9381,1.9381,1.9706,1.9942,1.9942,2.0654,2.1128,2.1128,2.1502,2.1731,2.1807,2.1807,2.1807,2.1807,2.1807,2.1807,2.1807,2.1807,2.1807,2.1807,2.318,2.3902,2.412,2.5709,2.5709,2.448,2.5264,2.5988,2.6577,2.6521,2.6533,2.6533,2.6533,2.6533,2.6533,2.6533,2.6533,2.6533,2.6533,2.6658,2.6794,2.7011,2.7214,2.7335,2.7469,2.759,2.7789,2.7789,2.7523,2.7335,2.7268,2.6943,2.6533,2.6533,2.6533,2.6533,2.6533,2.6533,2.6533,2.6533,2.6533,2.6533,2.6589,2.6658,2.6726,2.685,2.685,2.7053,2.7523,2.759,2.7736,2.8079,2.8079,2.8079,2.8079,2.8183,2.83,2.8287,2.8509,2.8587,2.8587,2.8587,2.8587,2.8522,2.8522,2.8522,2.8522,2.8522,2.8817,2.9331,2.9903,3.051,1.7755,1.7725,1.7764,1.7884,1.8266,1.8613,1.8807,1.9068,1.9256,1.9432,1.939,1.9469,1.9478,1.9381,1.9301,1.9301,1.9301,1.9301,1.9301,1.9301,1.946,1.9784,2.0098,2.0411,2.0576,2.1195,2.1512,2.1359,2.1655,2.1807,2.1807,2.1807,2.1807,2.1807,2.1807,2.1807,2.1807,2.1807,2.2035,2.2478,2.3128,2.3779,2.4264,2.5487,2.6,2.5861,2.6139,2.6427,2.6714,2.6589,2.6533,2.6533,2.6533,2.6533,2.6533,2.6533,2.6533,2.6521,2.6863,2.693,2.693,2.7335,2.7403,2.7403,2.7469,2.7523,2.7523,2.7523,2.7335,2.7079,2.6998,2.6794,2.6589,2.6521,2.6533,2.6533,2.6533,2.6533,2.6533,2.6533,2.6533,2.6533,2.6533,2.6658,2.685,2.7121,2.7459,2.7871,2.8344,2.8567,2.871,2.8983,2.9051,2.9051,2.9119,2.8946,2.8811,2.8811,2.8712,2.8587,2.8587,2.8587,2.875,2.9089,2.8763,2.8587,2.8587,2.8587,2.8944,2.9518,3.0211,3.0675,1.793,1.7871,1.7858,1.8088,1.8552,1.8993,1.8882,1.9177,1.9478,1.9301,1.9301,1.9381,1.9478,1.939,1.9301,1.9301,1.9301,1.9301,1.9301,1.9301,1.946,2.0029,2.0255,2.0489,2.0964,2.1349,2.1568,2.1578,2.1731,2.1807,2.1807,2.1807,2.1807,2.1807,2.1807,2.1807,2.1807,2.2025,2.2402,2.3001,2.3361,2.3852,2.4409,2.5417,2.622,2.6888,2.6726,2.6658,2.6658,2.6521,2.6533,2.6533,2.6533,2.6533,2.6533,2.6533,2.6533,2.6533,2.693,2.7066,2.7066,2.7523,2.7656,2.759,2.7669,2.7536,2.7335,2.7335,2.7134,2.6875,2.6794,2.6726,2.6658,2.6589,2.6521,2.6533,2.6533,2.6533,2.6533,2.6533,2.6533,2.6533,2.6533,2.6828,2.7191,2.7408,2.7954,2.8525,2.9021,2.9197,2.9403,2.9684,2.9754,2.9824,2.995,2.9617,2.9443,2.9511,2.9226,2.9048,2.9048,2.9048,2.9265,2.9713,2.9463,2.9361,2.9361,2.9361,2.9706,3.0544,3.1108,3.1391,1.7784,1.8014,1.8174,1.7662,1.8272,1.8909,1.8527,1.8896,1.9301,1.9301,1.9301,1.9301,1.9301,1.9301,1.9301,1.9301,1.9301,1.9301,1.9301,1.9301,1.9301,1.9381,1.9548,1.9951,2.0566,2.0789,2.1185,2.1731,2.1807,2.1807,2.1807,2.1807,2.1807,2.1807,2.1807,2.1807,2.1807,2.2553,2.2927,2.3001,2.4515,2.5229,2.5241,2.6094,2.6452,2.6521,2.6658,2.6658,2.6533,2.6533,2.6533,2.6533,2.6533,2.6533,2.6533,2.6533,2.6533,2.6533,2.6521,2.6714,2.704,2.7255,2.7523,2.7855,2.8,2.7802,2.7456,2.7456,2.7134,2.6794,2.6943,2.6739,2.6521,2.6658,2.6589,2.6533,2.6533,2.6533,2.6533,2.6533,2.6533,2.6533,2.6533,2.6961,2.7314,2.7314,2.778,2.8265,2.8613,2.8795,2.9119,2.9473,2.9684,2.9894,3.0089,3.0062,3.0117,3.0364,3.0337,3.031,3.031,3.031,3.0337,3.0364,3.104,3.1345,3.1345,3.1345,3.2033,3.3274,3.3304,3.3698,1.7665,1.8033,1.8455,1.8159,1.8508,1.8991,1.9007,1.9178,1.9301,1.9301,1.9301,1.9301,1.9301,1.9301,1.9301,1.9301,1.9301,1.9381,1.9627,1.9706,1.9863,2.0411,2.0489,2.0644,2.1118,2.1272,2.1349,2.1578,2.1731,2.1807,2.1807,2.1807,2.1807,2.1807,2.1807,2.2025,2.2553,2.3338,2.3998,2.4515,2.5028,2.5594,2.6094,2.6383,2.6533,2.6533,2.6521,2.6521,2.6533,2.6533,2.6533,2.6533,2.6533,2.6533,2.6533,2.6533,2.6533,2.6521,2.6782,2.6985,2.7255,2.7523,2.7802,2.7934,2.7802,2.759,2.7469,2.7214,2.7011,2.6943,2.6943,2.6875,2.6896,2.7196,2.741,2.7519,2.7519,2.7519,2.7519,2.7519,2.7519,2.7519,2.7519,2.7682,2.788,2.8071,2.8553,2.8908,2.9349,2.9683,2.999,3.0225,3.0299,3.0592,3.1002,3.0726,3.0596,3.0975,3.0622,3.0405,3.0405,3.0405,3.0581,3.0975,3.124,3.1445,3.1509,3.1925,3.2616,3.3516,3.3935,3.4304,1.7574,0.0,0.0,1.8369,1.8674,1.9145,1.9246,1.9301,1.9301,1.9301,1.9301,1.9301,1.946,1.946,1.946,1.946,1.9618,1.9854,2.0098,2.0098,2.0333,2.0819,2.0799,2.0954,2.1272,2.1349,2.1436,2.1578,2.1731,2.1807,2.1807,2.1807,2.1959,2.2176,2.2176,2.2542,2.335,2.4131,2.4779,2.5312,2.5594,2.5955,2.6533,2.6533,2.6533,2.6533,2.6533,2.6533,2.6533,2.6533,2.6533,2.6533,2.6533,2.6533,2.6546,2.6666,2.6615,2.6559,2.6929,2.7267,2.7514,2.7655,2.8,2.8332,2.7987,2.7723,2.7523,2.7335,2.7146,2.7024,2.7079,2.7152,2.7352,2.7786,2.8129,2.8386,2.8386,2.8235,2.8109,2.8109,2.8109,2.8109,2.8109,2.826,2.8447,2.8654,2.9062,2.9504,2.9742,3.0062,3.0381,3.047,3.0698,3.0986,3.1482,3.1282,3.1213,3.1585,3.1219,3.1002,3.1002,3.1002,3.1192,3.1585,3.1856,3.2111,3.2435,3.2869,3.3436,3.4175,3.4876,3.5186,0.0,0.0,0.0,0.0,1.8724,1.9301,1.9301,1.9301,1.9301,1.9301,1.9301,1.9381,1.9863,1.9942,1.9942,1.9942,2.0333,2.0566,2.0644,2.0644,2.0566,2.0342,2.0489,2.0722,2.0867,2.1118,2.1359,2.1731,2.1807,2.1807,2.1807,2.1807,2.2176,2.3001,2.3075,2.3423,2.412,2.4933,2.5312,2.5312,2.6107,2.6533,2.6533,2.6533,2.6533,2.6533,2.6533,2.6533,2.6533,2.6533,2.6533,2.6533,2.6533,2.6533,2.6596,2.708,2.6942,2.6634,2.7118,2.7576,2.7811,2.7598,2.8144,2.8838,2.8646,2.8197,2.7789,2.7776,2.7403,2.7079,2.7294,2.7584,2.7927,2.8346,2.8684,2.895,2.895,2.8536,2.816,2.816,2.816,2.816,2.816,2.8599,2.895,2.895,2.9428,2.9792,2.9792,2.9934,3.0075,3.0075,3.0609,3.1061,3.1272,3.1656,3.1963,3.2182,3.2169,3.2182,3.2182,3.2182,3.2182,3.2255,3.2903,3.3561,3.4312,3.4312,3.4714,3.5464,3.6148,3.6492,1.7509,0.0,0.0,0.0,0.0,0.0,1.9301,1.9301,1.9301,1.9301,1.9301,1.9381,1.9863,2.0177,2.0489,2.0809,2.0722,2.0644,2.0789,2.0789,2.0876,2.1118,2.1128,2.1118,2.1349,2.1349,2.1425,2.1578,2.1731,2.1807,2.1807,2.2327,2.2979,2.3768,2.436,2.4731,2.4933,2.5734,2.6176,2.6176,2.6383,2.6533,2.6533,2.6533,2.6533,2.6533,2.6533,2.6533,2.6533,2.6533,2.6533,2.6533,2.6533,2.6533,2.6596,2.708,2.718,2.713,2.7682,2.8075,2.8331,2.8127,2.8473,2.8771,2.8173,2.8,2.7947,2.7536,2.7403,2.7507,2.7978,2.8531,2.91,2.918,2.9365,2.9553,2.9553,2.9428,2.9327,2.9327,2.9327,2.9327,2.9327,2.9453,2.9553,2.9553,2.9691,2.9792,2.9792,2.9869,2.9869,2.9869,3.0011,3.0241,3.0596,3.0748,3.1123,3.1716,3.179,3.1863,3.2182,3.2182,3.2444,3.2889,3.3087,3.3561,3.4312,3.4861,3.5464,3.6211,3.6414,3.6492,0.0,0.0,0.0,0.0,0.0,0.0,1.9522,1.943,1.9301,1.9301,1.946,1.9696,2.0098,2.0566,2.0964,2.1349,2.1272,2.1108,2.1252,2.1262,2.1339,2.1502,2.1512,2.1425,2.1502,2.1578,2.1655,2.1655,2.1731,2.1959,2.2252,2.3054,2.3779,2.4564,2.5087,2.5453,2.5816,2.6245,2.6533,2.6533,2.6533,2.6533,2.6533,2.6533,2.6533,2.6533,2.6533,2.6533,2.6533,2.6533,2.6533,2.6533,2.6533,2.6533,2.6553,2.7344,2.7482,2.7394,2.8185,2.8583,2.8664,2.8298,2.8556,2.8815,2.8119,2.8107,2.8319,2.797,2.8072,2.8386,2.8961,2.9398,2.9661,2.9905,2.9923,2.9934,2.9934,2.9869,2.9792,2.9792,2.9792,2.9792,2.9792,2.9792,2.9792,2.9792,2.9792,2.9792,2.9792,2.9792,2.9792,2.9792,2.9934,3.0228,3.0596,3.081,3.1185,3.179,3.1863,3.195,3.2182,3.2182,3.2372,3.2761,3.2761,3.3297,3.4312,3.5059,3.58,3.6492,3.6492,3.6492,0.0,0.0,0.0,0.0,0.0,0.0,1.9869,1.9765,1.9524,1.9524,1.9771,2.0253,2.085,2.1258,2.1655,2.2029,2.2064,2.1935,2.1807,2.1807,2.1731,2.1512,2.1655,2.1731,2.1578,2.1731,2.1807,2.1959,2.2025,2.2392,2.3213,2.3768,2.448,2.5382,2.5382,2.5664,2.6465,2.6533,2.6533,2.6533,2.6533,2.6533,2.6533,2.6533,2.6533,2.6533,2.6533,2.6533,2.6533,2.6533,2.6533,2.6533,2.6533,2.6533,2.6659,2.7695,2.7795,2.7532,2.8649,2.895,2.8912,2.844,2.8582,2.886,2.841,2.8504,2.8792,2.8792,2.9075,2.9497,3.0006,3.0017,3.0038,3.0568,3.0394,3.0075,3.0075,2.9934,2.9792,2.9792,2.9792,2.9792,2.9792,2.9792,2.9792,2.9792,2.9792,2.9792,2.9792,2.9792,2.9792,2.9792,3.0152,3.0444,3.0836,3.1185,3.1569,3.195,3.2023,3.2096,3.2096,3.2182,3.2255,3.2314,3.2372,3.3044,3.4312,3.5124,3.5879,3.6492,3.6492,3.6492,0.0,0.0,0.0,0.0,0.0,0.0,2.0437,2.0651,2.0825,2.0825,2.0905,2.1402,2.295,2.334,2.3498,2.3891,2.3644,2.296,2.1696,2.1578,2.1502,2.1502,2.1502,2.1578,2.1731,2.1807,2.2101,2.2703,2.3338,2.3986,2.4802,2.4348,2.4779,2.6245,2.5664,2.5664,2.6465,2.6533,2.6533,2.6533,2.6533,2.6533,2.6533,2.6533,2.6533,2.6533,2.6533,2.6533,2.6533,2.6533,2.6533,2.6533,2.6533,2.6533,2.6659,2.7695,2.8034,2.8109,2.9227,2.9449,2.9312,2.9394,2.9413,2.9387,2.9285,2.9293,2.9315,2.9175,2.9523,2.9993,3.0038,3.0329,3.048,3.0495,3.0292,3.0088,2.9869,2.9869,2.9792,2.9792,2.9792,2.9792,2.9792,2.9792,2.9792,2.9792,2.9792,2.9792,2.9792,2.9792,2.9792,2.9792,2.9869,2.9946,3.0011,3.0088,3.0305,3.0748,3.1048,3.1347,3.1716,3.2023,3.2444,3.296,3.3575,3.4041,3.4312,3.5672,3.6352,3.6492,3.6492,3.6492,0.0,0.0,0.0,2.0378,0.0,0.0,0.0,2.0879,2.1095,2.1768,2.1784,2.2221,2.3852,2.426,2.4503,2.4734,2.4215,2.3755,2.3689,2.2461,2.1655,2.1655,2.186,2.1989,2.1828,2.2376,2.3005,2.3508,2.4276,2.4862,2.53,2.53,2.5652,2.6452,2.6094,2.6094,2.6533,2.6533,2.6533,2.6533,2.6533,2.6533,2.6533,2.6533,2.6533,2.6533,2.6533,2.6533,2.6533,2.6533,2.6533,2.6533,2.6533,2.6533,2.6634,2.7394,2.7811,2.8088,2.8912,2.9207,2.9254,2.9177,2.93,2.9333,2.9132,2.9386,2.9843,3.0045,3.0333,3.0555,3.0555,3.0703,3.0836,3.0748,3.0533,3.0394,3.0241,3.0164,3.0075,3.0075,3.0303,3.034,2.9919,2.9792,2.9792,2.9792,2.9792,2.9792,2.9792,2.9792,2.9792,2.9792,2.9792,2.9869,3.0075,3.0075,3.0305,3.0672,3.0973,3.1272,3.1408,3.173,3.2158,3.2608,3.3592,3.4368,3.4963,3.6224,3.658,3.6054,3.6399,3.6677,0.0,0.0,0.0,0.0,0.0,2.1095,0.0,0.0,0.0,2.2939,2.3024,2.3351,2.4672,2.524,2.5454,2.535,2.4789,2.4709,2.5666,2.3886,2.2516,2.2363,2.2464,2.2475,2.2182,2.3384,2.4224,2.4299,2.5171,2.5632,2.5523,2.6025,2.6314,2.6533,2.6383,2.6314,2.6533,2.6533,2.6533,2.6533,2.6533,2.6533,2.6533,2.6533,2.6533,2.6533,2.6533,2.6533,2.6533,2.6533,2.6533,2.6533,2.6533,2.6533,2.6609,2.7205,2.7661,2.7915,2.8549,2.8904,2.9057,2.887,2.9089,2.9351,2.9125,2.9611,3.0385,3.0856,3.0986,3.0986,3.0986,3.0986,3.0986,3.0911,3.0849,3.0724,3.0764,3.0688,3.056,3.0663,3.1047,3.1123,3.0186,3.0108,3.0184,3.0184,3.0105,3.0105,3.0105,3.0018,2.9993,3.0093,2.9917,2.9984,3.0445,3.0458,3.056,3.0836,3.1258,3.1474,3.1444,3.1862,3.2142,3.2302,3.3309,3.4269,3.5187,3.6482,3.6791,3.6148,3.6783,3.7126,0.0,0.0,0.0,0.0,2.212,0.0,0.0,0.0,2.3733,2.498,0.0,2.5601,2.6972,0.0,0.0,2.6677,2.6605,2.6316,2.5701,2.5467,2.509,2.4314,2.3482,2.3069,2.3416,2.4929,2.5648,2.5206,2.6328,2.6897,2.6408,2.5734,2.5734,2.6465,2.5816,2.5816,2.6465,2.6533,2.6533,2.6533,2.6533,2.6533,2.6533,2.6533,2.6533,2.6533,2.6533,2.6533,2.6533,2.6533,2.6533,2.6533,2.6533,2.6533,2.6647,2.7632,2.8047,2.8186,2.9048,2.9225,2.9118,2.9279,2.9718,3.0329,3.0654,3.083,3.0895,3.096,3.0986,3.0986,3.0986,3.0986,3.0986,3.0773,3.0698,3.0764,3.1087,3.1111,3.1252,3.1832,3.1986,3.1765,3.1123,3.1376,3.1546,3.1546,3.1372,3.121,3.121,3.0809,3.0696,3.116,3.0357,3.0058,3.0773,3.0666,3.0542,3.047,3.1382,3.194,3.2127,3.3078,3.3477,3.3156,3.3607,3.3788,3.356,3.5421,3.6981,3.8196,3.8277,3.8277,0.0,0.0,0.0,0.0,0.0,0.0,2.3264,0.0,2.4283,0.0,0.0,0.0,0.0,0.0,0.0,0.0,2.7505,2.7472,2.7484,2.6523,2.5647,2.5338,2.5158,2.5122,2.5477,2.5882,2.6093,2.5992,2.6826,2.7042,2.6559,2.6176,2.6164,2.6465,2.6176,2.6176,2.6533,2.6533,2.6533,2.6533,2.6533,2.6533,2.6533,2.6533,2.6533,2.6533,2.6533,2.6533,2.6533,2.6533,2.6653,2.6929,2.6929,2.6929,2.6992,2.7326,2.7754,2.8275,2.8491,2.8626,2.8816,2.9118,2.9574,3.0114,3.052,3.0823,3.0986,3.0986,3.0986,3.1065,3.1392,3.1483,3.1561,3.1824,3.1824,3.1889,3.2045,3.2084,3.2162,3.2395,3.272,3.2888,3.2655,3.2124,3.1818,3.1818,3.1562,3.1386,3.1386,3.1198,3.1148,3.1361,3.0984,3.0889,3.1196,3.114,3.104,3.096,3.1551,3.2024,3.2489,3.296,3.333,3.3608,3.407,3.4546,3.5015,3.6059,3.717,3.824,3.8513,3.8719,2.1753,0.0,0.0,0.0,0.0,0.0,0.0,0.0,0.0,0.0,0.0,0.0,0.0,0.0,0.0,0.0,0.0,2.8295,2.885,2.7572,2.6547,2.6317,2.6566,2.6901,2.7136,2.6955,2.6844,2.6741,2.7205,2.7205,2.6571,2.6533,2.6533,2.6533,2.6533,2.6533,2.6533,2.6533,2.6533,2.6533,2.6533,2.6533,2.6533,2.6533,2.6533,2.6533,2.6533,2.6609,2.6747,2.6747,2.7017,2.7448,2.7448,2.7463,2.7588,2.7456,2.7804,2.8268,2.8248,2.8331,2.859,2.8973,2.9341,2.9793,3.0279,3.0672,3.0986,3.0986,3.1104,3.1313,3.1731,3.1954,3.2176,3.2594,3.2685,3.2738,3.2894,3.2934,3.2986,3.313,3.3509,3.3809,3.3809,3.3049,3.2439,3.2439,3.2181,3.2003,3.2003,3.1864,3.1839,3.1991,3.1726,3.1693,3.1858,3.1789,3.177,3.1838,3.2054,3.2354,3.2982,3.3075,3.3446,3.396,3.4365,3.5036,3.583,3.6531,3.7141,3.7785,3.8572,3.898,0.0,0.0,0.0,2.3206,0.0,0.0,0.0,0.0,2.5315,0.0,0.0,0.0,0.0,0.0,0.0,0.0,0.0,0.0,0.0,2.8838,2.8498,2.7609,2.7543,2.7669,2.8,2.8499,2.8349,2.7344,2.777,2.7607,2.6584,2.6533,2.6533,2.6533,2.6533,2.6533,2.6533,2.6533,2.6533,2.6533,2.6533,2.6533,2.6533,2.6533,2.6533,2.6533,2.6533,2.6766,2.7256,2.7256,2.7451,2.7804,2.7804,2.7977,2.827,2.8486,2.8435,2.8317,2.8675,2.8633,2.859,2.8973,2.9341,2.9793,3.0279,3.0672,3.0986,3.0986,3.1378,3.1823,3.1836,3.2241,3.2672,3.2685,3.2685,3.2855,3.3443,3.3561,3.3718,3.4241,3.4358,3.4371,3.4371,3.4191,3.4024,3.4024,3.3759,3.3661,3.3661,3.3187,3.3059,3.361,3.2688,3.2346,3.3075,3.2797,3.2693,3.298,3.3104,3.3289,3.3636,3.4082,3.4275,3.4134,3.4454,3.469,3.4716,3.5976,3.6688,3.7014,3.8532,3.9316,0.0,0.0,2.1833,2.3262,0.0,0.0,0.0,0.0,0.0,0.0,0.0,0.0,0.0,0.0,0.0,0.0,0.0,0.0,0.0,2.8612,2.85,2.9006,2.836,2.8139,2.855,2.8825,2.8473,2.7369,2.7795,2.762,2.6584,2.6533,2.6533,2.6533,2.6533,2.6533,2.6533,2.6533,2.6533,2.6533,2.6533,2.6533,2.6533,2.6533,2.6533,2.6546,2.6854,2.7105,2.7306,2.767,2.8086,2.85,2.835,2.8521,2.8811,2.8366,2.8374,2.8638,2.8597,2.8578,2.851,2.8669,2.8973,2.9353,2.9509,3.0161,3.0932,3.0932,3.1577,3.2265,3.2642,3.2969,3.3378,3.3731,3.3822,3.3875,3.4084,3.4123,3.4175,3.4358,3.4397,3.4397,3.4397,3.4314,3.4243,3.416,3.3894,3.3713,3.3713,3.3546,3.3508,3.37,3.3296,3.3071,3.3275,3.3132,3.2965,3.3068,3.3148,3.328,3.3713,3.3979,3.4314,3.4481,3.4812,3.4977,3.499,3.5386,3.5615,3.5696,3.6986,3.789,2.0926,2.0775,2.0947,2.2572,2.273,0.0,2.4648,0.0,0.0,0.0,0.0,0.0,0.0,0.0,0.0,0.0,0.0,0.0,0.0,2.8499,2.8599,2.9126,2.8725,2.8612,2.9189,2.9239,2.885,2.7934,2.8009,2.7708,2.6804,2.6634,2.6533,2.6533,2.6533,2.6533,2.6533,2.6533,2.6533,2.6533,2.6653,2.6753,2.6753,2.6954,2.7042,2.7067,2.7419,2.7682,2.7896,2.8174,2.8562,2.8922,2.8744,2.8733,2.8858,2.8414,2.8421,2.8657,2.851,2.851,2.851,2.851,2.9029,2.965,2.9584,3.0432,3.1522,3.1442,3.2092,3.2943,3.3226,3.3649,3.3966,3.4319,3.4397,3.4397,3.4397,3.4397,3.4397,3.4397,3.4397,3.4397,3.4397,3.4397,3.4397,3.4243,3.4063,3.3979,3.3979,3.3979,3.3979,3.3979,3.381,3.3738,3.3654,3.3496,3.3411,3.3313,3.3313,3.3398,3.3713,3.3894,3.4147,3.4481,3.466,3.4825,3.5086,3.5086,3.5154,3.5318,3.6017,3.661]},{"header":{"parameterUnit":"m.s-1","parameterCategory":1,"la1":30.6,"la2":29.2853,"lo1":-89.7004,"lo2":-87.6739,"dy":0.0162,"dx":0.0183,"nx":112,"ny":82,"refTime":"2024-03-14T18:00:00:Z","depth":0,"parameterNumber":3,"parameterNumberName":"V-component_of_WINDS"},"data":[0.0,0.0,0.0,0.0,0.0,0.0,0.0,0.0,0.0,0.0,0.0,0.0,0.0,0.0,0.0,0.0,0.0,0.0,0.0,0.0,0.0,0.0,0.0,0.0,0.0,0.0,0.0,0.0,0.0,0.0,0.0,0.0,0.0,0.0,0.0,0.0,0.0,0.0,0.0,0.0,0.0,0.0,0.0,0.0,0.0,0.0,0.0,0.0,0.0,0.0,0.0,0.0,0.0,0.0,0.0,0.0,0.0,0.0,0.0,0.0,0.0,0.0,0.0,0.0,0.0,0.0,0.0,0.0,0.0,0.0,0.0,0.0,0.0,0.0,0.0,0.0,0.0,0.0,0.0,0.0,0.0,0.0,0.0,0.0,0.0,0.0,0.0,0.0,0.0,0.0,-0.1251,-0.1106,-0.2189,-0.3203,-0.3979,-0.4279,-0.4892,-0.5994,0.0,0.0,0.0,0.0,0.0,0.0,0.0,0.0,0.0,0.0,0.0,0.0,0.0,0.0,0.0,0.0,0.0,0.0,0.0,0.0,0.0,0.0,0.0,0.0,0.0,0.0,0.0,0.0,0.0,0.0,0.0,0.0,0.0,0.0,0.0,0.0,0.0,0.0,0.0,0.0,0.0,0.0,0.0,0.0,0.0,0.0,0.0,0.0,0.0,0.0,0.0,0.0,0.0,0.0,0.0,0.0,0.0,0.0,0.0,0.0,0.0,0.0,0.0,0.0,0.0,0.0,0.0,0.0,0.0,0.0,0.0,0.0,0.0,0.0,0.0,0.0,0.0,0.0,0.0,0.0,0.0,0.0,0.0,0.0,0.0,0.0,0.0,0.0,0.0,0.0,0.0,0.0,0.0,0.0,0.0,0.0,0.0,0.0,0.0,0.0,0.0,0.0,0.0,0.0,-0.1546,-0.1131,-0.1926,-0.2702,-0.3233,-0.321,-0.3706,-0.4964,0.0,0.0,0.0,0.0,0.0,0.0,0.0,0.0,0.0,0.0,0.0,0.0,0.0,0.0,0.0,0.0,0.0,0.0,0.0,0.0,0.0,0.0,0.0,0.0,0.0,0.0,0.0,0.0,0.0,0.0,0.0,0.0,0.0,0.0,0.0,0.0,0.0,0.0,0.0,0.0,0.0,0.0,0.0,0.0,0.0,0.0,0.0,0.0,0.0,0.0,0.0,0.0,0.0,0.0,0.0,0.0,0.0,0.0,0.0,0.0,0.0,0.0,0.0,0.0,0.0,0.0,0.0,0.0,0.0,0.0,0.0,0.0,0.0,0.0,0.0,0.0,0.0,0.0,0.0,0.0,0.0,0.0,0.0,0.0,0.0,0.0,0.0,0.0,0.0,0.0,0.0,0.0,0.0,0.0,0.0,0.0,0.0,0.0,0.0,0.0,0.0,0.0,0.0,0.0107,-0.0419,-0.0581,-0.14,-0.2142,-0.2729,-0.3137,-0.377,-0.4699,-0.5127,0.0,0.0,0.0,0.0,0.0,0.0,0.0,0.0,0.0,0.0,0.0,0.0,0.0,0.0,0.0,0.0,0.0,0.0,0.0,0.0,0.0,0.0,0.0,0.0,0.0,0.0,0.0,0.0,0.0,0.0,0.0,0.0,0.0,0.0,0.0,0.0,0.0,0.0,0.0,0.0,0.0,0.0,0.0,0.0,0.0,0.0,0.0,0.0,0.0,0.0,0.0,0.0,0.0,0.0,0.0,0.0,0.0,0.0,0.0,0.0,0.0,0.0,0.0,0.0,0.0,0.0,0.0,0.0,0.0,0.0,0.0,0.0,0.0,0.0,0.0,0.0,0.0,0.0,0.0,0.0,0.0,0.0,0.0,0.0,0.0,0.0,0.0,0.0,0.0,0.0,0.0,0.0,0.0,0.0,0.0,0.0,0.0,0.0,0.0,0.0,0.0,0.0,0.0753,0.0656,0.0053,-0.0703,-0.1407,-0.2084,-0.2866,-0.3634,-0.4303,-0.4395,0.0,0.0,0.0,0.0,0.0,0.0,0.0,0.0,0.0,0.0,0.0,0.0,0.0,0.0,0.0,0.0,0.0,0.0,0.0,0.0,0.0,0.0,0.0,0.0,0.0,0.0,0.0,0.0,0.0,0.0,0.0,0.0,0.0,0.0,0.0,0.0,0.0,0.0,0.0,0.0,0.0,0.0,0.0,0.0,0.0,0.0,0.0,0.0,0.0,0.0,0.0,0.0,0.0,0.0,0.0,0.0,0.0,0.0,0.0,0.0,0.0,0.0,0.0,0.0,0.0,0.0,0.0,0.0,0.0,0.0,0.0,0.0,0.0,0.0,0.0,0.0,0.0,0.0,0.0,0.0,0.0,0.0,0.0,0.0,0.0,0.0,0.0,0.0,0.0,0.0,0.0,0.0,0.0,0.0,0.0,0.0,0.0,0.0,0.0,0.0,0.0,0.0,0.054,0.0808,0.0571,0.0158,-0.0371,-0.1056,-0.1619,-0.2338,-0.3242,-0.3722,0.0,0.0,0.0,0.0,0.0,0.0,0.0,0.0,0.0,0.0,0.0,0.0,0.0,0.0,0.0,0.0,0.0,0.0,0.0,0.0,0.0,0.0,0.0,0.0,0.0,0.0,0.0,0.0,0.0,0.0,0.0,0.0,0.0,0.0,0.0,0.0,0.0,0.0,0.0,0.0,0.0,0.0,0.0,0.0,0.0,0.0,0.0,0.0,0.0,0.0,0.0,0.0,0.0,0.0,0.0,0.0,0.0,0.0,0.0,0.0,0.0,0.0,0.0,0.0,0.0,0.0,0.0,0.0,0.0,0.0,0.0,0.0,0.0,0.0,0.0,0.0,0.0,0.0,0.0,0.0,0.0,0.0,0.0,0.0,0.0,0.0,0.0,0.0,0.0,0.0,0.0,0.0,0.0,0.0,0.0,0.0,0.0,0.0,0.0,0.0,0.0,0.0,0.1241,0.1064,0.0,0.005,-0.0547,-0.0796,-0.1062,-0.1711,-0.2823,0.0,0.0,0.0,0.0,0.0,0.0,0.0,0.0,0.0,0.0,0.0,0.0,0.0,0.0,0.0,0.0,0.0,0.0,0.0,0.0,0.0,0.0,0.0,0.0,0.0,0.0,0.0,0.0,0.0,0.0,0.0,0.0,0.0,0.0,0.0,0.0,0.0,0.0,0.0,0.0,0.0,0.0,0.0,0.0,0.0,0.0,0.0,0.0,0.0,0.0,0.0,0.0,0.0,0.0,0.0,0.0,0.0,0.0,0.0,0.0,0.0,0.0,0.0,0.0,0.0,0.0,0.0,0.0,0.0,0.0,0.0,0.0,0.0,0.0,0.0,0.0,0.0,0.0,0.0,0.0,0.0,0.0,0.0,0.0,0.0,0.0,0.0,0.0,0.0,0.0,0.0,0.0,0.0,0.0,0.0,0.0,0.0,0.0,0.0,0.0,0.0,0.0,0.2328,0.1851,0.1424,0.0,0.0277,-0.0394,-0.0618,-0.0895,-0.1507,-0.2523,0.0,0.0,0.0,0.0,0.0,0.0,0.0,0.0,0.0,0.0,0.0,0.0,0.0,0.0,0.0,0.0,0.0,0.0,0.0,0.0,0.0,0.0,0.0,0.0,0.0,0.0,0.0,0.0,0.0,0.0,0.0,0.0,0.0,0.0,0.0,0.0,0.0,0.0,0.0,0.0,0.0,0.0,0.0,0.0,0.0,0.0,0.0,0.0,0.0,0.0,0.0,0.0,0.0,0.0,0.0,0.0,0.0,0.0,0.0,0.0,0.0,0.0,0.0,0.0,0.0,0.0,0.0,0.0,0.0,0.0,0.0,0.0,0.0,0.0,0.0,0.0,0.0,0.0,0.0,0.0,0.0,0.0,0.0,0.0,0.0,0.0,0.0,0.0,0.0,0.0,0.0,0.0,0.0,0.0,0.0,0.0,0.0,0.0,0.0,0.0,0.0,0.0,0.2476,0.222,0.1905,0.1642,0.1019,0.0321,-0.0424,-0.1051,-0.1674,0.0,0.0,0.0,0.0,0.0,0.0,0.0,0.0,0.0,0.0,0.0,0.0,0.0,0.0,0.0,0.0,0.0,0.0,0.0,0.0,0.0,0.0,0.0,0.0,0.0,0.0,0.0,0.0,0.0,0.0,0.0,0.0,0.0,0.0,0.0,0.0,0.0,0.0,0.0,0.0,0.0,0.0,0.0,0.0,0.0,0.0,0.0,0.0,0.0,0.0,0.0,0.0,0.0,0.0,0.0,0.0,0.0,0.0,0.0,0.0,0.0,0.0,0.0,0.0,0.0,0.0,0.0,0.0,0.0,0.0,0.0,0.0,0.0,0.0,0.0,0.0,0.0,0.0,0.0,0.0,0.0,0.0,0.0,0.0,0.0,0.0,0.0,0.0,0.0,0.0,0.0,0.0,0.0,0.0,0.0,0.0,0.0,0.0,0.0,0.0,0.0,0.0,0.0,0.2912,0.2428,0.2219,0.2619,0.197,0.1114,0.007,-0.0028,-0.0556,-0.1702,0.0,0.0,0.0,0.0,0.0,0.0,0.0,0.0,0.0,0.0,0.0,0.0,0.0,0.0,0.0,0.0,0.0,0.0,0.0,0.0,0.0,0.0,0.0,0.0,0.0,0.0,0.0,0.0,0.0,0.0,0.0,0.0,0.0,0.0,0.0,0.0,0.0,0.0,0.0,0.0,0.0,0.0,0.0,0.0,0.0,0.0,0.0,0.0,0.0,0.0,0.0,0.0,0.0,0.0,0.0,0.0,0.0,0.0,0.0,0.0,0.0,0.0,0.0,0.0,0.0,0.0,0.0,0.0,0.0,0.0,0.0,0.0,0.0,0.0,0.0,0.0,0.0,0.0,0.0,0.0,0.0,0.0,0.0,0.0,0.0,0.0,0.0,0.0,0.0,0.0,0.0,0.0,0.0,0.0,0.0,0.0,0.0,0.0,0.0,0.0,0.0,0.0,0.3459,0.2852,0.2517,0.2867,0.224,0.1451,0.0591,0.0322,-0.0344,-0.163,0.0,0.0,0.0,0.0,0.0,0.0,0.0,0.0,0.0,0.0,0.0,0.0,0.0,0.0,0.0,0.0,0.0,0.0,0.0,0.0,0.0,0.0,0.0,0.0,0.0,0.0,0.0,0.0,0.0,0.0,0.0,0.0,0.0,0.0,0.0,0.0,0.0,0.0,0.0,0.0,0.0,0.0,0.0,0.0,0.0,0.0,0.0,0.0,0.0,0.0,0.0,0.0,0.0,0.0,0.0,0.0,0.0,0.0,0.0,0.0,0.0,0.0,0.0,0.0,0.0,0.0,0.0,0.0,0.0,0.0,0.0,0.0,0.0,0.0,0.0,0.0,0.0,0.0,0.0,0.0,0.0,0.0,0.0,0.0,0.0,0.0,0.0,0.0,0.0,0.0,0.0,0.0,0.0,0.0,0.0,0.0,0.0,0.0,0.0,0.0,0.0,0.0,0.3998,0.3334,0.2768,0.2655,0.2087,0.1534,0.1139,0.0326,-0.0646,-0.1751,0.0,0.0,0.0,0.0,0.0,0.0,0.0,0.0,0.0,0.0,0.0,0.0,0.0,0.0,0.0,0.0,0.0,0.0,0.0,0.0,0.0,0.0,0.0,0.0,0.0,0.0,0.0,0.0,0.0,0.0,0.0,0.0,0.0,0.0,0.0,0.0,0.0,0.0,0.0,0.0,0.0,0.0,0.0,0.0,0.0,0.0,0.0,0.0,0.0,0.0,0.0,0.0,0.0,0.0,0.0,0.0,0.0,0.0,0.0,0.0,2.0089,1.9179,0.0,0.0,0.0,0.0,0.0,0.0,0.0,0.0,0.0,0.0,0.0,0.0,0.0,0.0,0.0,0.0,0.0,0.0,0.0,0.0,0.0,0.0,0.0,0.0,0.0,0.0,0.0,0.0,0.0,0.0,0.0,0.0,0.0,0.0,0.0,0.0,0.0,0.0,0.0,0.0,0.3928,0.3357,0.2929,0.2856,0.2657,0.2357,0.1905,0.1267,0.045,-0.0521,-0.1362,0.0,0.0,0.0,0.0,0.0,0.0,0.0,0.0,0.0,0.0,0.0,0.0,0.0,0.0,0.0,0.0,0.0,0.0,0.0,0.0,0.0,0.0,0.0,0.0,0.0,0.0,0.0,0.0,0.0,0.0,0.0,0.0,0.0,0.0,0.0,0.0,0.0,0.0,0.0,0.0,0.0,0.0,0.0,0.0,0.0,0.0,0.0,0.0,0.0,0.0,0.0,0.0,0.0,0.0,0.0,0.0,0.0,0.0,0.0,2.0204,1.943,0.0,0.0,0.0,0.0,0.0,0.0,0.0,0.0,0.0,0.0,0.0,0.0,0.0,0.0,0.0,0.0,0.0,0.0,0.0,0.0,0.0,0.0,0.0,0.0,0.0,0.0,0.0,0.0,0.0,0.0,0.0,0.0,0.0,0.0,0.0,0.0,0.0,0.0,0.0,0.0,0.4712,0.3874,0.3237,0.3184,0.2929,0.2662,0.2401,0.1975,0.1285,0.0192,-0.0394,0.0,0.0,0.0,0.0,0.0,0.0,0.0,0.0,0.0,0.0,0.0,0.0,0.0,0.0,0.0,0.0,0.0,0.0,0.0,0.0,0.0,0.0,0.0,0.0,0.0,0.0,0.0,0.0,0.0,0.0,0.0,0.0,0.0,0.0,0.0,0.0,0.0,0.0,0.0,0.0,0.0,0.0,0.0,0.0,0.0,0.0,0.0,0.0,0.0,0.0,0.0,0.0,0.0,2.1971,2.1925,2.262,2.0966,2.0566,2.1088,1.9747,1.9084,1.8854,1.7426,0.0,0.0,0.0,0.0,0.0,0.0,0.0,0.0,0.0,0.0,0.0,0.0,0.0,0.0,0.0,0.0,0.0,0.0,0.0,0.0,0.0,0.0,0.7983,0.7329,0.6783,0.6354,0.6141,0.0,0.0,0.0,0.0,0.0,0.0,0.0,0.0,0.0,0.0,0.0,0.5612,0.4458,0.3605,0.3605,0.3119,0.278,0.2763,0.2536,0.1964,0.0913,0.0914,0.0237,0.0,0.0,0.0,0.0,0.0,0.0,0.0,0.0,0.0,0.0,0.0,0.0,0.0,0.0,0.0,0.0,0.0,0.0,0.0,0.0,0.0,0.0,0.0,0.0,0.0,0.0,0.0,0.0,0.0,0.0,0.0,0.0,2.3694,2.4297,0.0,0.0,0.0,0.0,0.0,0.0,0.0,0.0,0.0,0.0,0.0,0.0,0.0,2.3064,2.3072,2.2948,2.289,2.289,2.2014,2.1659,2.1741,2.0745,1.9973,1.9457,1.9976,0.0,1.8056,1.7827,0.0,0.0,0.0,0.0,0.0,0.0,0.0,0.0,0.0,0.0,0.0,0.0,0.0,0.0,0.0,0.0,0.0,0.0,0.0,0.0,0.0,0.0,0.8499,0.7385,0.6789,0.6475,0.6441,0.6448,0.639,0.6123,0.5631,0.0,0.0,0.0,0.0,0.0,0.0,0.0,0.5708,0.4671,0.3965,0.4106,0.3526,0.3101,0.3055,0.2905,0.262,0.2177,0.2075,0.1394,-0.0,-0.0536,0.0,0.0,0.0,0.0,0.0,0.0,0.0,0.0,0.0,0.0,0.0,0.0,0.0,0.0,0.0,0.0,0.0,0.0,0.0,0.0,0.0,0.0,0.0,0.0,0.0,0.0,0.0,0.0,0.0,2.5688,2.5195,2.5926,2.4812,2.4238,0.0,0.0,0.0,0.0,0.0,0.0,0.0,0.0,0.0,2.3461,2.2668,2.2223,2.223,2.1733,2.1482,2.1488,2.1069,2.0888,2.0921,2.0482,1.9875,1.9187,1.956,1.9052,1.7957,1.7927,1.689,1.5268,0.0,0.0,0.0,0.0,1.1675,1.1186,1.0618,1.012,0.9703,0.9632,0.0,0.0,0.0,0.0,0.0,0.0,0.0,0.9908,0.9049,0.847,0.7975,0.7442,0.7021,0.6859,0.7344,0.7454,0.7178,0.0,0.5767,0.5582,0.5771,0.0,0.0,0.0,0.0,0.6321,0.6898,0.5855,0.5003,0.4897,0.4301,0.3765,0.3372,0.3324,0.3134,0.2828,0.2716,0.2224,0.1243,0.0915,0.0608,0.0,0.0,0.0,0.0,0.0,0.0,0.0,0.0,0.0,0.0,0.0,0.0,0.0,0.0,0.0,0.0,0.0,0.0,0.0,0.0,0.0,0.0,0.0,0.0,0.0,0.0,0.0,0.0,2.6641,2.5977,2.7214,2.519,2.4022,0.0,0.0,0.0,0.0,0.0,0.0,2.3852,2.2983,2.252,2.2564,2.1765,2.1346,2.1333,2.07,2.0371,2.0398,2.0328,2.0341,2.0408,2.0346,1.992,1.9211,1.9435,1.8949,1.7976,1.7719,1.6714,1.5292,1.4406,1.3506,1.2656,1.2367,1.1854,1.1233,1.0784,1.0243,0.9761,0.9655,0.9741,0.9931,1.0277,0.0,0.0,0.0,0.0,0.9534,0.8842,0.8244,0.7752,0.752,0.725,0.7227,0.7942,0.801,0.7675,0.0,0.6464,0.6362,0.6281,0.0,0.0,0.0,0.0,0.6887,0.7766,0.6846,0.5984,0.5553,0.5061,0.4428,0.371,0.3746,0.3688,0.3453,0.3335,0.3056,0.2539,0.2387,0.1917,0.1069,0.0,0.0,0.0,0.0,0.0,0.0,0.0,0.0,0.0,0.0,0.0,0.0,0.0,0.0,0.0,0.0,0.0,0.0,0.0,0.0,0.0,0.0,0.0,0.0,0.0,0.0,0.0,0.0,0.0,2.6454,2.4398,0.0,0.0,0.0,0.0,2.2785,2.269,2.2757,2.2956,2.1961,2.1472,2.1654,2.0811,2.0366,2.0366,2.0328,2.0334,2.0399,2.0332,2.0334,2.0395,2.04,1.9963,1.9243,2.0084,1.9503,1.7946,1.7104,1.6191,1.5215,1.4354,1.3467,1.2599,1.17,1.134,1.1119,0.998,0.9641,0.9669,0.9482,1.0057,1.07,0.9972,0.9987,0.0,0.0,0.9326,0.9161,0.8061,0.8199,0.8437,0.7603,0.7395,0.7459,0.777,0.752,0.7403,0.0,0.7983,0.7711,0.6815,0.0,0.7469,0.7098,0.7518,0.7817,0.7542,0.7062,0.6513,0.5935,0.5558,0.5021,0.4136,0.4258,0.4369,0.4328,0.4148,0.4013,0.4,0.3511,0.3309,0.3429,0.2631,0.0,0.0,0.0,0.0,0.0,0.0,0.0,0.0,0.0,0.0,0.0,0.0,0.0,0.0,0.0,0.0,0.0,0.0,0.0,0.0,0.0,0.0,0.0,0.0,0.0,0.0,0.0,0.0,2.4799,2.3113,0.0,2.3405,2.3266,2.3007,2.27,2.2224,2.1984,2.2049,2.1166,2.0978,2.1643,2.0811,2.0894,2.2036,2.1531,2.1254,2.1244,2.1216,2.1208,2.1235,2.1235,2.1094,2.0884,2.1204,2.0687,1.9546,1.8706,1.7185,1.5272,1.4394,1.3182,1.1883,1.1505,1.0973,1.0398,0.9874,0.9764,0.9733,0.9135,0.8967,0.9015,0.9241,0.9516,0.9697,0.9426,0.9201,0.882,0.7935,0.7963,0.8174,0.7852,0.8198,0.8737,0.945,0.9483,0.9533,1.0045,0.8703,0.7574,0.7992,0.7923,0.7913,0.8237,0.814,0.8129,0.843,0.8051,0.757,0.7111,0.657,0.5932,0.5117,0.4726,0.4517,0.4517,0.4539,0.4493,0.4431,0.4135,0.3919,0.3717,0.3348,0.3213,0.0,0.0,0.0,0.0,0.0,0.0,0.0,0.0,0.0,0.0,0.0,0.0,0.0,0.0,0.0,0.0,0.0,0.0,0.0,0.0,0.0,0.0,0.0,0.0,0.0,0.0,2.4497,2.435,2.2954,2.2307,2.3032,2.3192,2.3125,2.2809,2.2346,2.2074,2.2068,2.1527,2.1501,2.2126,2.157,2.1831,2.2999,2.2464,2.22,2.2177,2.2153,2.2154,2.2168,2.2143,2.216,2.2203,2.2205,2.1894,2.1289,2.0176,1.8513,1.6534,1.5105,1.3473,1.1933,1.1898,1.1288,1.0387,0.973,0.9744,0.9981,0.9463,0.9537,0.9914,1.0448,1.0687,1.0774,1.0778,1.041,0.9913,0.9446,0.9393,0.9525,0.9641,1.0034,1.0609,1.1312,1.1471,1.1621,1.2148,1.013,0.8555,0.9121,0.9023,0.8918,0.9091,0.8945,0.8885,0.9053,0.8802,0.8411,0.7941,0.7294,0.6579,0.5899,0.5221,0.4797,0.4753,0.4733,0.4681,0.4661,0.4442,0.4289,0.4139,0.3976,0.3755,0.3562,0.0,0.0,0.0,0.0,0.0,0.0,0.0,0.0,0.0,0.0,0.0,0.0,0.0,0.0,0.0,0.0,0.0,0.0,0.0,0.0,0.0,0.0,0.0,2.7693,2.4932,2.3536,2.5102,2.393,2.3322,2.4189,2.4269,2.3922,2.3091,2.3026,2.3017,2.3032,2.3009,2.3012,2.3037,2.3018,2.3038,2.3076,2.3052,2.3077,2.3137,2.3068,2.3078,2.314,2.3078,2.3042,2.3042,2.3049,2.3059,2.2957,2.1279,2.0077,1.9023,1.6441,1.4369,1.2846,1.2832,1.2251,1.1212,0.9599,0.966,1.0466,1.0542,1.1909,1.3557,1.3557,1.3455,1.3321,1.3281,1.2892,1.2481,1.2494,1.2478,1.2524,1.2843,1.2875,1.2916,1.3183,1.3263,1.3427,1.3982,1.241,1.0805,1.0312,1.0483,1.0403,0.9529,1.0036,0.0,0.9368,0.9226,0.8967,0.8366,0.7634,0.6965,0.6331,0.5615,0.5154,0.5029,0.4698,0.4591,0.4792,0.4442,0.4391,0.4797,0.452,0.4312,0.4136,0.0,0.0,0.0,0.0,0.0,0.0,0.0,0.0,0.0,0.0,0.0,0.0,0.0,0.0,0.0,0.0,0.0,0.0,0.0,0.0,0.0,2.7077,2.5851,2.4502,2.4137,2.3686,2.2882,2.2952,2.317,2.3411,2.3435,2.3571,2.3913,2.3368,2.3257,2.3842,2.3312,2.3284,2.3913,2.333,2.3634,2.4932,2.4325,2.4013,2.4035,2.402,2.3994,2.3965,2.3945,2.392,2.3883,2.3968,2.3605,2.2931,2.2536,2.183,2.0703,1.7575,1.5241,1.3665,1.367,1.3195,1.2517,1.2197,1.1911,1.1744,1.1904,1.2095,1.2346,1.2581,1.3433,1.4083,1.3021,1.337,1.3792,1.2718,1.2816,1.3227,1.3304,1.3782,1.4199,1.4337,1.4362,1.435,1.4256,1.3592,1.2913,1.2615,1.1736,1.1111,1.1236,1.1118,0.0,1.0343,0.9879,0.9257,0.8407,0.766,0.7001,0.6374,0.5663,0.5241,0.5203,0.5139,0.5091,0.5154,0.4928,0.4746,0.4661,0.4475,0.4502,0.0,0.0,0.0,0.0,0.0,0.0,0.0,0.0,0.0,0.0,0.0,0.0,0.0,0.0,0.0,0.0,0.0,0.0,0.0,0.0,0.0,0.0,2.6747,2.5168,2.3788,2.4069,2.3892,2.2503,2.3447,2.4049,2.3673,2.3968,2.4381,2.4842,2.4413,2.4343,2.4798,2.4394,2.4341,2.4836,2.4373,2.4625,2.5657,2.515,2.49,2.4902,2.486,2.4834,2.4803,2.4773,2.4736,2.4715,2.4798,2.448,2.3928,2.3665,2.3011,2.1983,0.0,0.0,0.0,0.0,1.4668,1.4053,1.3765,1.3719,1.3885,1.4707,1.5374,1.5889,1.6186,1.7033,1.7668,1.6641,1.6789,1.7026,1.6002,1.5831,1.593,1.5853,1.6217,1.6527,1.6489,1.6412,1.6257,1.593,1.5144,0.0,1.4535,1.3244,1.2119,1.1999,1.1774,1.1426,1.0813,1.0155,0.9536,0.899,0.8236,0.7536,0.6923,0.6167,0.0,0.0,0.0,0.5285,0.5241,0.5159,0.0,0.0,0.0,0.5098,0.5553,0.546,0.0,0.0,0.538,0.4993,0.0,0.0,0.0,0.0,0.0,0.0,0.0,0.0,0.0,0.0,0.0,0.0,0.0,0.0,0.0,0.0,2.6962,2.5625,2.4551,2.4743,2.462,2.3661,2.4912,2.5572,2.4913,2.5447,2.5898,2.5986,2.5893,2.5885,2.5979,2.6074,0.0,0.0,0.0,2.5959,2.562,2.5781,2.5826,2.573,2.5756,2.5764,2.5751,2.5588,2.5569,2.562,2.5569,2.5522,2.5456,2.483,2.4116,2.3281,2.2185,2.12,2.0179,1.8052,1.6888,1.6245,1.5403,0.0,0.0,1.8293,2.0004,2.1513,2.1809,2.2192,2.2419,2.1934,2.15,2.1075,2.0571,1.996,1.9376,1.9176,1.9124,1.9087,1.8884,1.8693,1.8422,1.8028,1.6715,1.5757,1.5903,1.4572,1.3236,1.2387,1.2241,1.1918,1.1055,1.0305,0.9774,0.9695,0.0,0.0,0.7682,0.6839,0.6215,0.5766,0.5501,0.5328,0.5236,0.5371,0.5354,0.5213,0.5529,0.5925,0.6408,0.6242,0.6385,0.6757,0.5456,0.5008,0.0,0.0,0.0,0.0,0.0,0.0,0.0,0.0,0.0,0.0,0.0,0.0,0.0,0.0,0.0,2.8489,2.7979,2.6991,2.4729,2.6814,2.8006,2.6435,2.6538,2.6969,2.7491,2.7052,2.7044,2.7737,2.7147,2.7027,2.7688,2.8383,2.811,2.6688,2.8023,2.7772,2.5694,2.6974,2.7242,2.6498,2.7084,0.0,2.7258,2.6592,2.6591,2.7071,2.657,2.628,2.6155,2.6661,2.6687,2.6116,2.2713,2.1572,2.178,2.1478,2.1268,2.111,2.071,2.073,2.093,2.1101,2.1418,2.1824,2.2226,2.3158,0.0,2.2682,2.2891,2.3059,2.1203,2.046,2.0041,1.942,1.9251,1.9251,1.9214,1.8741,1.8212,1.776,1.6959,1.6127,1.5546,1.4373,1.3651,1.4056,1.304,1.2191,1.1938,1.0802,0.9755,0.907,0.8861,0.8292,0.7224,0.6979,0.6605,0.5976,0.5723,0.5588,0.5448,0.5873,0.6064,0.5975,0.6554,0.6912,0.702,0.7149,0.7273,0.7322,0.6261,0.571,0.0,0.0,0.0,0.0,0.0,0.0,0.0,0.0,0.0,0.0,0.0,3.3738,3.3322,0.0,3.047,2.9645,2.8808,2.8092,2.7657,2.8352,2.8428,2.7148,2.7734,2.8437,2.8904,2.853,2.8431,2.886,2.8507,2.8252,2.8252,2.904,2.8886,2.7539,2.8744,2.8552,2.677,2.7504,2.7656,2.7147,2.7518,2.7654,2.7579,2.7151,2.7292,2.7894,2.7623,2.7622,2.78,2.7754,2.7597,2.7177,2.5114,2.4346,2.4323,2.3638,2.3258,2.3079,2.2964,2.2842,2.2921,2.3665,2.3896,2.3925,2.4291,2.4841,2.5176,2.4296,2.4143,2.3962,2.268,2.2015,2.1544,2.1066,2.0637,2.0302,2.0383,1.9522,1.8623,1.8303,1.7481,1.665,1.6001,1.5457,1.5006,1.4662,1.3628,1.2731,1.2306,1.1337,1.0388,0.9536,0.9359,0.891,0.7964,0.7426,0.6937,0.652,0.6142,0.6007,0.6209,0.6343,0.6529,0.6841,0.7162,0.7471,0.7748,0.7622,0.7685,0.7886,0.7134,0.6759,0.0,0.0,0.0,0.0,0.0,0.0,0.0,0.0,3.3823,3.2306,3.251,3.2973,3.3047,3.1775,3.0632,3.0338,2.9406,2.9019,2.9916,2.9275,2.8392,2.7583,2.8686,2.9587,2.9803,2.9784,2.9746,2.9746,2.9902,2.9648,2.8808,2.9821,2.9849,2.8571,2.963,2.9499,2.8017,2.825,2.8169,2.7758,2.8084,2.8122,2.7881,2.7982,2.8284,2.8746,2.8727,2.9099,2.9601,2.8526,2.8,2.784,2.7556,2.7159,2.6607,2.5401,2.4778,2.4523,2.4353,2.426,2.4378,2.5664,2.6045,2.6056,2.6268,2.6312,2.6206,2.5864,2.5273,2.464,2.4201,2.3644,2.3074,2.2802,2.2092,2.1513,2.1599,2.0426,1.9323,1.9156,1.8296,1.7453,1.6966,1.6975,1.6536,1.5153,1.4271,1.3542,1.287,1.1965,1.1116,1.04,1.0097,0.9646,0.8981,0.7923,0.7224,0.7147,0.6641,0.6513,0.6888,0.6894,0.7155,0.7694,0.7804,0.8045,0.8485,0.8097,0.8114,0.8477,0.8097,0.7762,3.1777,3.1099,3.076,3.2675,3.2597,3.2063,0.0,0.0,3.3098,3.2186,3.2069,3.2137,3.2147,3.1393,3.0269,2.8739,2.963,2.9771,2.7634,2.9162,3.0186,2.9323,2.9382,2.9819,3.0599,3.066,3.065,3.0643,3.1376,3.1409,3.0474,3.2556,3.2616,3.0122,3.2287,3.1923,2.8714,3.0087,2.9977,2.8332,2.9828,3.0096,2.9289,2.996,3.0253,3.0241,3.0068,3.0368,3.0844,2.9071,2.867,2.908,2.8245,2.7667,2.7321,2.7326,2.7395,2.743,2.6771,2.6565,2.655,2.6337,2.6352,2.6437,2.6452,2.6503,2.6537,2.645,2.6191,2.5834,2.5069,2.447,2.3919,2.3275,2.2598,2.2102,2.2103,2.1127,2.0189,2.0091,1.9456,1.8831,1.829,1.819,1.7725,1.6315,1.5406,1.479,1.4449,1.2882,1.1601,1.1227,1.0656,1.0069,0.9478,0.8211,0.7516,0.7599,0.7182,0.6937,0.6979,0.7814,0.8292,0.8375,0.885,0.9098,0.9116,0.9103,0.9103,0.9107,0.9094,0.8549,2.9862,3.0591,3.1412,0.0,3.1175,3.1269,3.1242,3.1867,3.2079,3.0801,3.0505,3.0625,3.1094,3.054,3.0072,0.0,3.0536,3.0658,3.0574,3.0626,3.0746,3.0884,3.0911,3.1067,3.1456,3.1495,3.1709,3.2226,3.2584,3.2582,3.2077,3.3483,3.3481,3.1691,3.3144,3.2943,3.0856,3.1493,3.1128,2.9757,3.0879,3.0942,3.0049,3.072,3.1164,3.1441,3.16,3.1498,3.119,3.0254,2.9691,2.9397,2.8806,2.8263,2.7799,2.7674,2.7517,2.7289,2.6939,2.6741,2.6657,2.64,2.6312,2.6327,2.6327,2.6293,2.6241,2.6206,2.6046,2.5819,2.5471,2.5224,2.4922,2.4648,2.3952,2.3257,2.3021,2.1869,2.0754,2.0443,1.9773,1.9152,1.876,1.8986,1.8891,1.8018,1.6751,1.5637,1.4787,1.374,1.2732,1.2037,1.1399,1.0895,1.0533,0.9394,0.8731,0.8812,0.8277,0.8072,0.8456,0.8699,0.895,0.9185,0.9426,0.9457,0.9248,0.9279,0.9368,0.9515,0.9506,0.9473,2.9801,3.062,0.0,3.0161,3.0119,3.0467,3.0653,3.1159,3.1232,3.0047,2.9758,2.9836,3.0179,2.9959,2.9966,3.0715,3.069,3.095,3.1969,3.1241,3.0819,3.1482,3.1738,3.1882,3.1948,3.2135,3.2419,3.2834,3.3242,3.3283,3.2885,3.3855,3.3922,3.2844,3.3593,3.3563,3.2559,3.252,3.1967,3.0956,3.1667,3.1533,3.0625,3.1228,3.1792,3.2349,3.2599,3.2302,3.1524,3.1062,3.0439,2.9712,2.9225,2.8745,2.8288,2.804,2.7446,2.6708,2.6538,2.6452,2.638,2.6277,2.6206,2.6187,2.6132,2.6115,2.6046,2.5937,2.5864,2.5754,2.5754,2.5513,2.5269,2.54,2.4523,2.364,2.343,2.2422,2.1384,2.0969,2.0433,1.9951,1.9568,1.9864,1.996,1.9433,1.8213,1.6881,1.5684,1.462,1.3597,1.268,1.2079,1.1675,1.1399,1.0454,0.9858,0.9697,0.9156,0.9084,0.9509,0.946,0.9549,0.9872,0.9872,0.9744,0.9518,0.9558,0.9655,0.9832,1.0033,1.0491,3.3289,0.0,3.0732,3.0685,3.0047,2.9661,3.051,3.0723,3.0703,3.0579,3.0564,3.0302,2.9499,3.0018,3.0025,2.8372,2.9505,3.0327,2.9535,3.0102,3.0613,3.064,3.1333,3.1795,0.0,3.2458,3.2555,3.1816,3.3063,3.3475,3.2558,3.3954,3.432,3.3308,3.4008,3.3979,3.3175,3.3045,3.2516,3.1579,3.2268,3.2078,3.1209,3.1725,3.2313,3.288,3.282,3.2606,3.2196,3.122,3.0663,3.0381,2.9464,2.8958,2.8777,2.8854,2.7782,2.6295,2.6026,2.6043,2.6168,2.6063,2.6154,2.626,2.599,2.6099,2.6225,2.5811,2.5791,2.5881,2.5881,2.5082,2.4374,2.4808,2.3834,2.2815,2.3068,2.274,2.2221,2.1813,2.186,2.1752,2.1224,2.1042,2.0809,2.0396,1.9757,1.8902,1.7739,1.5542,1.3802,1.3059,1.2689,1.2288,1.1825,1.1104,1.045,0.9903,0.9688,0.9579,0.9579,1.003,1.0283,1.0283,1.0283,1.0205,1.0079,1.0205,1.0205,1.0088,1.0804,1.1571,3.2726,0.0,3.1222,3.0064,2.9984,3.0261,3.0568,3.0626,3.0629,3.0586,3.103,3.1463,3.1709,3.1996,3.2178,3.2108,3.2077,3.1776,3.0991,3.16,3.19,3.1337,3.2359,0.0,0.0,0.0,0.0,3.3146,3.367,3.4174,3.466,3.5265,3.5534,3.5436,3.574,3.5683,3.5209,3.4655,3.3868,3.2794,3.2299,3.2074,3.2068,3.2157,3.2274,3.2422,3.2126,3.1948,3.1768,3.1192,3.0955,3.0921,3.0376,2.9895,2.942,2.9226,2.8478,2.7557,2.7611,2.735,2.7055,2.7479,2.7628,2.7665,2.7607,2.7665,2.7724,2.7498,2.746,2.7399,2.6904,2.6247,2.5648,2.5349,2.4672,2.3964,2.3508,2.3246,2.2844,2.2077,2.1996,2.1841,2.1423,2.1375,2.0946,1.9698,1.8808,1.798,1.7143,1.5796,1.4742,1.4294,1.3817,1.3476,1.3193,1.2172,1.1509,1.1304,1.0782,1.0477,1.0477,1.0603,1.0641,1.0505,1.0505,1.039,1.0235,1.0312,1.0616,1.1105,1.1429,1.2246,3.1921,3.1581,3.1484,3.0046,3.0104,3.0528,3.054,3.053,3.053,3.053,3.1429,3.2358,3.2868,3.3455,3.402,3.4504,3.4102,3.3451,3.2634,3.2651,3.2513,3.1886,3.2632,3.3181,0.0,0.0,0.0,3.3251,3.3674,3.4299,3.5105,3.5717,3.6131,3.6362,3.6371,3.6316,3.6124,3.529,3.4295,3.3142,3.2442,3.2225,3.2422,3.2301,3.2214,3.2144,3.1802,3.1634,3.1521,3.1235,3.1134,3.1112,3.0855,3.049,3.0112,2.9855,2.931,2.8609,2.8417,2.8042,2.7765,2.8207,2.8373,2.8373,2.8295,2.8373,2.8395,2.797,2.7834,2.772,2.7009,2.6392,2.5846,2.5642,2.489,2.4217,2.4075,2.3599,2.3022,2.2527,2.2292,2.2044,2.1616,2.152,2.0988,1.9635,1.8635,1.7681,1.6666,1.6152,1.5714,1.5153,1.4776,1.4404,1.3993,1.3191,1.2587,1.2373,1.1911,1.1559,1.1323,1.1313,1.1152,1.0822,1.0822,1.0746,1.0631,1.0899,1.1281,1.1783,1.2326,1.3073,3.1113,3.1018,3.1436,3.0609,3.0388,3.0398,3.0393,3.0393,3.0417,3.052,3.1865,3.3053,0.0,0.0,3.5475,3.5367,3.5356,3.5025,3.401,3.3134,3.2488,0.0,0.0,0.0,0.0,0.0,0.0,3.2355,0.0,3.406,3.4149,3.5402,3.6145,3.62,3.6055,3.6018,3.6079,3.5102,3.3997,3.2793,3.2712,3.2578,3.2371,3.2248,3.2141,3.2106,3.1888,3.1685,3.1479,3.1312,3.1157,3.0975,3.0912,3.0814,3.0692,3.0692,3.0161,2.9343,2.8523,2.826,2.8273,2.8306,2.8378,2.8489,2.831,2.8411,2.8417,2.7438,2.7211,2.711,2.6499,2.5646,2.5062,2.557,2.4531,2.3649,2.4704,2.3873,2.2976,2.3229,2.2819,2.232,2.1944,2.1561,2.1019,2.0307,1.9415,1.8168,1.6473,1.6675,1.6593,1.5605,1.539,1.498,1.4247,1.3993,1.3683,1.307,1.3015,1.2754,1.2157,1.2113,1.1819,1.1265,1.1206,1.1206,1.1265,1.1808,1.2164,1.224,1.3408,1.4037,3.1303,3.0983,3.0592,3.0379,3.0343,3.0341,3.0393,3.0393,3.0765,3.2007,3.3596,3.5144,0.0,0.0,0.0,3.6026,3.5305,0.0,3.2538,3.3175,0.0,3.272,0.0,3.4506,3.4755,3.5469,0.0,0.0,3.5386,3.5854,3.6231,3.6589,3.6971,3.744,3.7455,3.7386,3.725,3.6202,3.5102,3.3911,3.3835,3.3665,3.3511,3.3294,3.2849,3.2224,3.2106,3.1641,3.1032,3.0895,3.0895,3.0895,3.0692,3.0692,3.0814,3.0609,3.0493,3.0335,2.9988,2.9534,2.9178,2.974,2.9922,2.9963,3.0021,3.0102,3.0045,2.9632,2.9531,2.9274,2.814,2.7316,2.6672,2.6046,2.531,2.4742,2.4966,2.4699,2.4413,2.4359,2.3649,2.3065,2.2921,2.2568,2.1917,2.069,2.0842,2.0175,1.751,1.6722,1.6291,1.5925,1.5603,1.5377,1.5147,1.446,1.397,1.3846,1.3297,1.2949,1.2787,1.2327,1.2048,1.189,1.1431,1.1431,1.189,1.2127,1.2796,1.3834,1.4235,1.4743,3.0484,3.0311,3.0213,3.0203,3.0221,3.0371,3.0748,3.112,3.1785,3.3077,3.4986,0.0,3.7599,3.7928,0.0,0.0,0.0,0.0,3.3599,3.4067,3.4377,0.0,3.41,0.0,3.5612,3.6095,3.6435,0.0,3.6625,3.6668,3.6906,3.7151,3.7412,3.7685,3.7685,3.7398,3.684,3.6229,3.5349,3.4241,3.4159,3.4059,3.39,3.3673,3.327,3.2681,3.2538,3.2194,3.1641,3.1266,3.1133,3.1141,3.0701,3.0609,3.0692,3.0568,3.0568,3.0609,3.0526,3.0245,2.9963,3.0377,3.0485,3.0485,3.0526,3.0568,3.0485,3.006,2.9957,2.9653,2.834,2.7734,2.7309,2.6527,2.5904,2.5541,2.5733,2.5354,2.4776,2.4307,2.3692,2.3206,2.289,2.277,2.2242,2.0871,2.1245,2.0886,1.8572,1.7619,1.6983,1.6556,1.6046,1.5691,1.5659,1.5166,1.4794,1.4706,1.4332,1.3984,1.3716,1.3361,1.3114,1.2929,1.2581,1.262,1.2929,1.3276,1.3829,1.4638,1.494,1.5298,2.9421,2.956,3.0099,3.0109,3.0133,3.0409,3.12,3.2064,3.2966,3.4001,0.0,3.7735,3.7905,3.8234,3.8392,3.8112,0.0,3.7024,3.5451,3.4944,3.4769,3.4845,3.4141,3.4416,3.6378,3.6768,3.7126,3.765,3.725,3.6922,3.6872,3.7345,3.7522,3.7317,3.7297,3.6788,3.5828,3.5811,3.5344,3.4431,3.4278,3.4215,3.4151,3.3963,3.366,3.3328,3.3225,3.2956,3.2635,3.2034,3.1769,3.1702,3.1056,3.0808,3.0808,3.0808,3.0808,3.0808,3.0808,3.0808,3.0775,3.0576,3.0485,3.0459,3.0417,3.0417,3.0274,2.9515,2.9348,2.9118,2.7849,2.7565,2.7429,2.6922,2.6396,2.6134,2.6663,2.5923,2.4916,2.4081,2.3692,2.3249,2.2616,2.2658,2.2332,2.1088,2.1227,2.0994,1.9674,1.8825,1.8075,1.7355,1.6539,1.5957,1.5881,1.5792,1.5703,1.5558,1.5558,1.5313,1.4779,1.4697,1.4481,1.4144,1.4033,1.4033,1.4132,1.4738,1.5109,1.5235,1.5788,1.6017,2.9792,3.0003,3.0098,3.0099,3.0109,3.0338,3.1146,3.1996,0.0,0.0,3.6805,3.8042,3.9391,3.8934,3.8023,3.7032,3.6028,3.5143,3.4509,3.379,3.38,0.0,0.0,0.0,3.6327,3.7077,0.0,0.0,3.7396,3.7234,3.7197,3.719,3.7108,3.6891,3.7009,3.6838,3.6353,3.6353,3.6143,3.5668,3.5539,3.547,3.547,3.5321,3.4823,3.403,3.3985,3.3484,3.268,3.2547,3.2497,3.2497,3.2365,3.2315,3.2315,3.2315,3.2315,3.2315,3.2315,3.2315,3.2116,3.0907,3.0568,3.0609,3.0526,3.0568,3.0468,2.9601,2.9361,2.9118,2.7963,2.7765,2.7665,2.7093,2.6953,2.6946,2.6803,2.6605,2.6416,2.6249,2.5178,2.4269,2.4105,2.3526,2.2651,2.1623,2.1986,2.1975,2.0833,1.9094,1.7945,1.7797,1.6704,1.6044,1.61,1.5893,1.5715,1.5748,1.5748,1.5712,1.5616,1.5088,1.4803,1.4761,1.4251,1.4251,1.4761,1.5459,1.6174,1.6806,1.7476,1.7593,2.9878,3.0026,3.0167,3.056,3.0706,3.1146,3.2788,0.0,0.0,0.0,3.827,3.9086,3.9675,3.886,0.0,3.698,3.6243,3.5575,3.4924,3.4398,0.0,0.0,0.0,0.0,0.0,3.6948,3.7354,3.7203,3.7087,3.7105,3.7297,3.7027,3.6869,3.6766,3.669,3.6527,3.6335,3.6732,3.6603,3.5975,3.6236,3.6191,3.5773,3.5667,3.5301,3.4755,3.4755,3.4355,3.3713,3.3425,3.3214,3.3135,3.2829,3.268,3.268,3.268,3.268,3.268,3.268,3.268,3.2564,3.1781,3.1375,3.1153,3.0881,3.047,3.0012,2.9626,2.9171,2.867,2.7815,2.7715,2.763,2.7041,2.687,2.6788,2.6698,2.6645,2.6457,2.5792,2.5034,2.4318,2.3645,2.3291,2.279,2.1938,2.2332,2.2399,2.1456,2.008,1.9146,1.9009,1.7766,1.6948,1.7049,1.6479,1.61,1.6013,1.5925,1.5925,1.6025,1.5714,1.5611,1.5727,1.5398,1.5398,1.5697,1.6379,1.6772,1.6848,1.7836,1.8063,2.9962,2.9926,3.0175,3.0979,3.1236,3.191,3.4336,3.5627,0.0,0.0,3.9385,3.987,3.9575,0.0,3.7775,0.0,3.6808,3.6394,3.5699,3.5277,3.5225,0.0,0.0,0.0,3.6139,3.6829,0.0,3.6829,3.6788,3.6908,3.7161,3.6923,3.6821,3.6821,3.6757,3.6672,3.6576,3.7158,3.7113,3.6427,3.6888,3.6724,3.5966,3.5859,3.5609,3.5245,3.5245,3.5041,3.4706,3.4223,3.3975,3.3815,3.3346,3.316,3.316,3.316,3.316,3.316,3.3205,3.3205,3.3205,3.2961,3.2471,3.1853,3.1437,3.0683,2.9884,2.9819,2.9126,2.8274,2.7724,2.7634,2.7515,2.685,2.6547,2.6361,2.6361,2.6361,2.6073,2.5077,2.4589,2.3989,2.3034,2.2866,2.2684,2.2113,2.24,2.2429,2.1719,2.1111,2.059,2.0353,1.8937,1.797,1.781,1.7168,1.6647,1.6374,1.6262,1.6219,1.6362,1.6362,1.6405,1.6565,1.6522,1.6522,1.6491,1.7188,1.7333,1.7042,1.818,1.8456,3.0113,2.9888,3.0105,3.0914,3.1167,3.186,3.4354,0.0,0.0,3.8359,3.9169,3.9532,3.9526,3.8822,0.0,0.0,3.664,3.6292,3.6221,3.5403,3.5437,3.7038,0.0,0.0,3.6833,3.6856,3.6811,3.6788,3.6725,3.6742,3.6725,3.6948,3.7107,3.7256,3.7757,3.7962,3.784,3.7874,3.7844,3.775,3.777,3.7351,3.6514,3.6514,3.6004,3.5105,3.5105,3.5041,3.4899,3.4816,3.48,3.4783,3.4717,3.47,3.47,3.47,3.47,3.47,3.4841,3.4888,3.4795,3.4348,3.3477,3.2533,3.2183,3.1709,3.1116,3.0417,2.948,2.8531,2.8021,2.775,2.741,2.6614,2.6232,2.6031,2.5865,2.5981,2.6002,2.5871,2.4713,2.3745,2.363,2.289,2.2194,2.2044,2.2038,2.2005,2.1807,2.1704,2.1629,2.1486,1.9794,1.8487,1.7937,1.7746,1.7414,1.6871,1.6833,1.6833,1.6846,1.6846,1.6833,1.6876,1.6876,1.6833,1.6846,1.7527,1.81,1.8636,1.9339,1.9647,3.0067,3.0255,3.0877,3.1619,3.2561,3.3827,3.5778,0.0,3.7491,3.8634,3.9044,3.9063,3.8656,3.8542,3.8218,3.7377,3.7059,3.6911,3.6911,3.6441,3.6186,3.6403,3.6485,0.0,0.0,0.0,3.7495,3.775,3.7637,3.7566,3.7477,3.7384,3.7504,3.7815,3.806,3.812,3.7885,3.8309,3.8343,3.7922,3.8345,3.8176,3.7401,3.7306,3.7043,3.6662,3.6582,3.6486,3.6289,3.5858,3.561,3.5512,3.5065,3.4947,3.4994,3.4994,3.5088,3.5152,3.5198,3.5198,3.5198,3.493,3.4485,3.3928,3.2732,3.1508,3.047,3.0322,2.957,2.8808,2.866,2.8631,2.8434,2.7506,2.7135,2.6823,2.6237,2.6165,2.6116,2.5945,2.5336,2.4745,2.45,2.3574,2.2875,2.2875,2.247,2.2091,2.1949,2.1949,2.1841,2.1746,2.0617,1.9714,1.9304,1.8721,1.83,1.808,1.7567,1.7344,1.7388,1.7055,1.6876,1.6876,1.6803,1.6969,1.7301,1.7984,1.8428,1.8732,1.9904,2.025,3.0639,3.079,3.1336,3.2354,3.3554,3.4914,0.0,0.0,3.7887,3.8813,3.8849,3.8615,3.8241,3.818,3.8032,3.7449,3.7297,3.7309,3.7577,3.7439,3.7198,0.0,0.0,3.7178,3.611,3.6738,3.7396,3.7665,3.7502,3.7614,3.8027,3.7798,3.7877,3.8363,3.8618,3.8642,3.8497,3.9005,3.9022,3.8565,3.9073,3.8888,3.8082,3.8033,3.78,3.7501,3.7419,3.732,3.722,3.6704,3.6422,3.6323,3.5792,3.569,3.5769,3.5535,3.5562,3.5576,3.5421,3.5354,3.5337,3.5071,3.4866,3.435,3.2735,3.1515,3.0791,3.096,3.0216,2.9248,2.903,2.8847,2.8542,2.7788,2.7457,2.718,2.648,2.6394,2.6313,2.5952,2.5597,2.5292,2.5024,2.4298,2.3769,2.3817,2.3146,2.2546,2.2404,2.2203,2.1996,2.1841,2.1374,2.0825,2.0429,1.9794,1.9278,1.9061,1.8545,1.8234,1.8234,1.7887,1.7678,1.7592,1.7592,1.78,1.8144,1.8682,1.9015,1.9152,2.0228,2.0589,3.2071,3.1504,3.1304,3.2892,3.3634,3.4439,0.0,0.0,3.7555,3.8739,3.8475,3.8129,3.8517,3.7879,3.7297,3.7297,3.7143,3.729,3.8144,3.8151,3.8392,0.0,0.0,3.8684,3.7663,3.662,3.6036,3.6036,3.5773,3.6344,3.7993,3.8125,3.8336,3.8886,3.9514,3.9969,4.0054,4.0054,4.0054,4.0054,4.0054,3.9531,3.8589,3.8589,3.8036,3.7119,3.7102,3.7102,3.7102,3.7102,3.7186,3.727,3.7253,3.7352,3.7367,3.6678,3.641,3.631,3.5698,3.5492,3.5429,3.4944,3.4252,3.3351,3.2045,3.212,3.2671,3.2772,3.1601,3.0015,2.8898,2.7906,2.7196,2.6959,2.6712,2.6515,2.65,2.6621,2.6538,2.6075,2.5334,2.4834,2.4999,2.4805,2.4673,2.4673,2.398,2.3435,2.3291,2.2658,2.2137,2.1996,2.1983,2.1652,2.0854,2.0753,2.0493,1.9731,1.969,1.9646,1.9512,1.9588,1.9543,1.9288,1.9543,1.9588,1.9467,1.9601,1.9913,2.0388,2.0402,2.063,3.2857,3.2937,3.3252,3.4338,3.5329,3.6227,3.6988,0.0,3.7903,3.8305,3.8231,3.7964,3.7596,3.745,3.7534,3.7813,3.7737,3.7953,0.0,0.0,0.0,3.8181,3.7465,3.7042,0.0,3.7359,3.7347,3.7191,3.7635,3.7858,3.7679,3.8167,3.8773,3.9548,3.9766,3.9849,3.9694,3.9781,3.9833,3.9833,3.9935,3.9766,3.9343,3.9256,3.9018,3.875,3.875,3.875,3.8716,3.832,3.8154,3.8137,3.7636,3.7533,3.7547,3.6807,3.6363,3.6006,3.5257,3.4802,3.4366,3.3649,3.3275,3.2834,3.1815,3.1263,3.0981,3.0543,3.0123,2.9734,2.9385,2.9047,2.8672,2.7948,2.7618,2.7341,2.6814,2.6645,2.6587,2.6556,2.6352,2.6221,2.6323,2.5879,2.5487,2.5587,2.4936,2.4288,2.3793,2.3374,2.2885,2.2459,2.2231,2.196,2.1498,2.1389,2.126,2.1008,2.0566,2.0302,2.0256,1.9908,1.9601,1.9436,1.9526,1.9714,1.998,2.0026,2.0335,2.096,2.1363,2.1695,3.3926,3.4097,3.4502,3.5198,3.6131,3.6962,0.0,0.0,3.7879,3.7879,3.7774,3.7577,3.7243,3.7206,3.7326,3.7562,3.7545,3.776,0.0,0.0,0.0,3.7975,0.0,0.0,3.6962,3.7017,3.6979,3.6791,3.7211,3.7299,3.7034,3.7452,3.8221,3.9345,3.9698,3.9781,3.9746,3.9729,3.9798,3.9798,3.9849,3.9798,3.9625,3.959,3.9537,3.9501,3.9537,3.959,0.0,3.8856,3.8606,3.8589,3.7884,3.7533,3.7384,3.6647,3.604,3.5564,3.4775,3.4284,3.3905,3.3187,3.2374,3.1615,3.1055,3.0628,3.0208,2.9506,2.9456,2.952,2.928,2.9152,2.8872,2.8189,2.7871,2.7592,2.7108,2.6953,2.6866,2.6823,2.6779,2.6846,2.7003,2.6638,2.636,2.641,2.5854,2.5185,2.4597,2.4158,2.3712,2.3231,2.3045,2.274,2.2359,2.2027,2.1841,2.1841,2.1448,2.1194,2.1148,2.0836,2.0539,2.037,2.0448,2.0639,2.0867,2.0867,2.1274,2.1972,2.2341,2.2643,0.0,3.495,3.513,3.5607,3.6302,3.6744,3.6452,0.0,0.0,3.7505,3.7243,3.7108,3.7413,3.7091,3.6788,3.6858,3.6795,0.0,0.0,3.7815,0.0,0.0,3.7501,3.6928,3.6734,3.5883,3.5358,3.5291,3.5091,3.5343,3.6102,3.6185,3.6901,3.8405,3.9142,3.9664,4.007,3.9935,3.9901,3.9849,3.9901,3.9746,3.9501,3.9625,3.9609,3.947,3.9594,3.9612,3.9511,3.8841,3.8623,3.8672,3.8014,3.7533,3.707,3.6323,3.5712,3.5061,3.4279,3.3986,3.3869,3.324,3.1663,3.0,2.9902,3.0036,3.0042,2.94,2.9307,2.9295,2.8682,2.8345,2.808,2.7773,2.761,2.7432,2.7322,2.7363,2.7313,2.6895,2.6779,2.6846,2.6951,2.7093,2.7181,2.7181,2.6636,2.6123,2.5676,2.5034,2.4476,2.4168,2.4118,2.3864,2.3224,2.2606,2.2226,2.2184,2.2184,2.2137,2.2044,2.2137,2.2091,2.1793,2.2044,2.2152,2.2052,2.2052,2.2482,2.3259,2.3266,2.3525,3.5119,0.0,3.6143,3.6862,3.7004,3.6998,0.0,0.0,0.0,0.0,0.0,3.7111,3.693,3.665,3.6634,0.0,0.0,3.75,3.8452,3.7801,0.0,3.6844,3.6157,3.5756,3.5893,3.5971,3.5735,3.5027,3.5557,3.5754,3.5371,3.5902,3.6417,3.6882,3.7453,3.837,3.9764,3.9833,3.9798,3.9606,3.9798,3.9746,3.9501,3.9625,3.9411,3.8925,3.9042,3.8837,3.841,3.832,3.8299,3.8329,3.8159,3.8027,3.7831,3.7102,3.6501,3.5826,3.4595,3.3887,3.3312,3.1944,3.0754,2.9728,2.9124,2.8598,2.8228,2.8038,2.8038,2.8008,2.791,2.7814,2.7697,2.7646,2.735,2.717,2.7193,2.6968,2.6765,2.6808,2.6779,2.6779,2.6846,2.6951,2.7055,2.7055,2.6997,2.6769,2.6117,2.5712,2.5271,2.4696,2.4519,2.4312,2.4056,2.3301,2.2676,2.2212,2.2184,2.2184,2.2137,2.2184,2.2137,2.1949,2.1902,2.2124,2.2533,2.2533,2.2915,2.3603,2.4076,2.4315,3.5736,3.6221,3.6788,3.7082,3.7091,3.7013,3.7091,0.0,0.0,0.0,0.0,3.6935,3.6725,3.6544,0.0,0.0,3.6939,0.0,0.0,0.0,3.6887,3.6406,3.6026,3.5659,3.5291,3.5485,3.5409,3.4932,3.5359,3.5457,3.5011,3.5311,3.5725,3.6202,3.639,3.7203,3.8605,3.8723,3.8673,3.8469,3.8807,3.8824,3.8605,3.8774,3.8622,3.8284,3.8461,3.8384,3.8057,3.7792,3.7718,3.7667,3.7325,3.699,3.6692,3.6303,3.5746,3.5087,3.4083,3.3287,3.2579,3.1582,3.0704,2.9939,2.9486,2.8851,2.8196,2.7739,2.7625,2.7625,2.7625,2.7524,2.7488,2.7488,2.7181,2.6937,2.7078,2.6788,2.6578,2.6779,2.6779,2.6779,2.6779,2.6899,2.7003,2.7003,2.7093,2.6997,2.6557,2.6345,2.606,2.5545,2.5377,2.516,2.4824,2.4418,2.3851,2.3132,2.3041,2.3041,2.3041,2.3041,2.3041,2.2944,2.2895,2.3013,2.3334,2.3334,2.3705,2.4385,2.4721,2.5015,3.6006,3.6452,3.6876,3.6856,3.6895,3.69,3.6708,0.0,0.0,0.0,0.0,0.0,0.0,3.6502,0.0,0.0,0.0,0.0,3.665,3.6797,3.6678,3.6323,3.6229,3.5835,3.506,3.4947,3.4899,3.4899,3.4899,3.4899,3.4899,3.4739,3.502,3.5777,3.5646,3.5993,3.687,3.7318,3.7484,3.7319,3.7694,3.7759,3.7567,3.7759,3.777,3.7669,3.7904,3.7928,3.782,3.7188,3.6932,3.6881,3.6232,3.565,3.5161,3.5161,3.4769,3.4219,3.3598,3.2788,3.1981,3.1667,3.1063,3.0503,3.0342,2.9814,2.9064,2.8114,2.7799,2.7694,2.7604,2.7539,2.7452,2.7452,2.7196,2.6937,2.7011,2.6861,2.6746,2.6794,2.6852,2.6895,2.6808,2.6899,2.6951,2.6951,2.7093,2.7078,2.6832,2.6779,2.6674,2.6394,2.6394,2.6179,2.5583,2.5592,2.526,2.4478,2.4267,2.4168,2.4168,2.4168,2.4168,2.4118,2.4118,2.416,2.4258,2.4258,2.462,2.5331,2.5331,2.5604,3.3633,3.4345,3.5549,3.6738,3.6891,3.6725,0.0,0.0,0.0,0.0,0.0,0.0,0.0,3.6165,3.6062,0.0,0.0,3.5912,3.597,3.5717,3.558,3.5701,3.5395,3.5174,3.5215,3.5041,3.4899,3.4899,3.4899,3.4851,3.4739,3.4691,3.4692,3.4758,3.4611,3.466,3.4923,3.6751,3.7599,3.7484,3.7933,3.8027,3.7759,3.7916,3.7623,3.7029,3.7075,3.6808,3.6317,3.6198,3.6146,3.6146,3.6027,3.5932,3.5844,3.5844,3.5783,3.5526,3.4431,3.3287,3.2287,3.1853,3.1607,3.1312,3.0377,3.0041,2.9805,2.9079,2.8551,2.8055,2.7571,2.759,2.774,2.774,2.7575,2.7423,2.7335,2.7542,2.7496,2.6934,2.7215,2.7418,2.6881,2.6832,2.6832,2.6832,2.6832,2.6832,2.6779,2.6779,2.6779,2.6727,2.6727,2.663,2.6328,2.6313,2.6232,2.6001,2.5003,2.4419,2.4419,2.4419,2.4369,2.4269,2.4269,2.4473,2.484,2.484,2.5202,2.5807,2.5807,2.6145,3.3358,3.4068,3.5081,3.5591,3.5357,0.0,0.0,0.0,0.0,0.0,0.0,0.0,0.0,0.0,3.6079,3.5905,0.0,3.5774,3.6013,3.5941,3.5894,3.5813,3.564,3.5394,3.5091,3.4994,3.4947,3.4994,3.4994,3.4994,3.5041,3.4804,3.4691,3.4707,3.4448,3.4349,3.4497,3.5706,3.6248,3.6087,3.6591,3.67,3.6578,3.6746,3.6633,3.6327,3.6399,3.6256,3.6019,3.6019,3.6019,3.5975,3.5616,3.5481,3.5407,3.5052,3.4688,3.4268,3.3447,3.2633,3.1823,3.1263,3.1102,3.0984,3.0529,3.0382,3.0251,2.9535,2.9046,2.869,2.8409,2.8426,2.8532,2.8689,2.8532,2.8358,2.8479,2.8557,2.8513,2.8248,2.8076,2.7891,2.7598,2.717,2.6895,2.7244,2.7302,2.7418,2.7766,2.781,2.781,2.781,2.781,2.7665,2.7194,2.7469,2.7273,2.6383,2.5692,2.5365,2.5365,2.5261,2.5222,2.5156,2.5156,2.5244,2.5472,2.5809,2.6118,2.6399,2.675,2.7059,3.3206,3.3792,3.4466,3.3758,0.0,3.3755,3.3997,0.0,0.0,0.0,0.0,0.0,0.0,3.6071,0.0,3.5861,3.5684,3.5643,3.595,3.6097,3.605,3.5841,3.5841,3.5625,3.4996,3.4994,3.5058,3.5152,3.5152,3.5198,3.5245,3.4947,3.4787,3.4851,3.4546,3.4448,3.4546,3.4851,3.4994,3.4947,3.5441,3.5594,3.552,3.5745,3.5773,3.5773,3.5844,3.5827,3.5677,3.5677,3.5571,3.5374,3.4878,3.4688,3.4609,3.4119,3.3511,3.2879,3.2524,3.2059,3.1437,3.0911,3.0747,3.0687,3.0642,3.0568,3.0466,2.9987,2.9667,2.9383,2.9131,2.9112,2.9208,2.9426,2.9262,2.9098,2.9357,2.9381,2.9345,2.9267,2.8832,2.8498,2.8336,2.771,2.7389,2.7882,2.7955,2.8129,2.8623,2.8681,2.8681,2.8681,2.8681,2.8477,2.7998,2.839,2.8148,2.6949,2.664,2.6446,2.6446,2.6392,2.6394,2.6495,2.6495,2.6495,2.644,2.6905,2.7088,2.7088,2.7595,2.7905,3.2076,3.2559,3.309,3.1253,0.0,0.0,3.394,0.0,0.0,0.0,0.0,0.0,0.0,3.5497,3.5861,3.5975,3.5594,3.5337,3.5446,3.5404,3.5328,3.5171,3.5265,3.5295,3.5105,3.5198,3.5291,3.5291,3.5291,3.5245,3.5105,3.5105,3.4947,3.4691,3.4691,3.4707,3.4691,3.4691,3.4851,3.5088,3.5549,3.5728,3.5577,3.5728,3.5728,3.5622,3.5622,3.5299,3.4688,3.4688,3.4333,3.3786,3.3735,3.3684,3.3684,3.3649,3.3287,3.2788,3.2788,3.2312,3.1625,3.1336,3.1087,3.0911,3.0687,3.0568,3.0568,3.051,3.0526,3.022,2.917,2.9127,2.9277,2.9332,2.9401,2.9401,2.9167,2.9569,2.9706,2.891,2.9173,2.9305,2.8766,2.8635,2.8565,2.8608,2.8608,2.8637,2.8681,2.8681,2.8681,2.8681,2.8681,2.8652,2.8623,2.8652,2.8637,2.855,2.7929,2.761,2.761,2.761,2.7816,2.8296,2.831,2.8239,2.8011,2.8054,2.8025,2.7896,2.7938,2.8234,3.1833,3.1893,3.2115,3.1465,0.0,0.0,0.0,0.0,0.0,0.0,0.0,0.0,0.0,0.0,3.5711,3.5861,3.5549,3.5291,3.5321,3.5337,3.5291,3.5245,3.5245,3.5291,3.5245,3.5291,3.5337,3.5446,3.5446,3.54,3.5337,3.5198,3.5041,3.4947,3.4804,3.4739,3.4835,3.4835,3.4899,3.4994,3.5228,3.5367,3.5412,3.5566,3.5379,3.4988,3.5407,3.4958,3.4037,3.4431,3.4186,3.3598,3.3235,3.2772,3.2312,3.2532,3.2437,3.2135,3.2048,3.1823,3.1495,3.1102,3.094,3.0807,3.0642,3.0568,3.0568,3.0568,3.0568,3.0526,3.0046,3.009,3.0263,3.0393,3.0508,3.0607,3.0607,3.0785,3.0817,3.0522,3.0174,2.9825,2.9591,2.9112,2.8811,2.9203,2.9261,2.9406,2.9798,2.9856,2.9856,2.9856,2.9508,2.9421,2.9827,2.9493,2.9261,2.9261,2.861,2.8206,2.8206,2.808,2.8082,2.8312,2.8326,2.8269,2.8197,2.8466,2.8547,2.8457,2.8717,2.8904,3.1823,3.1751,3.1888,0.0,0.0,0.0,0.0,0.0,0.0,0.0,0.0,0.0,0.0,0.0,0.0,3.5728,3.552,3.5354,3.5354,3.5383,3.5383,3.5354,3.5383,3.5383,3.5354,3.5354,3.54,3.5492,3.5446,3.5446,3.5446,3.5245,3.5135,3.5088,3.4899,3.4851,3.4899,3.4899,3.4899,3.4899,3.4994,3.5152,3.5291,3.54,3.5211,3.4911,3.5333,3.4769,3.3582,3.4037,3.3719,3.2917,3.2516,3.2007,3.1539,3.1769,3.1769,3.1597,3.1509,3.1379,3.1204,3.0881,3.0762,3.0702,3.0642,3.0568,3.0568,3.0568,3.0568,3.0568,3.0568,3.0702,3.0821,3.0955,3.1117,3.1234,3.1366,3.1336,3.1321,3.1263,3.0733,3.0322,3.0264,2.974,2.9421,2.9856,2.9929,3.0089,3.051,3.0568,3.0568,3.0568,3.019,3.0103,3.0539,3.0176,2.9929,2.9929,2.945,2.9074,2.8871,2.8742,2.8713,2.8972,2.8972,2.8972,2.8972,2.9285,2.932,2.9045,2.9406,2.9338,3.1881,3.2089,3.2444,0.0,0.0,0.0,0.0,0.0,0.0,0.0,0.0,3.5173,3.4924,3.5307,0.0,3.5622,3.5566,3.5492,3.5492,3.5549,3.5594,3.5492,3.5549,3.5594,3.5492,3.5492,3.5492,3.5492,3.54,3.5291,3.5291,3.5291,3.5245,3.5088,3.5088,3.5041,3.4899,3.4899,3.4899,3.4899,3.4899,3.5041,3.5291,3.5291,3.5354,3.5492,3.5337,3.4545,3.3391,3.3391,3.261,3.1482,3.1482,3.1482,3.1482,3.1482,3.1409,3.1278,3.1278,3.1058,3.0821,3.0821,3.0702,3.0568,3.0568,3.0568,3.0568,3.0568,3.0568,3.0568,3.0568,3.0702,3.0821,3.0821,3.0955,3.1087,3.1087,3.1087,3.1014,3.0821,3.0821,3.0762,3.0642,3.0568,3.0582,3.0568,3.0568,3.0582,3.0582,3.0582,3.0582,3.0582,3.0568,3.0568,3.0568,3.0568,3.0568,3.0568,3.0568,3.0292,2.9668,2.9639,2.9929,3.0568,3.0568,3.0568,3.0568,3.0568,3.0312,2.9808,2.9808,2.9574,3.1668,3.0999,3.0659,3.1576,0.0,0.0,0.0,0.0,0.0,0.0,3.4881,3.5882,3.5694,3.5647,0.0,3.5728,3.5639,3.5594,3.5594,3.5684,3.5728,3.5684,3.5728,3.5728,3.5684,3.5639,3.5566,3.5492,3.5446,3.5354,3.5152,3.5152,3.5088,3.4947,3.4947,3.4994,3.5041,3.5041,3.5041,3.5041,3.5041,3.5088,3.5135,3.4642,3.448,3.4545,3.4087,3.3427,3.2641,3.2272,3.1838,3.1482,3.1482,3.1482,3.1482,3.1482,3.1467,3.1409,3.1409,3.1219,3.0925,3.0821,3.0702,3.0568,3.0447,3.0507,3.0568,3.0568,3.0568,3.0568,3.0568,3.0821,3.1014,3.1014,3.1132,3.1292,3.1366,3.1292,3.1234,3.1176,3.0881,3.0702,3.0702,3.0462,3.028,3.0387,3.0341,3.0233,3.0233,3.0233,3.0233,3.0233,3.0341,3.0387,3.0387,3.0507,3.0507,3.0387,3.0507,3.0495,3.0306,3.0292,3.0379,3.0568,3.0568,3.0568,3.0568,3.0447,3.0266,3.0036,2.9884,2.9699,3.131,3.085,3.0558,3.1215,3.1321,3.134,3.179,0.0,0.0,0.0,3.5125,3.6079,3.5888,3.5756,3.5728,3.5773,3.5756,3.5756,3.5756,3.5756,3.5817,3.5817,3.5817,3.5817,3.5817,3.5728,3.5639,3.5458,3.5429,3.5291,3.5041,3.4994,3.4994,3.4899,3.4899,3.4947,3.4994,3.4994,3.4994,3.4994,3.4994,3.4994,3.4994,3.4545,3.4448,3.4496,3.3633,3.3061,3.2641,3.1853,3.1482,3.1482,3.1482,3.1482,3.1482,3.1482,3.1467,3.1409,3.1366,3.1176,3.0925,3.0747,3.0702,3.0568,3.0447,3.0507,3.0568,3.0568,3.0568,3.0628,3.0702,3.0895,3.1087,3.1087,3.1249,3.1409,3.1467,3.1409,3.1351,3.1278,3.1043,3.0866,3.0762,3.0462,3.028,3.0219,3.0219,3.0158,3.0158,3.0158,3.0158,3.0111,3.0219,3.0266,3.0219,3.0387,3.0387,3.0219,3.0341,3.0401,3.0401,3.0522,3.0568,3.0568,3.0568,3.0568,3.0568,3.0507,3.0341,3.0111,2.9974,2.9775,3.0919,3.1179,3.1491,3.0993,3.1409,0.0,3.1981,3.3142,3.4159,3.4002,0.0,3.5932,3.5667,3.5728,3.5817,3.5817,3.5932,3.6019,3.6019,3.5905,3.5817,3.5817,3.5817,3.5817,3.5817,3.5773,3.5684,3.5424,3.5321,3.5198,3.4899,3.4899,3.4899,3.4899,3.4899,3.4899,3.4899,3.4899,3.4899,3.4899,3.4899,3.4899,3.4851,3.4787,3.4771,3.4771,3.3665,3.313,3.2933,3.1951,3.1482,3.1482,3.1482,3.1482,3.1482,3.1482,3.1409,3.1292,3.119,3.1014,3.0762,3.0642,3.0568,3.0568,3.0568,3.0568,3.0568,3.0568,3.0568,3.0642,3.0762,3.0955,3.1132,3.1132,3.1307,3.1482,3.1482,3.1482,3.1467,3.1351,3.1278,3.1161,3.0747,3.0642,3.0522,3.0172,3.0219,3.0326,3.0251,3.0266,3.0219,3.0111,3.0219,3.0266,3.0111,3.0219,3.0266,3.0111,3.0111,3.0111,3.005,3.0401,3.0568,3.0568,3.0568,3.0568,3.0568,3.0568,3.0401,3.0111,3.005,2.9851,3.1438,3.0871,3.037,3.1192,3.1625,3.2012,3.2691,3.3446,3.4024,3.3922,3.5101,3.6122,3.5932,3.5932,3.5949,3.5949,3.5975,3.6019,3.6019,3.6079,3.6122,3.6122,3.6036,3.5993,3.6079,3.579,3.552,3.5424,3.5211,3.5088,3.4899,3.4899,3.4899,3.4899,3.4899,3.4947,3.5058,3.5041,3.5041,3.5041,3.5041,3.4804,3.425,3.4086,3.3531,3.2633,3.3024,3.261,3.1709,3.1582,3.1482,3.1482,3.1482,3.1482,3.1482,3.1482,3.1467,3.1467,3.1409,3.1117,3.0821,3.0762,3.0568,3.0387,3.0387,3.0387,3.0387,3.0387,3.0507,3.0628,3.0642,3.094,3.1234,3.1234,3.1351,3.1482,3.1482,3.1482,3.1482,3.1467,3.1219,3.1087,3.1161,3.0866,3.0507,3.0266,3.0266,3.0266,3.0172,3.0172,3.0111,3.0111,3.0219,3.0266,3.0266,3.0251,3.0266,3.0111,3.0111,3.0036,2.9884,3.0097,3.0233,3.0233,3.0233,3.0233,3.0233,3.0233,3.0172,3.0111,2.9498,2.9219,3.1248,3.0919,3.0745,3.1428,3.1909,3.2324,3.2852,3.3665,3.4374,3.4466,3.5317,3.6079,3.5949,3.5993,3.6079,3.6079,3.6105,3.6131,3.6131,3.6165,3.6182,3.6122,3.5993,3.5949,3.5993,3.5728,3.5503,3.5424,3.5258,3.5105,3.4899,3.4899,3.4899,3.4899,3.4899,3.4947,3.4994,3.4994,3.4994,3.4994,3.4994,3.4804,3.4448,3.3716,3.3008,3.2305,3.254,3.2296,3.1652,3.1582,3.1482,3.1482,3.1482,3.1482,3.1482,3.1482,3.1482,3.1467,3.1366,3.1132,3.0895,3.0762,3.0568,3.0447,3.0447,3.0447,3.0447,3.0447,3.0507,3.0642,3.0821,3.0999,3.1234,3.1351,3.1467,3.1482,3.1482,3.1482,3.1482,3.1482,3.1351,3.1219,3.1161,3.0687,3.0341,3.0326,3.0266,3.0144,2.996,3.0036,3.005,2.9974,3.0097,3.0205,3.0205,3.0205,3.0158,2.9974,2.9927,2.9789,2.9713,2.9789,2.9927,3.0111,3.0111,3.0111,3.0111,3.0111,3.0111,3.0111,2.9699,2.956,3.0934,3.1151,3.15,3.1559,3.2085,3.2662,3.2934,3.3915,3.4899,3.5238,3.5694,3.5975,3.5888,3.6079,3.6208,3.6208,3.6276,3.6301,3.6301,3.6233,3.6165,3.6062,3.5932,3.5817,3.5817,3.5667,3.5487,3.5379,3.5274,3.5135,3.4899,3.4899,3.4899,3.4899,3.4899,3.4899,3.4899,3.4899,3.4899,3.4899,3.4691,3.4578,3.4529,3.3251,3.2703,3.2741,3.2281,3.2018,3.1921,3.1625,3.1482,3.1482,3.1482,3.1482,3.1482,3.1482,3.1482,3.1482,3.1249,3.1132,3.1073,3.0762,3.0642,3.0642,3.0628,3.0568,3.0568,3.0568,3.0568,3.0702,3.0955,3.1132,3.1249,3.1424,3.1482,3.1482,3.1482,3.1482,3.1482,3.1482,3.1482,3.1409,3.1146,3.0687,3.0341,3.0447,3.0401,3.0219,2.9946,3.0097,3.0097,2.9884,2.9974,3.0111,3.0111,3.005,2.9974,2.9808,2.9651,2.9602,2.9602,2.9602,2.9741,2.9988,2.9988,2.9988,2.9988,2.9988,2.9927,2.9837,2.9713,2.9588,3.121,3.1376,3.1351,3.1462,3.2064,3.2798,3.3522,3.4432,3.5304,3.5933,3.6114,3.6165,3.6233,3.6259,3.6301,3.6301,3.6301,3.6301,3.6301,3.6301,3.6259,3.6259,3.6105,3.5975,3.5975,3.5594,3.5337,3.5337,3.5088,3.4947,3.4899,3.4899,3.4899,3.4899,3.4899,3.4899,3.4899,3.4899,3.4899,3.4899,3.3885,3.3355,3.3198,3.2033,3.2033,3.2933,3.2336,3.1807,3.1394,3.1467,3.1482,3.1482,3.1482,3.1482,3.1482,3.1482,3.1482,3.1482,3.1482,3.1351,3.1234,3.1073,3.0895,3.0762,3.0642,3.0507,3.0326,3.0326,3.0568,3.0762,3.0821,3.1132,3.1482,3.1482,3.1482,3.1482,3.1482,3.1482,3.1482,3.1482,3.1482,3.1482,3.1409,3.1351,3.1292,3.1161,3.1161,3.0984,3.0568,3.0507,3.0401,3.0111,3.0111,3.0111,3.0111,2.996,2.9822,2.9808,2.9651,2.9602,2.9602,2.9602,2.9602,2.9665,2.9665,2.9665,2.9665,2.9665,2.9324,2.8698,2.813,2.7471,3.1223,3.1329,3.1397,3.1935,3.2616,3.3407,3.4281,3.5118,3.5838,3.6165,3.6276,3.6233,3.6251,3.6259,3.6301,3.6301,3.6301,3.6301,3.6301,3.6301,3.6216,3.6062,3.5888,3.5711,3.5639,3.5274,3.5105,3.5198,3.4994,3.4899,3.4899,3.4899,3.4899,3.4899,3.4899,3.4899,3.4899,3.4899,3.4756,3.4448,3.3968,3.3491,3.3093,3.2185,3.1823,3.1936,3.1709,3.1495,3.1278,3.1409,3.1482,3.1482,3.1482,3.1482,3.1482,3.1482,3.1482,3.1467,3.1176,3.1117,3.1117,3.0762,3.0702,3.0702,3.0642,3.0568,3.0568,3.0568,3.0762,3.1014,3.1058,3.1234,3.1409,3.1467,3.1482,3.1482,3.1482,3.1482,3.1482,3.1482,3.1482,3.1482,3.1482,3.1351,3.1161,3.0925,3.1174,3.1227,3.0797,3.1176,3.1469,3.1217,3.1154,3.1154,3.109,3.0637,3.0361,3.0361,2.9862,2.9602,2.9602,2.9602,2.9771,3.0122,2.9785,2.9602,2.9602,2.9602,2.9198,2.8505,2.8544,2.7986,3.1213,3.1426,3.1725,3.2134,3.3128,3.4089,3.4597,3.5503,3.6251,3.6301,3.6301,3.6259,3.6251,3.6276,3.6301,3.6301,3.6301,3.6301,3.6301,3.6301,3.6216,3.5949,3.58,3.5667,3.5412,3.5182,3.5024,3.5041,3.4947,3.4899,3.4899,3.4899,3.4899,3.4899,3.4899,3.4899,3.4899,3.4739,3.4497,3.4101,3.3832,3.3439,3.2986,3.2241,3.1667,3.1205,3.1292,3.1351,3.1351,3.1467,3.1482,3.1482,3.1482,3.1482,3.1482,3.1482,3.1482,3.1482,3.1117,3.0999,3.0999,3.0568,3.0447,3.0507,3.0462,3.0582,3.0762,3.0762,3.094,3.119,3.1234,3.1292,3.1351,3.1409,3.1467,3.1482,3.1482,3.1482,3.1482,3.1482,3.1482,3.1482,3.1482,3.1411,3.1279,3.1115,3.1596,3.182,3.1395,3.2003,3.237,3.2112,3.2047,3.1982,3.1838,3.1346,3.1027,3.0962,3.0397,3.008,3.008,3.008,3.0305,3.0769,3.0113,2.9748,2.9748,2.9748,2.932,2.8359,2.8756,2.8389,3.1274,3.1839,3.2287,3.1701,3.3305,3.4826,3.4123,3.5167,3.6301,3.6301,3.6301,3.6301,3.6301,3.6301,3.6301,3.6301,3.6301,3.6301,3.6301,3.6301,3.6301,3.6259,3.6191,3.5993,3.5622,3.547,3.5258,3.4947,3.4899,3.4899,3.4899,3.4899,3.4899,3.4899,3.4899,3.4899,3.4899,3.4399,3.4151,3.4101,3.298,3.2437,3.2453,3.1796,3.1524,3.1467,3.1351,3.1351,3.1482,3.1482,3.1482,3.1482,3.1482,3.1482,3.1482,3.1482,3.1482,3.1482,3.1467,3.1278,3.097,3.0807,3.0568,3.0266,3.0158,3.0341,3.0628,3.0628,3.094,3.1234,3.1132,3.1307,3.1467,3.1351,3.1409,3.1482,3.1482,3.1482,3.1482,3.1482,3.1482,3.1482,3.1482,3.1989,3.2408,3.2408,3.296,3.324,3.2915,3.2834,3.2625,3.2306,3.2112,3.1917,3.1707,3.1678,3.1599,3.1443,3.1415,3.1387,3.1387,3.1387,3.1415,3.1443,3.0637,3.0269,3.0269,3.0269,2.9482,2.8044,2.8069,2.7656,3.1543,3.2366,3.3294,3.31,3.4088,3.516,3.5373,3.588,3.6301,3.6301,3.6301,3.6301,3.6301,3.6301,3.6301,3.6301,3.6301,3.6259,3.6148,3.6105,3.6019,3.5711,3.5667,3.5577,3.5321,3.5228,3.5182,3.5041,3.4947,3.4899,3.4899,3.4899,3.4899,3.4899,3.4899,3.4739,3.4399,3.3799,3.3335,3.298,3.2617,3.2176,3.1796,3.1582,3.1482,3.1482,3.1467,3.1467,3.1482,3.1482,3.1482,3.1482,3.1482,3.1482,3.1482,3.1482,3.1482,3.1467,3.1219,3.1043,3.0807,3.0568,3.0341,3.0219,3.0341,3.0507,3.0642,3.0895,3.1073,3.1132,3.1132,3.119,3.1353,3.1842,3.2378,3.2796,3.2796,3.2796,3.2796,3.2796,3.2796,3.2796,3.2796,3.2991,3.308,3.2867,3.3431,3.3847,3.3466,3.3847,3.4046,3.3864,3.3798,3.3532,3.31,3.2663,3.2383,3.2075,3.171,3.1485,3.1485,3.1485,3.1668,3.2075,3.179,3.1172,3.0295,2.9771,2.8983,2.7999,2.8349,2.7903,3.1705,0.0,0.0,3.4008,3.4754,3.5631,3.6197,3.6301,3.6301,3.6301,3.6301,3.6301,3.6216,3.6216,3.6216,3.6216,3.6131,3.6002,3.5888,3.5888,3.5756,3.552,3.5487,3.5396,3.5228,3.5182,3.5152,3.5041,3.4947,3.4899,3.4899,3.4899,3.4804,3.4643,3.4643,3.4382,3.3815,3.3214,3.2734,3.2398,3.2176,3.191,3.1482,3.1482,3.1482,3.1482,3.1482,3.1482,3.1482,3.1482,3.1482,3.1482,3.1482,3.1482,3.1497,3.1779,3.1719,3.1511,3.153,3.1368,3.1099,3.058,3.0424,3.0383,3.0276,3.0387,3.0568,3.0762,3.0955,3.1087,3.1014,3.1235,3.1604,3.239,3.3227,3.3829,3.3829,3.3649,3.3499,3.3499,3.3499,3.3499,3.3499,3.3679,3.3752,3.355,3.4178,3.4545,3.4366,3.4735,3.4949,3.4898,3.4698,3.4414,3.3908,3.34,3.3036,3.2707,3.2328,3.2103,3.2103,3.2103,3.23,3.2707,3.2417,3.1693,3.0512,2.9987,2.9323,2.855,2.8622,2.824,0.0,0.0,0.0,0.0,3.5214,3.6301,3.6301,3.6301,3.6301,3.6301,3.6301,3.6259,3.6019,3.5975,3.5975,3.5975,3.5756,3.5622,3.5577,3.5577,3.5622,3.5773,3.5667,3.5532,3.5424,3.5321,3.5198,3.4947,3.4899,3.4899,3.4899,3.4899,3.4643,3.4101,3.405,3.3764,3.3198,3.2641,3.2398,3.2398,3.1811,3.1482,3.1482,3.1482,3.1482,3.1482,3.1482,3.1482,3.1482,3.1482,3.1482,3.1482,3.1482,3.1482,3.1556,3.2273,3.2108,3.1601,3.2317,3.2287,3.1852,3.0921,3.0848,3.0925,2.9924,2.9974,3.0326,3.0312,3.0702,3.1014,3.085,3.1454,3.2269,3.3043,3.3883,3.4502,3.4502,3.4008,3.3559,3.3559,3.3559,3.3559,3.3559,3.4083,3.4502,3.4502,3.507,3.5504,3.5504,3.5359,3.5213,3.5213,3.475,3.4346,3.4128,3.3799,3.3536,3.3326,3.3312,3.3326,3.3326,3.3326,3.3326,3.3255,3.2475,3.1709,3.0895,3.0895,3.0443,2.9626,2.8882,2.851,3.2586,0.0,0.0,0.0,0.0,0.0,3.6301,3.6301,3.6301,3.6301,3.6301,3.6259,3.6019,3.5844,3.5667,3.5503,3.5532,3.5577,3.547,3.547,3.5441,3.5321,3.5337,3.5321,3.5182,3.5182,3.5135,3.5041,3.4947,3.4899,3.4899,3.4546,3.4068,3.3475,3.3071,3.2819,3.2641,3.2064,3.1754,3.1754,3.1582,3.1482,3.1482,3.1482,3.1482,3.1482,3.1482,3.1482,3.1482,3.1482,3.1482,3.1482,3.1482,3.1482,3.1556,3.2273,3.2392,3.2332,3.2991,3.3017,3.2591,3.1652,3.1209,3.0988,3.0344,3.0158,3.0233,3.0582,3.0702,3.0819,3.1209,3.239,3.3475,3.3716,3.4535,3.522,3.522,3.507,3.4951,3.4951,3.4951,3.4951,3.4951,3.51,3.522,3.522,3.5385,3.5504,3.5504,3.5439,3.5439,3.5439,3.5294,3.5096,3.4735,3.4601,3.4264,3.3716,3.3646,3.3577,3.3326,3.3326,3.3016,3.2461,3.2232,3.1709,3.0895,3.0304,2.9626,2.8803,2.8578,2.851,0.0,0.0,0.0,0.0,0.0,0.0,3.6715,3.6542,3.6301,3.6301,3.6216,3.6088,3.5888,3.5622,3.5412,3.5182,3.5228,3.5304,3.5195,3.5211,3.5165,3.5088,3.5105,3.5135,3.5088,3.5041,3.4994,3.4994,3.4947,3.4804,3.4594,3.4018,3.3491,3.2895,3.2547,3.2287,3.2023,3.1697,3.1482,3.1482,3.1482,3.1482,3.1482,3.1482,3.1482,3.1482,3.1482,3.1482,3.1482,3.1482,3.1482,3.1482,3.1482,3.1482,3.1644,3.2587,3.2751,3.2647,3.3589,3.3764,3.3413,3.2126,3.1714,3.1584,3.0553,3.0405,3.0635,3.0928,3.1177,3.1526,3.2164,3.3083,3.3971,3.425,3.4881,3.5359,3.5359,3.5439,3.5504,3.5504,3.5504,3.5504,3.5504,3.5504,3.5504,3.5504,3.5504,3.5504,3.5504,3.5504,3.5504,3.5504,3.5359,3.5082,3.4735,3.452,3.4182,3.3646,3.3577,3.3521,3.3326,3.3326,3.3086,3.2618,3.2618,3.2015,3.0895,3.0075,2.925,2.851,2.851,2.851,0.0,0.0,0.0,0.0,0.0,0.0,3.7172,3.6784,3.6337,3.6337,3.6225,3.598,3.5751,3.5555,3.5338,3.5083,3.4969,3.4934,3.4899,3.4899,3.4947,3.5105,3.4994,3.4947,3.5041,3.4947,3.4899,3.4804,3.4739,3.448,3.3933,3.3475,3.2933,3.2342,3.2342,3.212,3.1539,3.1482,3.1482,3.1482,3.1482,3.1482,3.1482,3.1482,3.1482,3.1482,3.1482,3.1482,3.1482,3.1482,3.1482,3.1482,3.1482,3.1482,3.1631,3.3006,3.3125,3.2811,3.4143,3.4655,3.4304,3.2573,3.2449,3.262,3.0869,3.0836,3.1421,3.1421,3.2009,3.2759,3.3325,3.3631,3.3952,3.4551,3.4964,3.5213,3.5213,3.5359,3.5504,3.5504,3.5504,3.5504,3.5504,3.5504,3.5504,3.5504,3.5504,3.5504,3.5504,3.5504,3.5504,3.5504,3.5148,3.4868,3.4549,3.4182,3.3854,3.3521,3.3452,3.3382,3.3382,3.3326,3.3255,3.3171,3.3086,3.2331,3.0895,2.9999,2.9184,2.851,2.851,2.851,0.0,0.0,0.0,0.0,0.0,0.0,3.6123,3.6316,3.6622,3.6622,3.6576,3.6514,3.6373,3.6286,3.6184,3.5925,3.5386,3.5019,3.506,3.5041,3.5088,3.5088,3.5088,3.5041,3.4947,3.4899,3.4691,3.43,3.3799,3.3319,3.2765,3.3055,3.2734,3.1697,3.212,3.212,3.1539,3.1482,3.1482,3.1482,3.1482,3.1482,3.1482,3.1482,3.1482,3.1482,3.1482,3.1482,3.1482,3.1482,3.1482,3.1482,3.1482,3.1482,3.1631,3.3006,3.341,3.3499,3.4831,3.5409,3.5244,3.3814,3.3539,3.351,3.224,3.1968,3.2133,3.226,3.2788,3.3311,3.3507,3.3981,3.4603,3.4773,3.5001,3.5228,3.5439,3.5439,3.5504,3.5504,3.5504,3.5504,3.5504,3.5504,3.5504,3.5504,3.5504,3.5504,3.5504,3.5504,3.5504,3.5504,3.5439,3.5374,3.5294,3.5228,3.5016,3.4601,3.4332,3.4059,3.3716,3.3452,3.3016,3.239,3.1723,3.1193,3.0895,2.9406,2.8657,2.851,2.851,2.851,0.0,0.0,0.0,3.6202,0.0,0.0,0.0,3.6163,3.6173,3.6229,3.59,3.5562,3.5529,3.5465,3.5321,3.516,3.5069,3.5053,3.5121,3.5087,3.4994,3.4994,3.5326,3.5361,3.4932,3.4955,3.4592,3.3729,3.3108,3.2695,3.2382,3.2382,3.2104,3.1524,3.1796,3.1796,3.1482,3.1482,3.1482,3.1482,3.1482,3.1482,3.1482,3.1482,3.1482,3.1482,3.1482,3.1482,3.1482,3.1482,3.1482,3.1482,3.1482,3.1482,3.1601,3.2647,3.3291,3.3772,3.4763,3.5431,3.5646,3.4618,3.4154,3.3893,3.2928,3.278,3.2999,3.3369,3.3688,3.3935,3.3935,3.4249,3.4549,3.4601,3.4817,3.4964,3.5096,3.5162,3.5213,3.5213,3.5481,3.5681,3.5499,3.5504,3.5504,3.5504,3.5504,3.5504,3.5504,3.5504,3.5504,3.5504,3.5504,3.5439,3.5213,3.5213,3.5016,3.4668,3.4399,3.4128,3.3977,3.373,3.3593,3.362,3.2581,3.2049,3.2038,3.0666,2.9622,2.8937,2.8566,2.8271,0.0,0.0,0.0,0.0,0.0,3.5992,0.0,0.0,0.0,3.5662,3.5117,3.4619,3.4749,3.4581,3.4399,3.4258,3.4594,3.4962,3.5165,3.5082,3.5005,3.5103,3.5432,3.5448,3.4987,3.4832,3.4277,3.314,3.2655,3.2369,3.2231,3.1853,3.164,3.1482,3.1582,3.164,3.1482,3.1482,3.1482,3.1482,3.1482,3.1482,3.1482,3.1482,3.1482,3.1482,3.1482,3.1482,3.1482,3.1482,3.1482,3.1482,3.1482,3.1482,3.1571,3.2422,3.3111,3.3864,3.4633,3.5377,3.5882,3.5178,3.4666,3.4214,3.3505,3.3469,3.3746,3.4269,3.4414,3.4414,3.4414,3.4414,3.4414,3.4481,3.4563,3.4727,3.4926,3.4993,3.5156,3.5274,3.5716,3.5961,3.5657,3.5723,3.5813,3.5813,3.5878,3.5878,3.5878,3.5774,3.5744,3.5863,3.5654,3.5419,3.5178,3.5193,3.5001,3.4549,3.4564,3.4499,3.4315,3.4168,3.4468,3.5251,3.4192,3.3676,3.3684,3.2277,3.0871,2.9534,2.8867,2.8488,0.0,0.0,0.0,0.0,3.6815,0.0,0.0,0.0,3.5185,3.5345,0.0,3.5236,3.531,0.0,0.0,3.4454,3.4361,3.4607,3.5212,3.5213,3.5338,3.5877,3.4978,3.4525,3.5045,3.4155,3.3274,3.2554,3.2513,3.2197,3.1612,3.2064,3.2064,3.1539,3.2023,3.2023,3.1539,3.1482,3.1482,3.1482,3.1482,3.1482,3.1482,3.1482,3.1482,3.1482,3.1482,3.1482,3.1482,3.1482,3.1482,3.1482,3.1482,3.1482,3.1616,3.2931,3.3425,3.3741,3.5082,3.577,3.5958,3.5676,3.526,3.4736,3.4345,3.424,3.4312,3.4385,3.4414,3.4414,3.4414,3.4414,3.4414,3.4631,3.4698,3.4926,3.5604,3.579,3.5952,3.6457,3.6634,3.6541,3.5961,3.6413,3.6936,3.6936,3.7058,3.7195,3.7195,3.6716,3.6582,3.7135,3.6178,3.5663,3.603,3.6224,3.5919,3.4898,3.5942,3.6102,3.4907,3.5009,3.5277,3.5712,3.526,3.5142,3.552,3.3467,3.1584,2.9977,2.9905,2.9905,0.0,0.0,0.0,0.0,0.0,0.0,3.4818,0.0,3.4043,0.0,0.0,0.0,0.0,0.0,0.0,0.0,3.4424,3.4848,3.4864,3.5038,3.53,3.5522,3.5434,3.522,3.4746,3.3882,3.2951,3.1955,3.2255,3.2228,3.1511,3.1754,3.1739,3.1539,3.1754,3.1754,3.1482,3.1482,3.1482,3.1482,3.1482,3.1482,3.1482,3.1482,3.1482,3.1482,3.1482,3.1482,3.1482,3.1482,3.1764,3.2093,3.2093,3.2093,3.2168,3.2856,3.3668,3.4453,3.5184,3.5827,3.6226,3.5958,3.5559,3.5103,3.4802,3.4534,3.4414,3.4414,3.4414,3.4501,3.4864,3.4965,3.5053,3.5499,3.5656,3.5729,3.6061,3.6105,3.6193,3.6456,3.6821,3.701,3.6748,3.6954,3.7089,3.7089,3.7282,3.7404,3.7404,3.718,3.712,3.7375,3.6926,3.6649,3.685,3.6948,3.6828,3.641,3.6778,3.6678,3.5767,3.5813,3.6056,3.6517,3.606,3.593,3.6101,3.4974,3.3763,3.2516,3.0772,2.9845,3.7868,0.0,0.0,0.0,0.0,0.0,0.0,0.0,0.0,0.0,0.0,0.0,0.0,0.0,0.0,0.0,0.0,3.4941,3.4535,3.4819,3.507,3.5243,3.5739,3.5537,3.4268,3.3887,3.315,3.1869,3.2422,3.2422,3.1526,3.1482,3.1482,3.1482,3.1482,3.1482,3.1482,3.1482,3.1482,3.1482,3.1482,3.1482,3.1482,3.1482,3.1482,3.1482,3.1482,3.1571,3.1735,3.1735,3.2198,3.2856,3.2856,3.3021,3.3171,3.3306,3.4031,3.5064,3.5354,3.5937,3.6429,3.61,3.5752,3.535,3.4986,3.4668,3.4414,3.4414,3.4545,3.4777,3.5241,3.5488,3.5735,3.6199,3.6301,3.6359,3.6533,3.6577,3.6635,3.6794,3.7215,3.7549,3.7549,3.752,3.7482,3.7482,3.7679,3.7804,3.7804,3.764,3.761,3.7789,3.7476,3.7273,3.7466,3.755,3.7694,3.7943,3.753,3.7219,3.6953,3.6896,3.6983,3.7387,3.7014,3.6759,3.678,3.6056,3.54,3.4624,3.1938,3.0592,0.0,0.0,0.0,3.7318,0.0,0.0,0.0,0.0,3.4211,0.0,0.0,0.0,0.0,0.0,0.0,0.0,0.0,0.0,0.0,3.452,3.4725,3.5337,3.5413,3.4941,3.3667,3.4115,3.3935,3.2587,3.3095,3.2901,3.1541,3.1482,3.1482,3.1482,3.1482,3.1482,3.1482,3.1482,3.1482,3.1482,3.1482,3.1482,3.1482,3.1482,3.1482,3.1482,3.1482,3.1898,3.2482,3.2482,3.3006,3.3728,3.3728,3.4243,3.4911,3.471,3.4802,3.5124,3.5889,3.6321,3.6429,3.61,3.5752,3.535,3.4986,3.4668,3.4414,3.4414,3.4849,3.5343,3.5357,3.5807,3.6286,3.6301,3.6301,3.6489,3.7143,3.7273,3.7447,3.8028,3.8159,3.8173,3.8173,3.8308,3.8457,3.8457,3.8664,3.8723,3.8723,3.8178,3.803,3.8664,3.7603,3.7046,3.7549,3.7895,3.8448,3.9305,3.825,3.7959,3.8694,3.8354,3.8234,3.8412,3.8098,3.7857,3.7886,3.661,3.5896,3.5588,3.3791,3.2845,0.0,0.0,3.7438,3.6868,0.0,0.0,0.0,0.0,0.0,0.0,0.0,0.0,0.0,0.0,0.0,0.0,0.0,0.0,0.0,3.4098,3.4267,3.5344,3.4711,3.4135,3.4175,3.4352,3.3933,3.2617,3.3125,3.2916,3.1541,3.1482,3.1482,3.1482,3.1482,3.1482,3.1482,3.1482,3.1482,3.1482,3.1482,3.1482,3.1482,3.1482,3.1482,3.1497,3.2003,3.2302,3.2542,3.2976,3.3621,3.4267,3.4391,3.4908,3.5579,3.5185,3.5354,3.5843,3.6275,3.6414,3.6492,3.6367,3.61,3.5767,3.5638,3.5627,3.5583,3.5583,3.5849,3.631,3.6733,3.6938,3.707,3.7462,3.7564,3.7622,3.7854,3.7897,3.7955,3.8159,3.8202,3.8202,3.8202,3.8277,3.8366,3.8441,3.8649,3.8782,3.8782,3.859,3.8546,3.8767,3.8471,3.8381,3.8618,3.8792,3.9113,3.9409,3.8984,3.8794,3.8782,3.8575,3.8277,3.8127,3.7825,3.7672,3.7687,3.7289,3.7042,3.6964,3.5561,3.4568,3.7752,3.7479,3.7024,3.6654,3.5679,0.0,3.4238,0.0,0.0,0.0,0.0,0.0,0.0,0.0,0.0,0.0,0.0,0.0,0.0,3.3963,3.4083,3.4711,3.4233,3.4098,3.4786,3.4846,3.4382,3.329,3.338,3.3021,3.1943,3.1601,3.1482,3.1482,3.1482,3.1482,3.1482,3.1482,3.1482,3.1482,3.1764,3.1884,3.1884,3.2123,3.2228,3.2258,3.2677,3.2991,3.3245,3.3726,3.4343,3.5085,3.518,3.5641,3.6117,3.5722,3.5891,3.6352,3.6492,3.6492,3.6492,3.6492,3.6331,3.6129,3.6209,3.6267,3.6261,3.633,3.6593,3.6909,3.739,3.7535,3.7723,3.8115,3.8202,3.8202,3.8202,3.8202,3.8202,3.8202,3.8202,3.8202,3.8202,3.8202,3.8202,3.8366,3.8501,3.8575,3.8575,3.8575,3.8575,3.8575,3.8723,3.8811,3.8885,3.9046,3.9119,3.9177,3.9177,3.9104,3.8782,3.8649,3.8427,3.8127,3.7991,3.7839,3.7625,3.7625,3.7534,3.738,3.6652,3.5976]}]]